[[{"header":{"parameterUnit":"m.s-1","parameterCategory":1,"la1":30.6,"la2":29.2853,"lo1":-89.7004,"lo2":-87.6739,"dy":0.0162,"dx":0.0183,"nx":112,"ny":82,"refTime":"2024-06-13T18:00:00:Z","depth":0,"parameterNumber":2,"parameterNumberName":"U-component_of_WINDS"},"data":[0.0,0.0,0.0,0.0,0.0,0.0,0.0,0.0,0.0,0.0,0.0,0.0,0.0,0.0,0.0,0.0,0.0,0.0,0.0,0.0,0.0,0.0,0.0,0.0,0.0,0.0,0.0,0.0,0.0,0.0,0.0,0.0,0.0,0.0,0.0,0.0,0.0,0.0,0.0,0.0,0.0,0.0,0.0,0.0,0.0,0.0,0.0,0.0,0.0,0.0,0.0,0.0,0.0,0.0,0.0,0.0,0.0,0.0,0.0,0.0,0.0,0.0,0.0,0.0,0.0,0.0,0.0,0.0,0.0,0.0,0.0,0.0,0.0,0.0,0.0,0.0,0.0,0.0,0.0,0.0,0.0,0.0,0.0,0.0,0.0,0.0,0.0,0.0,0.0,0.0,0.0,0.7468,0.9786,1.1531,1.2236,1.1984,1.0619,0.7851,0.0,0.0,0.0,0.0,0.0,0.0,0.0,0.0,0.0,0.0,0.0,0.0,0.0,0.0,0.0,0.0,0.0,0.0,0.0,0.0,0.0,0.0,0.0,0.0,0.0,0.0,0.0,0.0,0.0,0.0,0.0,0.0,0.0,0.0,0.0,0.0,0.0,0.0,0.0,0.0,0.0,0.0,0.0,0.0,0.0,0.0,0.0,0.0,0.0,0.0,0.0,0.0,0.0,0.0,0.0,0.0,0.0,0.0,0.0,0.0,0.0,0.0,0.0,0.0,0.0,0.0,0.0,0.0,0.0,0.0,0.0,0.0,0.0,0.0,0.0,0.0,0.0,0.0,0.0,0.0,0.0,0.0,0.0,0.0,0.0,0.0,0.0,0.0,0.0,0.0,0.0,0.0,0.0,0.0,0.0,0.0,0.0,0.0,0.0,0.0,0.0,0.0,0.0,0.0,0.7433,1.0405,1.0859,1.1324,1.2211,1.1984,1.0587,0.7786,0.0,0.0,0.0,0.0,0.0,0.0,0.0,0.0,0.0,0.0,0.0,0.0,0.0,0.0,0.0,0.0,0.0,0.0,0.0,0.0,0.0,0.0,0.0,0.0,0.0,0.0,0.0,0.0,0.0,0.0,0.0,0.0,0.0,0.0,0.0,0.0,0.0,0.0,0.0,0.0,0.0,0.0,0.0,0.0,0.0,0.0,0.0,0.0,0.0,0.0,0.0,0.0,0.0,0.0,0.0,0.0,0.0,0.0,0.0,0.0,0.0,0.0,0.0,0.0,0.0,0.0,0.0,0.0,0.0,0.0,0.0,0.0,0.0,0.0,0.0,0.0,0.0,0.0,0.0,0.0,0.0,0.0,0.0,0.0,0.0,0.0,0.0,0.0,0.0,0.0,0.0,0.0,0.0,0.0,0.0,0.0,0.0,0.0,0.0,0.0,0.0,0.0,0.0,0.6129,0.7474,1.0302,1.0606,1.0873,1.1489,1.1533,1.0398,0.7768,0.7913,0.0,0.0,0.0,0.0,0.0,0.0,0.0,0.0,0.0,0.0,0.0,0.0,0.0,0.0,0.0,0.0,0.0,0.0,0.0,0.0,0.0,0.0,0.0,0.0,0.0,0.0,0.0,0.0,0.0,0.0,0.0,0.0,0.0,0.0,0.0,0.0,0.0,0.0,0.0,0.0,0.0,0.0,0.0,0.0,0.0,0.0,0.0,0.0,0.0,0.0,0.0,0.0,0.0,0.0,0.0,0.0,0.0,0.0,0.0,0.0,0.0,0.0,0.0,0.0,0.0,0.0,0.0,0.0,0.0,0.0,0.0,0.0,0.0,0.0,0.0,0.0,0.0,0.0,0.0,0.0,0.0,0.0,0.0,0.0,0.0,0.0,0.0,0.0,0.0,0.0,0.0,0.0,0.0,0.0,0.0,0.0,0.0,0.0,0.0,0.0,0.0,0.0,0.6394,0.7719,0.9705,1.021,1.0532,1.0852,1.1019,1.0093,0.7732,0.8101,0.0,0.0,0.0,0.0,0.0,0.0,0.0,0.0,0.0,0.0,0.0,0.0,0.0,0.0,0.0,0.0,0.0,0.0,0.0,0.0,0.0,0.0,0.0,0.0,0.0,0.0,0.0,0.0,0.0,0.0,0.0,0.0,0.0,0.0,0.0,0.0,0.0,0.0,0.0,0.0,0.0,0.0,0.0,0.0,0.0,0.0,0.0,0.0,0.0,0.0,0.0,0.0,0.0,0.0,0.0,0.0,0.0,0.0,0.0,0.0,0.0,0.0,0.0,0.0,0.0,0.0,0.0,0.0,0.0,0.0,0.0,0.0,0.0,0.0,0.0,0.0,0.0,0.0,0.0,0.0,0.0,0.0,0.0,0.0,0.0,0.0,0.0,0.0,0.0,0.0,0.0,0.0,0.0,0.0,0.0,0.0,0.0,0.0,0.0,0.0,0.0,0.0,0.6362,0.8941,0.9805,1.0209,1.0532,1.0876,1.0624,0.9643,0.7724,0.7524,0.0,0.0,0.0,0.0,0.0,0.0,0.0,0.0,0.0,0.0,0.0,0.0,0.0,0.0,0.0,0.0,0.0,0.0,0.0,0.0,0.0,0.0,0.0,0.0,0.0,0.0,0.0,0.0,0.0,0.0,0.0,0.0,0.0,0.0,0.0,0.0,0.0,0.0,0.0,0.0,0.0,0.0,0.0,0.0,0.0,0.0,0.0,0.0,0.0,0.0,0.0,0.0,0.0,0.0,0.0,0.0,0.0,0.0,0.0,0.0,0.0,0.0,0.0,0.0,0.0,0.0,0.0,0.0,0.0,0.0,0.0,0.0,0.0,0.0,0.0,0.0,0.0,0.0,0.0,0.0,0.0,0.0,0.0,0.0,0.0,0.0,0.0,0.0,0.0,0.0,0.0,0.0,0.0,0.0,0.0,0.0,0.0,0.0,0.0,0.0,0.0,0.0,0.6212,0.8575,0.0,1.0008,1.0324,1.084,1.0406,0.9367,0.771,0.0,0.0,0.0,0.0,0.0,0.0,0.0,0.0,0.0,0.0,0.0,0.0,0.0,0.0,0.0,0.0,0.0,0.0,0.0,0.0,0.0,0.0,0.0,0.0,0.0,0.0,0.0,0.0,0.0,0.0,0.0,0.0,0.0,0.0,0.0,0.0,0.0,0.0,0.0,0.0,0.0,0.0,0.0,0.0,0.0,0.0,0.0,0.0,0.0,0.0,0.0,0.0,0.0,0.0,0.0,0.0,0.0,0.0,0.0,0.0,0.0,0.0,0.0,0.0,0.0,0.0,0.0,0.0,0.0,0.0,0.0,0.0,0.0,0.0,0.0,0.0,0.0,0.0,0.0,0.0,0.0,0.0,0.0,0.0,0.0,0.0,0.0,0.0,0.0,0.0,0.0,0.0,0.0,0.0,0.0,0.0,0.0,0.0,0.0,0.0,0.0,0.0,0.4131,0.6704,0.8788,0.0,0.9905,1.0161,1.0836,1.01,0.9013,0.7688,0.0,0.0,0.0,0.0,0.0,0.0,0.0,0.0,0.0,0.0,0.0,0.0,0.0,0.0,0.0,0.0,0.0,0.0,0.0,0.0,0.0,0.0,0.0,0.0,0.0,0.0,0.0,0.0,0.0,0.0,0.0,0.0,0.0,0.0,0.0,0.0,0.0,0.0,0.0,0.0,0.0,0.0,0.0,0.0,0.0,0.0,0.0,0.0,0.0,0.0,0.0,0.0,0.0,0.0,0.0,0.0,0.0,0.0,0.0,0.0,0.0,0.0,0.0,0.0,0.0,0.0,0.0,0.0,0.0,0.0,0.0,0.0,0.0,0.0,0.0,0.0,0.0,0.0,0.0,0.0,0.0,0.0,0.0,0.0,0.0,0.0,0.0,0.0,0.0,0.0,0.0,0.0,0.0,0.0,0.0,0.0,0.0,0.0,0.0,0.0,0.0,0.0,0.4932,0.7923,0.9905,0.9905,0.9905,1.0174,1.0846,0.9665,0.8524,0.0,0.0,0.0,0.0,0.0,0.0,0.0,0.0,0.0,0.0,0.0,0.0,0.0,0.0,0.0,0.0,0.0,0.0,0.0,0.0,0.0,0.0,0.0,0.0,0.0,0.0,0.0,0.0,0.0,0.0,0.0,0.0,0.0,0.0,0.0,0.0,0.0,0.0,0.0,0.0,0.0,0.0,0.0,0.0,0.0,0.0,0.0,0.0,0.0,0.0,0.0,0.0,0.0,0.0,0.0,0.0,0.0,0.0,0.0,0.0,0.0,0.0,0.0,0.0,0.0,0.0,0.0,0.0,0.0,0.0,0.0,0.0,0.0,0.0,0.0,0.0,0.0,0.0,0.0,0.0,0.0,0.0,0.0,0.0,0.0,0.0,0.0,0.0,0.0,0.0,0.0,0.0,0.0,0.0,0.0,0.0,0.0,0.0,0.0,0.0,0.0,0.0,0.0,0.7978,0.9317,0.9905,0.9905,0.9905,1.0084,1.0521,0.9529,0.8461,0.7387,0.0,0.0,0.0,0.0,0.0,0.0,0.0,0.0,0.0,0.0,0.0,0.0,0.0,0.0,0.0,0.0,0.0,0.0,0.0,0.0,0.0,0.0,0.0,0.0,0.0,0.0,0.0,0.0,0.0,0.0,0.0,0.0,0.0,0.0,0.0,0.0,0.0,0.0,0.0,0.0,0.0,0.0,0.0,0.0,0.0,0.0,0.0,0.0,0.0,0.0,0.0,0.0,0.0,0.0,0.0,0.0,0.0,0.0,0.0,0.0,0.0,0.0,0.0,0.0,0.0,0.0,0.0,0.0,0.0,0.0,0.0,0.0,0.0,0.0,0.0,0.0,0.0,0.0,0.0,0.0,0.0,0.0,0.0,0.0,0.0,0.0,0.0,0.0,0.0,0.0,0.0,0.0,0.0,0.0,0.0,0.0,0.0,0.0,0.0,0.0,0.0,0.0,0.8622,0.9274,0.9504,0.9597,0.979,1.0033,1.0354,0.9398,0.8428,0.765,0.0,0.0,0.0,0.0,0.0,0.0,0.0,0.0,0.0,0.0,0.0,0.0,0.0,0.0,0.0,0.0,0.0,0.0,0.0,0.0,0.0,0.0,0.0,0.0,0.0,0.0,0.0,0.0,0.0,0.0,0.0,0.0,0.0,0.0,0.0,0.0,0.0,0.0,0.0,0.0,0.0,0.0,0.0,0.0,0.0,0.0,0.0,0.0,0.0,0.0,0.0,0.0,0.0,0.0,0.0,0.0,0.0,0.0,0.0,0.0,0.0,0.0,0.0,0.0,0.0,0.0,0.0,0.0,0.0,0.0,0.0,0.0,0.0,0.0,0.0,0.0,0.0,0.0,0.0,0.0,0.0,0.0,0.0,0.0,0.0,0.0,0.0,0.0,0.0,0.0,0.0,0.0,0.0,0.0,0.0,0.0,0.0,0.0,0.0,0.0,0.0,0.0,0.7622,0.8401,0.8985,0.9233,0.9647,1.0033,1.0341,0.9348,0.8567,0.8199,0.0,0.0,0.0,0.0,0.0,0.0,0.0,0.0,0.0,0.0,0.0,0.0,0.0,0.0,0.0,0.0,0.0,0.0,0.0,0.0,0.0,0.0,0.0,0.0,0.0,0.0,0.0,0.0,0.0,0.0,0.0,0.0,0.0,0.0,0.0,0.0,0.0,0.0,0.0,0.0,0.0,0.0,0.0,0.0,0.0,0.0,0.0,0.0,0.0,0.0,0.0,0.0,0.0,0.0,0.0,0.0,0.0,0.0,0.0,0.0,0.428,0.0,0.0,0.0,0.0,0.0,0.0,0.0,0.0,0.0,0.0,0.0,0.0,0.0,0.0,0.0,0.0,0.0,0.0,0.0,0.0,0.0,0.0,0.0,0.0,0.0,0.0,0.0,0.0,0.0,0.0,0.0,0.0,0.0,0.0,0.0,0.0,0.0,0.0,0.0,0.0,0.0,0.7679,0.879,0.9704,0.9751,0.9841,0.9944,0.9995,0.9766,0.9159,0.8035,0.7576,0.0,0.0,0.0,0.0,0.0,0.0,0.0,0.0,0.0,0.0,0.0,0.0,0.0,0.0,0.0,0.0,0.0,0.0,0.0,0.0,0.0,0.0,0.0,0.0,0.0,0.0,0.0,0.0,0.0,0.0,0.0,0.0,0.0,0.0,0.0,0.0,0.0,0.0,0.0,0.0,0.0,0.0,0.0,0.0,0.0,0.0,0.0,0.0,0.0,0.0,0.0,0.0,0.0,0.0,0.0,0.0,0.0,0.0,0.0,0.0,0.5948,0.0,0.0,0.0,0.0,0.0,0.0,0.0,0.0,0.0,0.0,0.0,0.0,0.0,0.0,0.0,0.0,0.0,0.0,0.0,0.0,0.0,0.0,0.0,0.0,0.0,0.0,0.0,0.0,0.0,0.0,0.0,0.0,0.0,0.0,0.0,0.0,0.0,0.0,0.0,0.0,0.7348,0.8567,0.9554,0.9661,0.9802,0.9956,1.0123,0.9905,0.9439,0.8673,0.8088,0.0,0.0,0.0,0.0,0.0,0.0,0.0,0.0,0.0,0.0,0.0,0.0,0.0,0.0,0.0,0.0,0.0,0.0,0.0,0.0,0.0,0.0,0.0,0.0,0.0,0.0,0.0,0.0,0.0,0.0,0.0,0.0,0.0,0.0,0.0,0.0,0.0,0.0,0.0,0.0,0.0,0.0,0.0,0.0,0.0,0.0,0.0,0.0,0.0,0.0,0.0,0.0,0.0,0.582,0.5884,0.7264,0.7264,0.7264,0.7249,0.6634,0.6521,0.6635,0.0,0.0,0.0,0.0,0.0,0.0,0.0,0.0,0.0,0.0,0.0,0.0,0.0,0.0,0.0,0.0,0.0,0.0,0.0,0.0,0.0,0.0,0.0,0.0,0.0,1.2149,1.1258,0.0,0.0,0.0,0.0,0.0,0.0,0.0,0.0,0.0,0.0,0.0,0.0,0.7005,0.8337,0.9293,0.9466,0.9738,1.0046,1.0353,1.0046,0.9697,0.941,0.8532,0.7914,0.0,0.0,0.0,0.0,0.0,0.0,0.0,0.0,0.0,0.0,0.0,0.0,0.0,0.0,0.0,0.0,0.0,0.0,0.0,0.0,0.0,0.0,0.0,0.0,0.0,0.0,0.0,0.0,0.0,0.0,0.0,0.0,0.1404,0.095,0.0,0.0,0.0,0.0,0.0,0.0,0.0,0.0,0.0,0.0,0.0,0.0,0.0,0.3804,0.4947,0.4932,0.5178,0.5617,0.5392,0.5399,0.5617,0.5617,0.5617,0.5609,0.5522,0.0,0.74,0.5602,0.0,0.0,0.0,0.0,0.0,0.0,0.0,0.0,0.0,0.0,0.0,0.0,0.0,0.0,0.0,0.0,0.0,0.0,0.0,0.0,0.0,0.0,1.148,1.1736,1.357,1.445,0.0,0.9026,0.8049,1.0324,0.7034,0.0,0.0,0.0,0.0,0.0,0.0,0.0,0.7286,0.8746,0.9792,0.9841,0.988,1.0046,1.0371,1.0605,1.0353,0.9451,0.953,0.8826,0.7099,0.7429,0.0,0.0,0.0,0.0,0.0,0.0,0.0,0.0,0.0,0.0,0.0,0.0,0.0,0.0,0.0,0.0,0.0,0.0,0.0,0.0,0.0,0.0,0.0,0.0,0.0,0.0,0.0,0.0,0.0,0.147,0.1706,0.1442,0.1411,0.1281,0.0,0.0,0.0,0.0,0.0,0.0,0.0,0.0,0.0,0.3736,0.4242,0.4756,0.5309,0.5309,0.5611,0.6259,0.6259,0.6259,0.6259,0.6259,0.6259,0.6259,0.6259,0.6656,0.7273,0.6775,0.5661,0.4216,0.0,0.0,0.0,0.0,0.4705,0.7042,0.7209,0.8792,0.0,1.0736,0.0,0.0,0.0,0.0,0.0,0.0,0.0,0.0,0.0,0.0,1.406,1.406,1.4944,1.5484,1.43,1.3145,1.2231,0.0,0.9345,0.6425,0.3764,0.0,0.0,0.0,0.0,0.7914,0.7872,0.9066,0.997,1.016,1.0185,1.0388,1.0865,1.1051,1.07,0.9747,0.9821,0.9172,0.7533,0.7388,0.6962,0.0,0.0,0.0,0.0,0.0,0.0,0.0,0.0,0.0,0.0,0.0,0.0,0.0,0.0,0.0,0.0,0.0,0.0,0.0,0.0,0.0,0.0,0.0,0.0,0.0,0.0,0.0,0.0,0.1576,0.1689,0.1998,0.1765,0.1401,0.0,0.0,0.0,0.0,0.0,0.0,0.2706,0.3494,0.4375,0.5282,0.5571,0.5725,0.5725,0.5725,0.6159,0.6979,0.6979,0.6979,0.6979,0.6979,0.6979,0.6979,0.6979,0.6979,0.701,0.7065,0.6555,0.5643,0.4388,0.3906,0.395,0.4297,0.6498,0.9402,0.985,1.0338,1.0659,1.0081,0.0,0.8763,1.0735,0.0,0.0,0.0,0.0,1.2713,1.2273,1.3967,1.5799,1.5799,1.5799,1.5799,1.5799,1.5448,1.4471,0.0,1.1228,0.9516,0.5664,0.0,0.0,0.0,0.0,0.8249,0.8487,0.9328,0.9995,1.026,1.0285,1.0525,1.1145,1.1188,1.0832,0.9965,0.9845,0.9223,0.7944,0.7315,0.7171,0.756,0.0,0.0,0.0,0.0,0.0,0.0,0.0,0.0,0.0,0.0,0.0,0.0,0.0,0.0,0.0,0.0,0.0,0.0,0.0,0.0,0.0,0.0,0.0,0.0,0.0,0.0,0.0,0.0,0.0,0.253,0.1635,0.0,0.0,0.0,0.0,0.3253,0.4469,0.5134,0.5134,0.5188,0.5248,0.5309,0.6353,0.6934,0.6934,0.6934,0.6961,0.6979,0.6979,0.6979,0.6979,0.6979,0.6979,0.6979,0.6979,0.6979,0.6934,0.5862,0.6281,0.7559,0.7472,0.7442,0.7442,0.7471,0.7625,0.8039,0.9688,1.1497,1.2685,1.0596,0.9843,0.9831,0.9957,0.9818,0.0,0.0,1.2493,1.5228,1.3566,1.4467,1.5799,1.5799,1.5799,1.5799,1.5799,1.4501,1.3024,0.0,1.2481,1.2296,0.9968,0.0,0.8415,0.7443,0.7876,0.8474,0.9,0.9541,0.9893,0.9931,0.9919,1.0211,1.0863,1.091,1.0644,0.9944,0.9654,0.9034,0.7944,0.7441,0.7023,0.6668,0.7383,0.0,0.0,0.0,0.0,0.0,0.0,0.0,0.0,0.0,0.0,0.0,0.0,0.0,0.0,0.0,0.0,0.0,0.0,0.0,0.0,0.0,0.0,0.0,0.0,0.0,0.0,0.0,0.0,0.2572,0.1628,0.0,0.197,0.2045,0.2318,0.2946,0.4422,0.5309,0.5309,0.5992,0.64,0.64,0.535,0.4831,0.4831,0.4831,0.4831,0.4831,0.4831,0.4831,0.4874,0.6337,0.6979,0.6979,0.6979,0.6979,0.6945,0.6573,0.6736,0.74,0.8811,0.9375,0.9375,0.9375,0.9375,0.9463,1.0068,1.0764,1.12,1.0417,1.0169,1.0396,1.1648,1.2008,1.2008,1.2008,1.3044,1.4,1.3357,1.3648,1.4117,1.4117,1.4117,1.4117,1.4117,1.3648,1.3082,1.2756,1.2961,1.2947,1.2146,1.1023,0.9943,0.9116,0.9818,1.0345,1.0157,1.0307,1.0375,1.0224,1.021,1.0421,1.0847,1.1048,1.065,0.9453,0.9622,0.913,0.7752,0.7543,0.7398,0.7258,0.7386,0.7012,0.0,0.0,0.0,0.0,0.0,0.0,0.0,0.0,0.0,0.0,0.0,0.0,0.0,0.0,0.0,0.0,0.0,0.0,0.0,0.0,0.0,0.0,0.0,0.0,0.0,0.0,0.1794,0.262,0.2164,0.2113,0.2907,0.3021,0.3021,0.3021,0.4071,0.4721,0.4721,0.5429,0.5862,0.5862,0.4403,0.3581,0.3581,0.3581,0.3581,0.3581,0.3581,0.3581,0.3667,0.5178,0.5862,0.5905,0.6677,0.6979,0.6979,0.6979,0.6979,0.714,0.861,0.9628,1.0283,1.0283,1.0283,1.0283,1.0283,1.0283,1.0283,1.0283,1.0283,1.0544,1.1836,1.2685,1.3198,1.3198,1.3198,1.3198,1.3198,1.3198,1.3198,1.3198,1.3198,1.3198,1.3198,1.3198,1.3198,1.3198,1.3198,1.3198,1.3198,1.2384,1.1412,1.042,1.1023,1.1312,1.0518,1.0581,1.059,1.0262,1.0235,1.0383,1.0702,1.0733,1.0395,0.959,0.9395,0.8935,0.807,0.7486,0.7199,0.7258,0.6871,0.6629,0.6607,0.0,0.0,0.0,0.0,0.0,0.0,0.0,0.0,0.0,0.0,0.0,0.0,0.0,0.0,0.0,0.0,0.0,0.0,0.0,0.0,0.0,0.0,0.0,0.1916,0.2355,0.2743,0.2743,0.3265,0.3581,0.3581,0.3581,0.3581,0.3581,0.3581,0.3581,0.3581,0.3581,0.3581,0.3581,0.3581,0.3578,0.349,0.3578,0.3581,0.3581,0.3581,0.3581,0.3581,0.3581,0.3581,0.3711,0.5947,0.6894,0.6894,0.6979,0.6979,0.6979,0.6979,0.8325,1.0205,1.0205,1.0244,1.0283,1.0283,1.0283,1.0283,1.0283,1.0283,1.0283,1.0283,1.1616,1.3129,1.3129,1.3163,1.3198,1.3129,1.3163,1.3198,1.3198,1.3198,1.3198,1.3198,1.3198,1.3198,1.3198,1.3198,1.3198,1.3198,1.3198,1.271,1.1286,1.1387,0.0,1.0119,1.0433,1.0506,0.9956,0.988,1.0008,1.0319,0.9894,0.9814,1.0306,0.9021,0.8414,0.8829,0.724,0.6436,0.6613,0.5973,0.5968,0.6625,0.0,0.0,0.0,0.0,0.0,0.0,0.0,0.0,0.0,0.0,0.0,0.0,0.0,0.0,0.0,0.0,0.0,0.0,0.0,0.0,0.0,0.0,0.2654,0.2486,0.2987,0.3334,0.3334,0.348,0.3581,0.3581,0.3581,0.3581,0.3581,0.3581,0.3581,0.3581,0.3581,0.3581,0.3581,0.3581,0.2771,0.0986,0.2726,0.3581,0.3581,0.3581,0.3581,0.3581,0.3581,0.3581,0.3622,0.4276,0.453,0.4661,0.6331,0.6979,0.6979,0.6979,0.7391,0.7915,0.7915,0.8933,1.0283,1.0283,1.0283,1.0283,1.0283,1.0283,1.0283,1.0283,1.0687,1.1094,1.1094,1.2126,1.2861,1.1468,1.2126,1.3198,1.3198,1.3198,1.3198,1.3198,1.3198,1.3198,1.3198,1.3198,1.3198,1.3198,1.3198,1.306,1.2647,1.2685,0.0,1.1814,1.15,1.0973,1.0006,0.9541,0.9342,0.9441,0.9551,0.9382,0.8907,0.8992,0.8651,0.7705,0.7398,0.7169,0.7036,0.656,0.6639,0.0,0.0,0.0,0.0,0.0,0.0,0.0,0.0,0.0,0.0,0.0,0.0,0.0,0.0,0.0,0.0,0.0,0.0,0.0,0.0,0.0,0.0,0.2929,0.3059,0.3059,0.3361,0.3581,0.3581,0.3581,0.322,0.219,0.2101,0.2504,0.3534,0.3581,0.3581,0.3581,0.3581,0.3132,0.2146,0.2101,0.1432,-0.0,0.1387,0.2101,0.2101,0.3132,0.3084,0.2146,0.3132,0.3581,0.0,0.3581,0.3581,0.3711,0.5048,0.6118,0.0,0.0,0.0,0.0,0.0,0.9182,1.0283,1.0283,1.0283,1.0283,1.0283,1.0283,1.0283,1.0283,1.0283,1.0283,1.0283,1.1094,1.1726,1.0582,1.1132,1.1982,1.1982,1.2615,1.3198,1.3198,1.3198,1.3198,1.3198,1.3198,0.0,1.3198,1.3198,1.3198,1.3198,1.3198,1.2922,1.2165,1.1989,1.1588,1.0709,1.0106,0.9755,0.9771,0.9554,0.0,0.0,0.0,0.8699,0.7421,0.753,0.0,0.0,0.0,0.0,0.0,0.0,0.0,0.0,0.7498,0.7668,0.0,0.0,0.0,0.0,0.0,0.0,0.0,0.0,0.0,0.0,0.0,0.0,0.0,0.0,0.0,0.0,0.3272,0.3581,0.3585,0.3585,0.3493,0.322,0.3176,0.2368,0.0225,-0.0,0.0896,0.304,0.3176,0.3176,0.3176,0.0,0.0,0.0,0.0,-0.0,-0.0,-0.0,-0.0,0.0045,0.219,0.2237,0.0494,0.2637,0.3615,0.368,0.368,0.3643,0.3581,0.3581,0.5018,0.7165,0.7074,0.6979,0.7286,0.9708,1.0576,1.0576,1.0576,0.0,0.0,1.0576,1.0576,1.0577,1.0342,1.0283,1.0283,1.0283,1.0283,1.0371,1.0527,1.0469,1.0361,1.0582,1.1945,1.3198,1.3198,1.3198,1.3198,1.3198,1.3198,1.3198,1.3198,1.3198,1.3198,1.3198,1.3198,1.2847,1.1902,1.214,1.219,1.165,0.0,0.0,1.0611,0.968,0.9427,1.02,0.9505,0.8646,0.7788,0.7745,0.7603,0.731,0.7603,0.8273,0.9351,0.9389,0.9437,0.9495,0.8518,0.8206,0.0,0.0,0.0,0.0,0.0,0.0,0.0,0.0,0.0,0.0,0.0,0.0,0.0,0.0,0.0,0.3368,0.3503,0.3592,0.3619,0.3622,0.2887,0.0942,0.0717,0.0494,0.0045,-0.0,0.018,0.0672,0.0717,0.0717,0.0717,0.0717,0.0494,-0.0,-0.0,-0.0,-0.0,-0.0,-0.0,-0.0,0.0,0.0,0.2907,0.3401,0.389,0.4343,0.4343,0.4072,0.3581,0.3581,0.5504,0.8363,0.7395,0.6979,0.7426,1.1058,1.2383,1.2383,1.2383,1.2383,1.2383,1.2383,1.2383,1.2119,1.0713,1.0283,0.0,1.0283,1.0283,1.0605,1.2012,1.1338,1.0697,1.227,1.2943,1.3198,1.3198,1.3198,1.3198,1.3198,1.3198,1.3198,1.3198,1.3198,1.3198,1.3198,1.3198,1.3123,1.291,1.2584,1.219,1.165,1.0671,1.0057,1.0062,0.9479,0.9182,0.9338,0.8931,0.8679,0.8657,0.8644,0.8624,0.8548,0.8605,0.8753,0.8987,0.926,0.9681,1.0183,0.9446,0.8996,0.0,0.0,0.0,0.0,0.0,0.0,0.0,0.0,0.0,0.0,0.0,0.1974,0.0,0.0,0.1789,0.1789,0.2833,0.3187,0.1974,0.1802,0.135,0.0135,-0.0,-0.0,-0.0,-0.0,-0.0,-0.0,-0.0,-0.0,-0.0,-0.0,-0.0,-0.0,-0.0,-0.0,-0.0,-0.0,-0.0,-0.0,-0.0,0.1401,0.4072,0.4072,0.4234,0.4519,0.4519,0.4347,0.4168,0.5585,0.7203,0.8751,0.815,0.7916,0.8126,1.0126,1.171,1.2881,1.2881,1.2881,1.2881,1.2881,1.2881,1.2725,1.1846,1.1582,1.1582,1.1582,1.1582,1.1787,1.2656,1.2236,1.1848,1.2938,1.3198,1.3198,1.3198,1.3198,1.3198,1.3198,1.3198,1.3198,1.3198,1.3198,1.3198,1.3198,1.3198,1.3198,1.3198,1.296,1.2685,1.2441,1.1548,1.0922,1.0781,0.997,0.9561,0.9742,0.9601,0.9417,0.9269,0.9255,0.9169,0.9004,0.9169,0.9389,0.9649,0.9993,1.0312,1.0644,1.0435,1.0257,0.0,0.0,0.0,0.0,0.0,0.0,0.0,0.0,0.0538,0.2504,0.2513,0.2314,0.2821,0.1314,-0.0,-0.0,0.162,0.2249,0.028,-0.0,-0.0,-0.0,-0.0,-0.0,-0.0,-0.0,-0.0,-0.0,-0.0,-0.0,-0.0,-0.0,-0.0,-0.0,-0.0,-0.0,-0.0,-0.0,-0.0,-0.0,0.0494,0.2041,0.4519,0.4519,0.4519,0.4519,0.4519,0.4846,0.5496,0.783,0.8804,0.8804,0.8804,0.8804,0.8804,0.8804,1.0182,1.2166,1.2725,1.2881,1.2881,1.2881,1.2881,1.2881,1.2881,1.2881,1.3027,1.3478,1.3248,1.2881,1.2881,1.3248,1.364,1.3786,1.3511,1.3198,1.3198,1.3198,1.3198,1.3198,1.3198,1.3198,1.3198,1.3198,1.3198,1.3198,1.3198,1.3198,1.3198,1.3198,1.3232,1.3357,1.2734,1.2087,1.1583,1.0597,1.0096,1.0381,1.0456,1.0283,0.9784,0.9758,0.9619,0.9347,0.9549,0.9888,1.0396,1.0739,1.092,1.0991,1.1393,1.1529,-0.2303,-0.2483,-0.2105,-0.0403,-0.0,-0.0,0.0,0.0,0.009,0.0359,0.0353,0.0321,0.0374,0.0164,-0.0,-0.0,0.0222,0.0336,0.0056,-0.0,-0.0,-0.0,-0.0,-0.0,-0.0,-0.0,-0.0,-0.0,-0.0,-0.0,-0.0,-0.0,-0.0,-0.0,-0.0,-0.0,-0.0,-0.0,-0.0,0.0045,0.219,0.3646,0.4519,0.4519,0.4519,0.4519,0.4519,0.5928,0.8315,0.8646,0.8804,0.8804,0.8804,0.8804,0.8804,0.8804,0.9015,0.9629,1.2058,1.2881,1.2881,1.2881,1.2881,1.2881,1.2881,1.2881,1.3344,1.5478,1.4571,1.2881,1.2881,1.4479,1.6089,1.6123,1.4613,1.3198,1.3198,1.3198,1.3198,1.3198,1.3198,1.3198,1.3198,1.3198,1.3198,1.3198,1.3198,1.3198,1.3198,1.3198,1.3425,1.3934,1.3454,1.2596,1.1354,1.0697,1.0374,1.0396,1.0691,1.0688,1.0341,1.0303,1.0279,1.0254,1.0007,1.0033,1.0396,1.0739,1.1024,1.1279,1.219,1.2351,-0.2659,-0.2536,-0.1823,0.0,-0.0,-0.0,-0.0,-0.0,-0.0,-0.0,-0.0,-0.0523,-0.2318,-0.1174,-0.056,0.0,-0.2621,-0.2621,-0.2621,-0.2621,-0.2491,-0.2143,-0.2089,-0.1546,-0.0154,-0.0,-0.0,-0.0,-0.0,-0.0,-0.0,-0.0,-0.0,-0.0,-0.0,-0.0,-0.0,-0.0,0.0719,0.2119,0.3141,0.3938,0.4519,0.4519,0.4519,0.4519,0.4519,0.6145,0.8804,0.8804,0.8804,0.8804,0.8804,0.8804,0.8804,0.8804,0.8804,0.9218,1.1959,1.2881,1.2881,1.2881,1.2881,1.2881,1.2881,1.2881,1.3382,1.5832,1.4755,1.32,1.4606,1.5744,1.6195,1.4876,1.3874,1.3198,1.3198,1.3198,1.3198,1.3198,1.3198,1.3514,1.4533,1.3868,1.3198,1.3198,1.3198,1.3581,1.4596,1.4721,1.4814,1.5074,1.4273,1.3152,1.173,1.1405,1.1127,1.0705,1.0825,1.0849,1.0691,1.0691,1.0691,1.0691,1.0545,1.0545,1.0691,1.0987,1.1381,1.1904,1.2526,1.3075,-0.2569,0.0,0.0,-0.076,-0.0232,-0.0,-0.0,-0.0,-0.0,-0.0,-0.0671,-0.1898,-0.407,-0.2732,-0.1953,-0.4125,-0.4519,-0.4519,-0.4519,-0.4519,-0.4295,-0.3649,-0.3588,-0.291,-0.1151,-0.0384,-0.0,-0.0,-0.0,-0.0,-0.0,-0.0,-0.0,-0.0,-0.0,-0.0,-0.0,0.068,0.1885,0.3619,0.3592,0.3938,0.4519,0.4519,0.4519,0.4519,0.5332,0.6848,0.8804,0.8804,0.8804,0.8804,0.8804,0.8804,0.8804,0.8804,0.8804,0.9061,1.1099,1.2264,1.2881,1.2881,1.2881,1.2881,1.2881,1.2881,1.3248,1.5017,1.4744,1.4128,1.5288,1.5605,1.5176,1.3574,1.3198,1.3198,1.3198,1.3198,1.3198,1.3198,1.3581,1.431,1.558,1.4752,1.3934,1.3934,1.3934,1.4374,1.5639,1.5799,1.5799,1.5799,1.5051,1.3953,1.2388,1.2113,1.1728,1.1043,1.1108,1.1108,1.1001,1.1001,1.1001,1.1001,1.0944,1.1027,1.1276,1.1475,1.1971,1.2716,1.3144,1.385,-0.1944,0.0,-0.2515,-0.1885,-0.0863,-0.0,-0.0,-0.0,-0.0,-0.0,-0.2343,-0.4405,-0.4463,-0.4408,-0.4405,-0.4463,-0.4519,-0.4519,-0.4519,-0.4519,-0.4295,-0.3649,-0.3609,-0.3577,0.0,-0.1394,-0.0,-0.0,-0.0,-0.0,-0.0,-0.0,-0.0,-0.0,-0.0,-0.0,-0.0,0.2325,0.3534,0.3581,0.3581,0.3938,0.4519,0.4519,0.4519,0.468,0.7444,0.8699,0.8804,0.8804,0.8804,0.8804,0.8804,0.8804,0.8804,0.8804,0.8804,0.8804,0.891,1.0685,1.2881,1.2881,1.2881,1.2881,1.2881,1.2881,1.2929,1.2978,1.4652,1.5894,1.3849,1.3298,1.3286,1.3223,1.3198,1.3198,1.3198,1.3198,1.3198,1.3198,1.4564,1.5741,1.5799,1.577,1.5712,1.5712,1.5712,1.5741,1.5799,1.5799,1.5799,1.5799,1.5784,1.5037,1.3301,1.2623,1.1994,1.1339,1.1579,1.1637,1.1296,1.1287,1.1287,1.1287,1.1024,1.1342,1.2264,1.2264,1.2785,1.3769,1.4438,1.4659,-0.2482,0.0,-0.2263,-0.2834,-0.1474,-0.0509,-0.2519,-0.2983,-0.301,-0.301,-0.379,-0.4395,-0.3997,-0.3925,-0.3925,-0.3925,-0.4258,-0.4519,-0.4519,-0.4519,-0.4295,-0.3649,-0.3592,0.0,0.0,0.0,0.0,-0.0,-0.0,-0.0,-0.0,-0.0,-0.0,-0.0,0.1967,0.2974,0.301,0.3785,0.4216,0.4216,0.4216,0.4323,0.4519,0.4519,0.4519,0.468,0.7557,0.8804,0.8804,0.8804,0.8804,0.8804,0.8804,0.8804,0.8804,0.8804,0.8804,0.9061,1.0897,1.2116,1.2881,1.2881,1.2881,1.2881,1.2881,1.4025,1.5287,1.5287,1.5876,1.6346,1.5565,1.4287,1.3198,1.3198,1.3198,1.3198,1.3198,1.3198,1.3547,1.469,1.5389,1.5799,1.5799,1.5799,1.5799,1.5799,1.5799,1.5799,1.5799,1.5799,1.5799,1.5799,1.5799,1.5379,1.436,1.4087,1.3475,1.237,1.2402,1.2209,1.1652,1.1637,1.1637,1.1637,1.1974,1.232,1.2621,1.308,1.3693,1.4468,1.4692,1.5004,-0.2493,-0.1886,-0.1343,-0.2117,-0.1972,-0.21,-0.4081,-0.4484,-0.4519,-0.4519,-0.4347,-0.4014,-0.3409,-0.3259,-0.3331,-0.3544,-0.4127,-0.4519,-0.4519,-0.4519,-0.4374,-0.399,-0.3721,-0.3589,0.0,0.0,0.0,-0.0,-0.0,-0.0,-0.0,-0.0,-0.0,-0.0,0.2927,0.4507,0.4519,0.4519,0.4519,0.4519,0.4519,0.4519,0.4519,0.4519,0.5062,0.6145,0.799,0.8804,0.8804,0.8804,0.8804,0.8804,0.8804,0.8804,0.8804,0.8804,0.942,1.0541,1.2264,1.2881,1.2881,1.2881,1.2881,1.2881,1.2881,1.4617,1.6522,1.6522,1.6522,1.6522,1.6522,1.4851,1.3198,1.3198,1.3198,1.3198,1.3198,1.3682,1.447,1.558,1.5799,1.5799,1.5799,1.5799,1.5799,1.5799,1.5799,1.5799,1.5799,1.5799,1.5799,1.5799,1.5799,1.5529,1.4857,1.4797,1.4318,1.3226,1.3151,1.2957,1.2538,1.2523,1.2523,1.2523,1.2942,1.3271,1.352,1.3944,1.4498,1.5169,1.5169,1.5394,-0.1978,-0.095,-0.0029,-0.0203,-0.2399,-0.4519,-0.4519,-0.4519,-0.4508,-0.4477,-0.3993,-0.3389,0.0,0.0,-0.2867,-0.3436,-0.4079,-0.447,-0.447,-0.4498,-0.4519,0.0,0.0,0.0,0.0,0.0,0.0,-0.0,0.0,-0.0,-0.0,-0.0,0.0056,0.0224,0.2983,0.4507,0.4519,0.4519,0.4519,0.4519,0.4519,0.4519,0.4519,0.4519,0.6091,0.8804,0.8804,0.8804,0.8804,0.8804,0.8804,0.8804,0.8804,0.8804,0.8804,0.8804,1.0541,1.2881,1.2881,1.2881,1.2881,1.2881,1.2881,1.2881,1.2881,1.4617,1.6522,1.6522,1.6522,1.6497,1.6384,1.4763,1.3198,1.3198,1.3198,1.3232,1.3288,1.4627,1.5799,1.5799,1.5799,1.5799,1.5799,1.5799,1.5799,1.5799,1.5799,1.5799,1.5799,1.5799,1.5799,1.5799,1.5799,1.5544,1.4929,1.4842,1.4558,1.3899,1.3855,1.3855,1.381,1.381,1.381,1.381,1.384,1.4169,1.4797,1.4827,1.5184,1.5799,1.5799,1.5799,-0.2151,-0.1271,-0.0537,-0.2769,-0.3956,-0.4519,-0.4519,-0.4519,-0.4391,-0.3945,-0.3368,-0.2761,0.0,0.0,0.0,-0.2846,-0.3458,0.0,-0.3852,-0.4237,0.0,-0.4519,0.0,-0.3391,-0.1118,-0.0336,0.0,0.0,-0.0,-0.0,-0.0,-0.0,0.101,0.3271,0.4098,0.4473,0.4519,0.4519,0.4519,0.4519,0.4519,0.4519,0.4519,0.4519,0.6091,0.8804,0.8804,0.8804,0.8804,0.8804,0.8804,0.8804,0.8804,0.8804,0.8804,0.8804,1.0541,1.2881,1.2881,1.2881,1.2881,1.2881,1.2881,1.2881,1.2881,1.4617,1.6522,1.6522,1.6522,1.6145,1.4463,1.3624,1.3198,1.3198,1.3198,1.3547,1.4845,1.5477,1.5799,1.5799,1.5799,1.5799,1.5799,1.5799,1.5799,1.5799,1.5799,1.5799,1.5799,1.5799,1.5799,1.5799,1.5799,1.5724,1.5559,1.5559,1.5274,1.4588,1.4543,1.4318,1.3825,1.381,1.381,1.381,1.4288,1.4618,1.4797,1.5304,1.5634,1.5799,1.5799,1.5799,-0.1247,-0.1733,-0.2404,-0.4073,-0.4519,-0.4519,-0.4519,-0.4519,-0.4271,-0.3403,-0.274,0.0,-0.2521,0.0,0.0,0.0,0.0,0.0,-0.3979,-0.4306,-0.4519,0.0,-0.3345,0.0,-0.0168,-0.0,-0.0,0.0,-0.0,-0.0,-0.0,0.1234,0.2753,0.4445,0.4477,0.4519,0.4519,0.4519,0.4519,0.4519,0.4519,0.4519,0.4519,0.4519,0.6091,0.8804,0.0,0.8804,0.8804,0.8804,0.8804,0.8804,0.8804,0.8804,0.8804,0.8804,1.0541,1.2881,1.2881,1.2881,1.2881,1.2881,1.2881,1.3113,1.4154,1.5433,1.6522,1.6522,1.6522,1.5965,1.3774,1.3198,1.3198,1.3198,1.3769,1.4596,1.558,1.5799,1.5799,1.5799,1.5799,1.5799,1.5799,1.5799,1.5799,1.5799,1.5799,1.5799,1.5799,1.5799,1.5799,1.5799,1.5799,1.5799,1.5799,1.5799,1.5649,1.5274,1.5244,1.5052,1.4677,1.4677,1.4677,1.4677,1.5064,1.5244,1.5244,1.5619,1.5799,1.5799,1.5799,1.5799,-0.0,-0.1903,-0.3981,-0.4411,-0.4519,-0.4494,-0.4419,-0.4271,-0.3859,-0.2809,0.0,-0.2108,-0.3089,-0.2036,-0.1567,-0.3221,0.0,-0.3832,-0.4433,-0.4519,-0.4349,-0.3959,-0.1619,-0.0,-0.0,-0.0,-0.0,-0.0,-0.0,0.0168,0.0561,0.3095,0.4504,0.4519,0.4519,0.4519,0.4519,0.4519,0.4519,0.4519,0.4519,0.4519,0.4519,0.4897,0.6416,0.8804,0.8804,0.0,0.8804,0.8804,0.8804,0.8804,0.8804,0.8804,0.8857,0.9218,1.0846,1.2881,1.2881,1.2881,1.2881,1.2881,1.2881,1.3334,1.5788,1.6522,1.6522,1.6522,1.6522,1.6082,1.4137,1.3423,1.3198,1.3198,1.4533,1.5799,1.5799,1.5799,1.5799,1.5799,1.5799,1.5799,1.5799,1.5799,1.5799,1.5799,1.5799,1.5799,1.5799,1.5799,1.5799,1.5799,1.5799,1.5799,1.5799,1.5799,1.5799,1.5799,1.5799,1.5799,1.5799,1.5799,1.5799,1.5799,1.5799,1.5799,1.5799,1.5799,1.5799,1.5799,1.5799,1.5799,-0.0,-0.0392,-0.1398,-0.3904,-0.4519,-0.4388,-0.3894,-0.2997,0.0,0.0,-0.1871,-0.1853,-0.2057,-0.1845,-0.1908,-0.2722,0.0,0.0,0.0,0.0,-0.3566,0.0,0.0,0.0,0.0,0.0,0.0,0.0,0.0,0.1066,0.3613,0.4209,0.4525,0.4519,0.4519,0.4519,0.4519,0.4519,0.4519,0.4519,0.4519,0.4519,0.457,0.6961,0.8315,0.8804,0.8804,0.0,0.8804,0.8804,0.8804,0.8804,0.8804,0.8804,0.9061,1.1351,1.2471,1.2881,1.2881,1.2881,1.2881,1.2881,1.2881,1.3334,1.5788,1.6522,1.6522,1.6522,1.6522,1.6434,1.6045,1.4563,1.3198,1.3198,1.4533,1.5799,1.5799,1.5799,1.5799,1.5799,1.5799,1.5799,1.5799,1.5799,1.5799,1.5799,1.5799,1.5799,1.5799,1.5799,1.5799,1.5799,1.5799,1.5799,1.5799,1.5799,1.5799,1.5799,1.5799,1.5799,1.5799,1.5799,1.5799,1.5799,1.5799,1.5799,1.5799,1.5799,1.5799,1.5799,1.5799,1.5799,-0.0,-0.0,-0.0728,-0.3761,-0.448,-0.4361,-0.376,0.0,0.0,0.0,-0.1334,-0.1421,-0.174,0.0,0.0,0.0,0.0,0.0,0.0,0.0,0.0,0.0,0.0,0.0,0.0,0.0,0.0,0.0,0.0,0.2977,0.4416,0.4487,0.4519,0.4519,0.4519,0.4519,0.4519,0.4519,0.4519,0.4519,0.4519,0.4519,0.457,0.7503,0.8804,0.8804,0.8804,0.0,0.8804,0.8804,0.8804,0.8804,0.8804,0.9673,1.1099,1.2421,1.2881,1.2881,1.2881,1.2881,1.2881,1.2881,1.3752,1.4971,1.6151,1.6522,1.6522,1.6522,1.6522,1.6216,1.5064,1.3987,1.3425,1.4342,1.5195,1.5799,1.5799,1.5799,1.5799,1.5799,1.5799,1.5799,1.5799,1.5799,1.5799,1.5799,1.5799,1.5799,1.5799,1.5799,1.5799,1.5799,1.5799,1.5799,1.5799,1.5799,1.5799,1.5799,1.5799,1.5799,1.5799,1.5799,1.5799,1.5799,1.5799,1.5799,1.5799,1.5799,1.5799,1.5799,1.5799,1.5799,-0.0168,-0.0448,-0.1511,-0.3884,-0.4395,-0.4203,-0.3687,-0.2579,0.0,0.0,-0.0899,-0.1083,-0.1687,0.0,-0.1753,0.0,0.0,0.0,0.0,0.0,0.0,0.0,0.0,0.0,0.0,0.0,0.0,0.0,0.0,0.0,0.4511,0.448,0.4519,0.4519,0.4519,0.4457,0.433,0.4453,0.4667,0.5048,0.5048,0.5182,0.5496,0.7771,0.8804,0.8804,0.8804,0.0,0.0,0.8804,0.8804,0.8804,0.8804,1.049,1.2881,1.2881,1.2646,1.2324,1.2324,1.2324,1.2324,1.2324,1.4216,1.6522,1.6522,1.6195,1.5765,1.5765,1.5765,1.5377,1.3649,1.3493,1.4084,1.5477,1.5799,1.5799,1.5799,1.5799,1.5799,1.5799,1.5799,1.5799,1.5799,1.5799,1.5799,1.5799,1.5799,1.5799,1.5799,1.5799,1.5799,1.5799,1.5799,1.5799,1.5799,1.5799,1.5799,1.5799,1.5799,1.5799,1.5799,1.5799,1.5799,1.5799,1.5799,1.5799,1.5799,1.5799,1.5799,1.5799,1.5799,1.5799,-0.0727,-0.2009,-0.4128,-0.4411,-0.4113,-0.3646,-0.3592,0.0,0.0,-0.0909,-0.0899,-0.1083,-0.1687,-0.1792,0.0,0.0,0.0,-0.1971,0.0,0.0,0.0,0.0,0.0,0.0,0.0,0.0,0.0,0.0,0.0,0.0,0.4453,0.4519,0.4519,0.4519,0.4519,0.4258,0.3666,0.4247,0.5259,0.6786,0.6786,0.7323,0.8427,0.8699,0.8804,0.8804,0.8804,0.0,0.0,0.8804,0.8804,0.8804,0.8804,1.049,1.2881,1.2881,1.1885,1.0518,1.0518,1.0518,1.0518,1.0518,1.323,1.6522,1.6522,1.5089,1.3498,1.3498,1.3498,1.3448,1.3248,1.4374,1.561,1.577,1.5799,1.5799,1.5799,1.5799,1.5799,1.5799,1.5799,1.5799,1.5799,1.5799,1.5799,1.5799,1.5799,1.5799,1.5799,1.5799,1.5799,1.5799,1.5799,1.5799,1.5799,1.5799,1.5799,1.5799,1.5799,1.5799,1.5799,1.5799,1.5799,1.5799,1.5799,1.5799,1.5799,1.5799,1.5799,1.5799,1.5799,1.5799,-0.0712,-0.2174,-0.4519,-0.4519,-0.4069,-0.3487,-0.3159,0.0,-0.0899,-0.0899,-0.0899,-0.0976,-0.121,-0.1254,-0.1177,-0.0943,-0.1095,-0.1391,-0.1751,0.0,0.0,0.0,0.0,0.0,0.0,0.0,0.0,0.0,0.0,0.0,0.4111,0.4388,0.4354,0.399,0.3979,0.3866,0.3581,0.3859,0.4963,0.6979,0.6979,0.7268,0.7736,0.7736,0.7736,0.7736,0.7736,0.0,0.0,0.7736,0.7736,0.7736,0.7736,0.9212,1.1361,1.1361,1.092,1.0283,1.0283,1.0283,1.0283,1.0283,1.2213,1.45,1.45,1.3899,1.3198,1.3198,1.3198,1.3459,1.4501,1.5285,1.5799,1.5799,1.5799,1.5799,1.5799,1.5799,1.5799,1.5799,1.5799,1.5799,1.5799,1.5799,1.5799,1.5799,1.5799,1.5799,1.5799,1.5799,1.5799,1.5799,1.5799,1.5799,1.5799,1.5799,1.5799,1.5799,1.5799,1.587,1.608,1.608,1.6191,1.6394,1.6191,1.608,1.608,1.5898,1.5799,1.5799,1.5799,1.5913,-0.1525,-0.2626,-0.4254,-0.4254,-0.3938,-0.3375,0.0,-0.1628,-0.0899,-0.0899,-0.0899,-0.0899,-0.0899,-0.0899,-0.0899,-0.0899,-0.0751,-0.078,-0.1202,0.0,0.0,0.0,0.0,0.0,0.0,0.0,0.0,0.0,0.0,0.0,0.3815,0.4275,0.4257,0.3636,0.3581,0.3581,0.3581,0.4272,0.5389,0.6979,0.6979,0.6979,0.6979,0.6979,0.6979,0.6979,0.6979,0.0,0.0,0.6979,0.6979,0.7063,0.7716,0.8933,1.0283,1.0283,1.0283,1.0283,1.0283,1.0283,1.0283,1.0283,1.1616,1.3198,1.3198,1.3198,1.3198,1.3198,1.3198,1.3615,1.5359,1.5799,1.5799,1.5799,1.5799,1.5799,1.5799,1.5799,1.5799,1.5799,1.5799,1.5799,1.5799,1.5799,1.5926,1.634,1.6378,1.6258,1.5856,1.5799,1.5799,1.5799,1.5799,1.5799,1.5799,1.5926,1.5911,1.5799,1.5983,1.6163,1.6301,1.6409,1.6554,1.6789,1.6581,1.6448,1.6448,1.6219,1.6095,1.6095,1.6095,1.6219,-0.346,-0.3588,-0.3588,-0.3588,-0.3585,-0.3266,0.0,-0.1346,-0.0899,-0.0899,-0.0899,-0.0899,-0.0899,-0.0899,-0.0899,-0.0899,-0.0401,-0.0011,-0.0022,0.0,0.0,0.0,0.0,0.0,0.0,0.0,0.0,0.0,0.0,0.0,0.3614,0.4288,0.4372,0.3622,0.3581,0.3581,0.3581,0.5819,0.6979,0.6979,0.6979,0.6979,0.6979,0.6979,0.6979,0.0,0.0,0.0,0.0,0.6979,0.6979,0.7224,0.9421,1.0283,1.0283,1.0283,1.0283,1.0283,1.0283,1.0283,1.0283,1.0283,1.1616,1.3198,1.3198,1.3198,1.3198,1.3198,1.3198,1.3615,1.5359,1.5799,1.5799,1.5799,1.5799,1.5799,1.5799,1.5799,1.5799,1.5799,1.5799,1.5799,1.5799,1.5799,1.6258,1.7589,1.7789,1.7296,1.5983,1.5799,1.5799,1.5799,1.5799,1.5799,1.5799,1.6172,1.6212,1.5827,1.6421,1.6633,1.6313,1.6607,1.6789,1.6789,1.6789,1.6789,1.6789,1.6789,1.6789,1.6789,1.6789,1.6789,-0.2829,-0.3266,-0.3581,-0.3581,-0.331,-0.2791,-0.1988,-0.1339,-0.0899,-0.0899,-0.0899,-0.0899,-0.0899,-0.0899,-0.1031,-0.1456,-0.0663,0.0,0.0,0.0,0.0,0.0,0.0,0.0,0.0,0.0,0.0,0.0,0.0,0.0,0.3611,0.4304,0.4364,0.3622,0.3581,0.3581,0.3581,0.5862,0.6979,0.6979,0.6979,0.6979,0.6979,0.6979,0.6979,0.0,0.0,0.0,0.0,0.6979,0.6979,0.7224,0.9421,1.0283,1.0283,1.0283,1.0283,1.0283,1.0283,1.0283,1.0505,1.1836,1.2685,1.3198,1.3198,1.3198,1.3459,1.4627,1.4968,1.5104,1.5668,1.5799,1.5799,1.5799,1.5799,1.5799,1.5799,1.5799,1.5799,1.5799,1.5799,1.5799,1.5799,1.5799,1.6258,1.7612,1.7811,1.7658,1.7224,1.7175,1.7175,1.7175,1.7175,1.7175,1.7175,1.728,1.7304,1.7175,1.6942,1.6866,1.6986,1.7101,1.7248,1.7479,1.7248,1.715,1.715,1.6917,1.6789,1.6815,1.6926,1.7002,0.0,-0.2482,-0.2571,-0.2571,-0.2286,-0.1933,-0.1552,-0.1163,-0.0899,-0.0899,-0.0899,-0.0899,-0.0899,-0.0899,-0.1021,-0.1404,-0.0837,0.0,0.0,0.0,0.0,0.0,0.0,0.0,0.0,0.0,0.0,0.0,0.0,0.0,0.3585,0.4456,0.4801,0.4487,0.4744,0.4874,0.4874,0.6295,0.6979,0.6979,0.6979,0.6979,0.6979,0.6979,0.6979,0.0,0.0,0.0,0.0,0.6979,0.6979,0.7224,0.9421,1.0283,1.0283,1.0283,1.0283,1.0283,1.0283,1.0283,1.0621,1.2567,1.3198,1.3198,1.3198,1.3648,1.4406,1.5477,1.5799,1.5799,1.5799,1.5799,1.5799,1.5799,1.5799,1.5799,1.5799,1.5799,1.5799,1.5799,1.5799,1.5799,1.5799,1.6203,1.685,1.7681,1.7811,1.7811,1.7811,1.7811,1.7811,1.7811,1.7811,1.7811,1.7811,1.7811,1.7811,1.7811,1.7408,1.7175,1.7224,1.7392,1.7572,1.7789,1.7595,1.7502,1.7502,1.7288,1.7191,1.7191,1.7313,1.7368,0.0,-0.1336,0.0,-0.0899,-0.0899,-0.0899,-0.0899,-0.0899,0.0,-0.0899,-0.0865,-0.0832,-0.0832,-0.0832,-0.0865,-0.0947,0.0,0.0,0.0,0.0,0.0,0.0,0.0,0.0,0.0,0.0,0.0,0.0,0.0,0.0,0.3581,0.4688,0.5468,0.5771,0.6543,0.693,0.6894,0.6979,0.6979,0.6979,0.6979,0.6979,0.6979,0.6979,0.6979,0.0,0.0,0.0,0.0,0.6979,0.7105,0.7426,0.95,1.0283,1.0283,1.0283,1.0283,1.0283,1.0283,1.0283,1.0621,1.2567,1.3198,1.3198,1.3198,1.4406,1.5799,1.5799,1.5799,1.5799,1.5799,1.5799,1.5799,1.5799,1.5799,1.5799,1.5799,1.5799,1.5799,1.5799,1.5799,1.5827,1.5926,1.6977,1.7811,1.7811,1.7811,1.7811,1.7811,1.7811,1.7811,1.7811,1.7811,1.7811,1.7811,1.7811,1.7811,1.7811,1.7811,1.7595,1.7175,1.7572,1.7811,1.7811,1.7811,1.7811,1.7811,1.7811,1.7811,1.7811,1.7811,1.7811,-0.1068,0.0,-0.0899,-0.0899,-0.0899,-0.0899,0.0,-0.0899,-0.0899,-0.0899,0.0,-0.0211,-0.0211,-0.0211,-0.0513,0.0,0.0,0.0,0.0,0.0,0.0,0.0,0.0,0.0,0.0,0.0,0.0,0.0,0.0,0.3581,0.3581,0.4688,0.512,0.4778,0.5823,0.6168,0.569,0.655,0.6979,0.6979,0.6979,0.6979,0.6979,0.6979,0.6979,0.0,0.0,0.0,0.6979,0.6979,0.7998,0.9588,1.0118,1.0283,1.0283,1.0283,1.0283,1.0283,1.0283,1.0283,1.0621,1.2567,1.3198,1.3198,1.3198,1.4406,1.5799,1.5799,1.5799,1.5799,1.5799,1.5799,1.5799,1.5799,1.5799,1.5799,1.5799,1.5799,1.5799,1.5799,1.5799,1.6136,1.715,1.7572,1.7811,1.7811,1.7811,1.7811,1.7811,1.7811,1.7811,1.7811,1.7811,1.7811,1.7811,1.7811,1.7811,1.7811,1.7811,1.7766,1.7635,1.7726,1.7811,1.7811,1.7811,1.7811,1.7811,1.7811,1.7811,1.7811,1.7811,1.7811,-0.0899,-0.0899,-0.0899,-0.0899,-0.0899,-0.0899,-0.0899,-0.0899,0.0,0.0,0.0,0.0,0.0,0.0,0.0,0.0,0.0,0.0,0.0,0.0,0.0,0.0,0.0,0.0,0.0,0.0,0.0,0.0,0.0,0.3581,0.3581,0.4433,0.4872,0.4801,0.5695,0.5998,0.5583,0.6186,0.6645,0.6979,0.5947,0.599,0.6979,0.6979,0.6979,0.0,0.0,0.0,0.6979,0.6979,0.8285,1.0283,1.0283,1.0283,1.0283,1.0283,1.0283,1.0283,1.0283,1.0878,1.1788,1.2873,1.3198,1.3198,1.3198,1.4406,1.5799,1.5799,1.5799,1.5799,1.5799,1.5799,1.5799,1.5799,1.5799,1.5799,1.5799,1.5799,1.5983,1.6591,1.6722,1.6952,1.7681,1.7811,1.7811,1.7811,1.7811,1.7811,1.7811,1.7811,1.7811,1.7811,1.7811,1.7811,1.7811,1.7811,1.7811,1.7811,1.7811,1.7811,1.7811,1.7811,1.7811,1.7811,1.7811,1.7811,1.7811,1.7811,1.7811,1.7811,1.7811,1.7811,-0.0899,-0.0899,-0.0923,-0.1011,-0.1034,-0.1011,-0.0919,0.0,0.0,0.0,0.0,0.0,0.0,0.0,0.0,0.0,0.0,0.0,0.0,0.0,0.0,0.0,0.0,0.0,0.0,0.0,0.0,0.0,0.0,0.3581,0.3581,0.4176,0.4714,0.513,0.5834,0.6083,0.5809,0.5871,0.6204,0.6719,0.4961,0.5135,0.6979,0.6979,0.6979,0.6979,0.0,0.0,0.6979,0.6979,0.8285,1.0283,1.0283,1.0283,1.0283,1.0283,1.0283,1.0361,1.0659,1.1836,1.3198,1.3198,1.3198,1.3267,1.3514,1.4627,1.5799,1.5799,1.5799,1.5799,1.5799,1.5799,1.5799,1.5799,1.5799,1.5799,1.5799,1.5799,1.6203,1.7526,1.7811,1.7811,1.7811,1.7811,1.7811,1.7811,1.7811,1.7811,1.7811,1.7811,1.7811,1.7811,1.7811,1.7811,1.7811,1.7811,1.7811,1.7811,1.7811,1.7811,1.7811,1.7811,1.7811,1.7811,1.7811,1.7811,1.7811,1.7811,1.7811,1.7811,1.7811,1.7811,-0.0899,-0.0899,-0.1021,-0.1538,-0.1665,-0.1535,-0.1014,0.0,0.0,0.0,0.0,0.0,0.0,0.0,0.0,0.0,0.0,0.0,0.0,0.0,0.0,0.0,0.0,0.0,0.0,0.0,0.0,0.0,0.0,0.3581,0.3581,0.4595,0.4993,0.4574,0.5604,0.5933,0.5396,0.5739,0.5793,0.5561,0.6161,0.6677,0.6979,0.6979,0.6979,0.6979,0.0,0.6979,0.6979,0.6979,0.8285,1.0283,1.0283,1.0283,1.0283,1.0283,1.0283,1.0544,1.2162,1.2943,1.3198,1.3198,1.3198,1.3493,1.4937,1.558,1.5799,1.5799,1.5799,1.5799,1.5799,1.5799,1.5799,1.5799,1.5799,1.5799,1.5799,1.5799,1.6203,1.7526,1.7811,1.7811,1.7811,1.7811,1.7811,1.7811,1.7811,1.7811,1.7811,1.7811,1.7811,1.7811,1.7811,1.7811,1.7811,1.7811,1.7811,1.7811,1.7811,1.7811,1.7811,1.7811,1.7811,1.7811,1.7811,1.7811,1.7811,1.7811,1.7811,1.7811,1.7811,1.7811,-0.0899,-0.1133,-0.1538,-0.2146,-0.1554,-0.075,-0.0477,-0.067,0.0,0.0,0.0,0.0,0.0,0.0,0.0,0.0,0.0,0.0,0.0,0.0,0.0,0.0,0.0,0.0,0.0,0.0,0.0,0.0,0.0,0.0,0.3581,0.4083,0.4389,0.4391,0.5262,0.5732,0.5802,0.6258,0.6221,0.5647,0.655,0.6979,0.6979,0.6979,0.6979,0.6979,0.0,0.6979,0.7105,0.8285,0.9381,1.0283,1.0283,1.0283,1.0283,1.0283,1.0283,1.0582,1.2532,1.3198,1.3198,1.3198,1.3198,1.3514,1.5255,1.5799,1.5799,1.5799,1.5799,1.5799,1.5799,1.5799,1.5799,1.5799,1.5799,1.5799,1.5799,1.6367,1.7076,1.7681,1.7811,1.7811,1.7811,1.7811,1.7811,1.7811,1.7811,1.7811,1.7811,1.7811,1.7811,1.7811,1.7811,1.7811,1.7811,1.7811,1.7811,1.7811,1.7811,1.7811,1.7811,1.7811,1.7811,1.7811,1.7811,1.7811,1.7811,1.7811,1.7811,1.7811,1.7811,1.7811,-0.0899,-0.1231,-0.1706,-0.2173,0.0,-0.0114,-0.0541,-0.0984,0.0,0.0,0.0,0.0,0.0,0.0,0.0,0.0,0.0,0.0,0.0,0.0,0.0,0.0,0.0,0.0,0.0,0.0,0.0,0.0,0.0,0.0,0.3578,0.367,0.3928,0.4391,0.5105,0.5717,0.6179,0.6725,0.6719,0.6161,0.6719,0.6979,0.6979,0.6979,0.6979,0.6979,0.6979,0.6979,0.7182,0.9381,1.0283,1.0283,1.0283,1.0283,1.0283,1.0283,1.0582,1.1207,1.2685,1.3198,1.3198,1.3198,1.3198,1.3514,1.5255,1.5799,1.5799,1.5799,1.5799,1.5799,1.5799,1.5799,1.5799,1.5799,1.6024,1.6258,1.6258,1.7076,1.7811,1.7811,1.7811,1.7811,1.7811,1.7811,1.7811,1.7811,1.7811,1.7811,1.7811,1.7811,1.7811,1.7811,1.7811,1.7811,1.7811,1.7811,1.7905,1.8149,1.8149,1.8149,1.8149,1.7927,1.7905,1.8149,1.8149,1.8149,1.8149,1.8149,1.8149,1.8187,1.894,1.9308,-0.0899,-0.0929,-0.0973,-0.1017,-0.0517,0.0,-0.2121,-0.255,0.0,-0.1129,0.0,0.0,0.0,0.0,0.0,0.0,0.0,0.0,0.0,0.0,0.0,0.0,0.0,0.0,0.0,0.0,0.0,0.0,0.0,0.0,0.3571,0.3947,0.4248,0.4391,0.5524,0.6136,0.6184,0.6725,0.6979,0.6937,0.6979,0.6979,0.6979,0.6979,0.6979,0.6979,0.6979,0.6979,0.7182,0.9381,1.0283,1.0283,1.0283,1.0283,1.0283,1.0283,1.1431,1.3012,1.3163,1.3198,1.3198,1.3198,1.3198,1.3514,1.5255,1.5799,1.5799,1.5799,1.5799,1.5799,1.5799,1.5799,1.5799,1.5799,1.6747,1.7658,1.7658,1.7726,1.7811,1.7811,1.7811,1.7811,1.7811,1.7811,1.7811,1.7811,1.7811,1.7811,1.7811,1.7811,1.7811,1.7811,1.7811,1.7811,1.7811,1.7811,1.8194,1.9146,1.9193,1.9193,1.9193,1.8296,1.8235,1.9178,1.9193,1.9193,1.9193,1.9193,1.9193,1.9266,2.2319,2.3727,-0.0796,-0.0899,-0.0899,-0.0899,-0.0734,0.0,0.0,-0.2147,-0.2692,-0.2581,-0.2744,0.0,0.0,0.0,0.0,0.0,0.0,0.0,0.0,0.0,0.0,0.0,0.0,0.0,0.0,0.0,0.0,0.0,0.0,0.0,0.3298,0.3451,0.3531,0.3571,0.4649,0.5211,0.5211,0.6381,0.6979,0.6979,0.6979,0.6979,0.6979,0.6979,0.6979,0.6979,0.6979,0.7799,0.9102,0.9952,1.0283,1.0283,1.0283,1.0283,1.0283,1.0283,1.1542,1.3198,1.3198,1.3198,1.3198,1.3198,1.3934,1.4937,1.561,1.5799,1.5799,1.5799,1.5799,1.5799,1.5799,1.5799,1.6011,1.685,1.7432,1.7811,1.7811,1.7811,1.7811,1.7811,1.7811,1.7811,1.7811,1.7811,1.7811,1.7811,1.7811,1.7811,1.7811,1.7811,1.8023,1.8663,1.8735,1.8735,1.8735,1.8735,1.8912,1.9274,1.9305,1.9305,1.9305,1.8928,1.8911,1.9289,1.9305,1.9305,1.9305,1.9305,1.9305,1.9396,2.2666,2.419,-0.074,-0.0899,-0.099,0.0,0.0,0.0,-0.0899,-0.1839,-0.2888,-0.3456,-0.3581,0.0,0.0,0.0,0.0,0.0,0.0,0.0,0.0,0.0,0.0,0.0,0.0,0.0,0.0,0.0,0.0,0.0,0.0,0.0,0.0,0.3058,0.3069,0.3085,0.4067,0.4598,0.4598,0.6021,0.6747,0.6747,0.656,0.6667,0.6979,0.6979,0.6979,0.6979,0.6979,0.7874,0.9301,0.9991,1.0283,1.0283,1.0283,1.0283,1.0283,1.0283,1.1542,1.3198,1.3198,1.3198,1.3198,1.3198,1.4374,1.5799,1.5799,1.5799,1.5799,1.5799,1.5799,1.5898,1.6313,1.6108,1.6136,1.7479,1.7811,1.7811,1.7811,1.7811,1.7811,1.7811,1.7811,1.7811,1.7811,1.7811,1.7811,1.7811,1.8065,1.8275,1.8275,1.8275,1.8532,1.9243,1.9305,1.9305,1.9305,1.9305,1.9305,1.9305,1.9305,1.9305,1.9305,1.9305,1.9305,1.9305,1.9305,1.9305,1.9289,2.0335,2.0849,2.0886,2.3144,2.419,-0.0734,-0.0898,0.0,0.0,0.0,0.0,-0.0921,-0.1836,-0.2888,-0.3456,0.0,0.0,0.0,0.0,0.0,0.0,0.0,0.0,0.0,0.0,0.0,0.0,0.0,0.0,0.0,0.0,0.0,0.0,0.0,0.0,0.0,0.297,0.2971,0.3072,0.4063,0.4588,0.4588,0.5652,0.6189,0.6176,0.5591,0.5885,0.7001,0.7001,0.7001,0.6965,0.6979,0.6979,0.7182,0.9381,1.0283,1.0283,1.0283,1.0283,1.0283,1.0283,1.1505,1.3163,1.3198,1.3198,1.3198,1.3198,1.4374,1.5799,1.5799,1.5799,1.5799,1.5799,1.5799,1.6136,1.7455,1.6809,1.6163,1.7479,1.7811,1.7811,1.7811,1.7811,1.7811,1.7811,1.7811,1.7811,1.7811,1.7811,1.7811,1.7811,1.8663,1.9305,1.9305,1.9305,1.9305,1.9305,1.9305,1.9305,1.9305,1.9305,1.9305,1.9305,1.9305,1.9305,1.9305,1.9305,1.9305,1.9305,1.9305,1.9305,1.9323,2.2593,2.419,2.419,2.419,2.419,-0.0212,-0.0574,0.0,-0.1337,0.0,0.0,0.0,-0.2459,0.0,0.0,0.0,0.0,0.0,0.0,0.0,0.0,0.0,0.0,0.0,0.0,0.0,0.0,0.0,0.0,0.0,0.0,0.0,0.0,0.0,0.0,0.0,0.2791,0.2768,0.2808,0.3702,0.4181,0.4181,0.5098,0.5571,0.5571,0.5396,0.5464,0.5798,0.5798,0.5798,0.5845,0.6667,0.6979,0.7182,0.9381,1.0283,1.0283,1.0283,1.0283,1.0283,1.0283,1.0649,1.1356,1.272,1.3198,1.3198,1.3198,1.4374,1.5799,1.5799,1.5799,1.5799,1.5799,1.6485,1.7296,1.7704,1.7502,1.7296,1.7721,1.7811,1.7811,1.7811,1.7811,1.7811,1.7811,1.7811,1.7811,1.7811,1.7811,1.8023,1.8753,1.9113,1.9305,1.9305,1.9305,1.9305,1.9305,1.9305,1.9305,1.9305,1.9305,1.9305,1.9305,1.9305,1.9305,1.9305,1.9305,1.9305,1.9305,1.9305,1.9305,1.9323,2.2593,2.419,2.419,2.419,2.419,-0.0,0.0,0.0,0.0,0.0,0.0,0.0,0.0,0.0,0.0,0.0,0.0,0.0,0.0,0.0,0.0,0.0,0.0,0.0,0.0,0.0,0.0,0.0,0.0,0.0,0.0,0.0,0.0,0.0,0.0,0.0,0.2712,0.2712,0.2712,0.355,0.4014,0.3993,0.4858,0.5309,0.5309,0.5309,0.5309,0.5309,0.5309,0.5309,0.5381,0.6691,0.7286,0.7397,0.871,0.9268,0.9268,0.9268,0.9687,1.0283,1.0283,1.0802,1.1616,1.2791,1.3198,1.3288,1.4032,1.4937,1.5799,1.5799,1.6176,1.6591,1.6591,1.7175,1.7811,1.7811,1.7811,1.7811,1.7811,1.7811,1.7811,1.7811,1.7811,1.7811,1.7811,1.7811,1.7811,1.7811,1.7811,1.8149,1.9146,1.9305,1.9305,1.9305,1.9305,1.9305,1.9305,1.9305,1.9305,1.9305,1.9305,1.9305,1.9305,1.9305,1.9305,1.9305,1.9305,1.9305,1.9305,1.9305,1.9305,1.9323,2.2593,2.419,2.419,2.419,2.419,-0.0159,0.0,0.0,0.0,0.0,0.0,0.0,0.0,0.0,0.0,0.0,0.0,0.0,0.0,0.0,0.0,0.0,0.0,0.0,0.0,0.0,0.0,0.0,0.0,0.0,0.0,0.0,0.0,0.0,0.0,0.0,0.2712,0.2716,0.2749,0.3577,0.4011,0.4026,0.4864,0.5309,0.5309,0.5309,0.5372,0.5529,0.5529,0.5529,0.5585,0.7056,0.7695,0.7695,0.7695,0.7695,0.7695,0.7695,0.8682,1.0087,1.019,1.1497,1.3198,1.3198,1.3198,1.348,1.5225,1.5799,1.5799,1.5799,1.6747,1.7811,1.7811,1.7811,1.7811,1.7811,1.7811,1.7833,1.791,1.7861,1.7811,1.7811,1.7811,1.7811,1.7811,1.7811,1.7833,1.791,1.7949,1.8255,1.9162,1.9305,1.9305,1.9305,1.9305,1.9305,1.9305,1.9305,1.9305,1.9305,1.9305,1.9305,1.9305,1.9305,1.9305,1.9305,1.9305,1.9305,1.9305,1.9365,1.939,1.9409,2.2697,2.4266,2.419,2.419,2.419,-0.141,-0.1759,0.0,0.0,0.0,0.0,0.0,0.0,0.0,0.0,0.0,0.0,0.0,0.0,0.0,0.0,0.0,0.0,0.0,0.0,0.0,0.0,0.0,0.0,0.0,0.0,0.0,0.0,0.0,0.0,0.2712,0.2712,0.2852,0.3162,0.3718,0.4115,0.4307,0.4966,0.5309,0.0,0.5309,0.5959,0.7175,0.7175,0.7175,0.7205,0.7549,0.7695,0.7695,0.7695,0.7695,0.7695,0.7695,0.7919,0.8386,0.9561,1.1332,1.3198,1.3198,1.3198,1.348,1.5225,1.5799,1.5799,1.5799,1.6747,1.7811,1.7811,1.7811,1.7811,1.7811,1.7811,1.7997,1.8789,1.8358,1.7811,1.7811,1.7811,1.7811,1.7811,1.7811,1.8044,1.8842,1.898,1.9046,1.9274,1.9305,1.9305,1.9305,1.9305,1.9305,1.9305,1.9305,1.9305,1.9305,1.9305,1.9305,1.9305,1.9305,1.9305,1.9305,1.9305,1.9305,1.9305,1.9821,2.0088,2.0088,2.3438,2.4766,2.419,2.419,2.419,0.0,0.0,0.0,0.0,0.0,0.0,0.0,0.0,0.0,0.0,0.0,0.0,0.0,0.0,0.0,0.0,0.0,0.0,0.0,0.0,0.0,0.0,0.0,0.0,0.0,0.0,0.0,0.0,0.0,0.2712,0.2712,0.2712,0.2782,0.2988,0.3663,0.407,0.4215,0.4945,0.5287,0.5309,0.5309,0.6137,0.7695,0.7695,0.7695,0.7695,0.7695,0.7695,0.7695,0.7695,0.7695,0.7695,0.7695,0.7695,0.7889,0.9357,1.0634,1.1758,1.2822,1.3735,1.4596,1.5507,1.5799,1.5799,1.5799,1.6747,1.7811,1.7811,1.7811,1.7905,1.8378,1.8513,1.8644,1.9178,1.8893,1.8513,1.8513,1.8513,1.8513,1.8513,1.8513,1.8681,1.9209,1.9305,1.9305,1.9305,1.9305,1.9305,1.9305,1.9305,1.9305,1.9305,1.958,1.9767,1.9767,1.9767,1.9767,1.9767,1.9767,1.9767,1.9767,1.9767,1.9619,1.9305,2.119,2.2341,2.2688,2.4438,2.5096,2.4723,2.4723,2.4543,-0.1741,0.0,-0.1953,-0.2564,0.0,0.0,0.0,0.0,0.0,0.0,0.0,0.0,0.0,0.0,0.0,0.0,0.0,0.0,0.0,0.0,0.0,0.0,0.0,0.0,0.0,0.0,0.0,0.0,0.0,0.2712,0.2712,0.2712,0.2775,0.2929,0.363,0.4056,0.4225,0.4944,0.5307,0.5309,0.5585,0.6413,0.7695,0.7695,0.7695,0.7695,0.7695,0.7695,0.7695,0.7695,0.7695,0.7695,0.7695,0.786,0.8223,0.9437,0.9905,1.0195,1.225,1.4218,1.5799,1.5799,1.5799,1.5856,1.608,1.6926,1.7811,1.7811,1.7927,1.8255,1.9079,1.9305,1.9305,1.9305,1.9305,1.9305,1.9305,1.9305,1.9305,1.9305,1.9305,1.9305,1.9305,1.9305,1.9305,1.9305,1.9305,1.9305,1.9305,1.9305,1.9331,1.9462,1.9981,2.0312,2.0312,2.0312,2.0312,2.0312,2.0312,2.0312,2.0312,2.0869,2.0899,2.035,2.3017,2.4678,2.5303,2.5171,2.5171,2.5303,2.5303,2.4968,0.0,0.0,-0.1949,0.0,0.0,0.0,0.0,0.0,0.0,0.0,0.0,0.0,0.0,0.0,0.0,0.0,0.0,0.0,0.0,0.0,0.0,0.0,0.0,0.0,0.0,0.0,0.0,0.0,0.2712,0.2712,0.2712,0.2712,0.3053,0.3812,0.3929,0.4362,0.5131,0.5227,0.5297,0.5309,0.6717,0.749,0.7695,0.7695,0.7695,0.7695,0.7695,0.7695,0.7695,0.7695,0.7695,0.7695,0.7695,0.8484,0.9633,0.9816,0.9905,1.011,1.1494,1.3672,1.5799,1.5799,1.5799,1.6011,1.7175,1.7658,1.7811,1.7811,1.8417,1.913,1.9274,1.9305,1.9305,1.9305,1.9305,1.9305,1.9305,1.9305,1.9305,1.9305,1.9305,1.9305,1.9305,1.9305,1.9305,1.9305,1.9305,1.9305,1.9305,1.9305,1.9513,2.0098,2.0252,2.0312,2.0312,2.0312,2.0312,2.0312,2.0312,2.0312,2.0312,2.3092,2.4591,2.4511,2.493,2.5192,2.5303,2.4666,2.4682,2.5303,2.5303,2.5253,-0.0644,-0.128,-0.1868,0.0,0.0,0.0,0.0,0.0,0.0,0.0,0.0,0.0,0.0,0.0,0.0,0.0,0.0,0.0,0.0,0.0,0.0,0.0,0.0,0.0,0.0,0.0,0.0,0.0,0.2712,0.2712,0.2712,0.2712,0.3323,0.4682,0.4714,0.4922,0.5309,0.5309,0.5742,0.6656,0.7362,0.7695,0.7695,0.7695,0.7695,0.7695,0.7695,0.7695,0.7695,0.7695,0.7695,0.7783,0.8595,0.9331,0.9905,0.9905,1.0347,1.1043,1.1615,1.2568,1.382,1.5319,1.5186,1.4573,1.5151,1.5325,1.5325,1.5325,1.7258,1.9305,1.9305,1.9305,1.9305,1.9305,1.9305,1.9305,1.9305,1.9305,1.9305,1.9305,1.9305,1.9305,1.9305,1.9305,1.9434,1.979,1.9866,1.9866,1.9866,1.9866,1.9981,2.0269,2.0312,2.0312,2.0312,2.0312,2.0312,2.0312,2.0312,2.0312,2.0312,2.3515,2.5303,2.5303,2.5303,2.5303,2.5303,2.4968,2.4968,2.5303,2.5303,2.5303,0.0,0.0,0.0,0.0,0.0,0.0,0.0,0.0,0.0,0.0,0.0,0.0,0.0,0.0,0.0,0.0,0.0,0.0,0.0,0.0,0.0,0.0,0.0,0.0,0.0,0.0,0.0,0.0,0.2712,0.2712,0.2712,0.3105,0.3946,0.5246,0.5309,0.5309,0.5309,0.571,0.6504,0.7695,0.7695,0.7695,0.7695,0.7695,0.7695,0.7695,0.7695,0.7695,0.7695,0.7695,0.7918,0.8382,0.9463,0.9905,0.9905,0.9905,1.0712,1.1805,1.1805,1.1805,1.2119,1.4135,1.4164,1.3396,1.3396,1.3396,1.3446,1.3622,1.5795,1.8262,1.9087,1.9305,1.9305,1.9305,1.9305,1.9305,1.9305,1.9305,1.9305,1.9305,1.9434,1.9504,1.9335,1.9448,1.9719,2.0225,2.0312,2.0312,2.0312,2.0312,2.0312,2.0312,2.0312,2.0312,2.0312,2.0312,2.0312,2.0312,2.11,2.1573,2.1573,2.3976,2.5303,2.5303,2.4457,2.4034,2.4034,2.488,2.5303,2.5303,2.5303,2.5303,0.0,0.0,0.0,0.0,0.0,0.0,0.0,0.0,0.0,0.0,0.0,0.0,0.0,0.0,0.0,0.0,0.0,0.0,0.0,0.0,0.0,0.0,0.0,0.0,0.0,0.0,0.0,0.0,0.2712,0.2712,0.2712,0.4274,0.5214,0.5309,0.5309,0.5309,0.5309,0.6807,0.7608,0.7695,0.7695,0.7695,0.7695,0.7695,0.7695,0.7695,0.7695,0.7695,0.7695,0.7695,0.8512,0.979,0.9867,0.9905,0.9905,0.9905,1.0712,1.1805,1.1805,1.1805,1.182,1.1954,1.2625,1.3396,1.3396,1.3396,1.3544,1.425,1.4592,1.5454,1.85,1.9305,1.9305,1.9305,1.9305,1.9305,1.9305,1.9305,1.9305,1.9305,1.9802,2.006,1.9405,1.9832,2.026,2.0285,2.0312,2.0312,2.0312,2.0312,2.0312,2.0312,2.0312,2.0312,2.0312,2.0312,2.0312,2.0312,2.3284,2.5034,2.5034,2.5207,2.5303,2.5303,2.2169,2.0562,2.0581,2.3745,2.5303,2.5303,2.5303,2.5303,0.0,0.0,0.0,0.0,0.0,0.0,0.0,0.0,0.0,0.0,0.0,0.0,0.0,0.0,0.0,0.0,0.0,0.0,0.0,0.0,0.0,0.0,0.0,0.0,0.0,0.0,0.0,0.0,0.0,0.3211,0.3211,0.3798,0.4155,0.4155,0.4155,0.4155,0.4155,0.6518,0.7695,0.7695,0.7695,0.7695,0.7695,0.7695,0.7695,0.7695,0.7695,0.7695,0.7695,0.7695,0.8568,0.9905,0.9905,0.9905,0.9995,1.0831,1.1423,1.1805,1.1805,1.1805,1.1918,1.261,1.3086,1.3396,1.3396,1.3731,1.4154,1.4429,1.4488,1.5252,1.8463,1.9305,1.9405,1.9843,1.9606,1.9305,1.9305,1.9632,1.9931,1.9931,2.0144,2.0225,1.9991,2.0144,2.0312,2.0312,2.0312,2.0312,2.0312,2.0312,2.0312,2.0312,2.0312,2.1169,2.3322,2.3515,2.3515,2.3515,2.463,2.5303,2.5303,2.5303,2.4284,2.213,2.0908,2.0312,2.0312,2.3668,2.5303,2.5303,2.5303,2.5303,0.0,0.0,0.0,0.0,0.0,0.0,0.0,0.0,0.0,0.0,0.0,0.0,0.0,0.0,0.0,0.0,0.0,0.0,0.0,0.0,0.0,0.0,0.0,0.0,0.0,0.0,0.0,0.0,0.0,0.0,0.3485,0.3506,0.3506,0.3506,0.3506,0.3506,0.3506,0.5717,0.7121,0.7695,0.7695,0.7695,0.7695,0.7695,0.7695,0.7695,0.7695,0.7695,0.7725,0.8241,0.9008,0.9905,0.9905,0.9905,1.0046,1.1318,1.1805,1.1805,1.1805,1.2045,1.2455,1.3157,1.3396,1.3446,1.37,1.4114,1.4488,1.4488,1.4488,1.5252,1.8463,1.9476,1.9743,2.018,1.9971,1.9632,1.9632,1.9991,2.0312,2.0312,2.0312,2.0312,2.0312,2.0312,2.0312,2.0312,2.0312,2.0312,2.0312,2.0312,2.0312,2.0312,2.0312,2.1188,2.3419,2.3611,2.4091,2.5226,2.5303,2.5303,2.5303,2.5303,2.3707,2.0369,2.0312,2.0312,2.0312,2.2534,2.4188,2.5303,2.5303,2.5303,0.0,0.0,0.0,0.0,0.0,0.0,0.0,0.0,0.0,0.0,0.0,0.0,0.0,0.0,0.0,0.0,0.0,0.0,0.0,0.0,0.0,0.0,0.0,0.0,0.0,0.0,0.0,0.0,0.2481,0.2328,0.3442,0.3506,0.3506,0.3506,0.3506,0.3506,0.3506,0.4567,0.5954,0.7627,0.7627,0.7647,0.7695,0.7695,0.7695,0.7695,0.7695,0.7725,0.7889,0.9304,0.9905,0.9905,0.9905,0.9931,1.011,1.1341,1.1805,1.1805,1.1805,1.2514,1.3396,1.3396,1.3413,1.3576,1.4288,1.4488,1.4488,1.4488,1.4511,1.5239,1.8364,1.9745,2.0312,2.0312,2.0312,2.0312,2.0312,2.0312,2.0312,2.0312,2.0312,2.0312,2.0312,2.0312,2.0312,2.0312,2.0312,2.0312,2.0312,2.0312,2.0312,2.0312,2.0312,2.0312,2.0312,2.0389,2.1831,2.512,2.5207,2.5149,2.5149,2.5149,2.3629,2.0366,2.0312,2.0304,2.0304,2.04,2.2111,2.5303,2.5303,2.5303,0.0,0.0,0.0,0.0,0.0,0.0,0.0,0.0,0.0,0.0,0.0,0.0,0.0,0.0,0.0,0.0,0.0,0.0,0.0,0.0,0.0,0.0,0.0,0.0,0.0,0.0,0.0,0.0,0.3196,0.3175,0.3485,0.3506,0.3506,0.3506,0.3506,0.3506,0.3506,0.4567,0.5351,0.5827,0.5827,0.6479,0.7695,0.7695,0.7695,0.7695,0.7695,0.8298,0.9331,0.9738,0.9905,0.9905,0.9905,1.047,1.1318,1.1681,1.1805,1.1805,1.1805,1.2514,1.3396,1.3396,1.3759,1.4219,1.4441,1.4488,1.4488,1.4488,1.4729,1.5213,1.6103,1.8316,2.0312,2.0312,2.0312,2.0312,2.0312,2.0312,2.0312,2.0312,2.0312,2.0312,2.0312,2.0312,2.0312,2.0312,2.0312,2.0312,2.0312,2.0312,2.0312,2.0312,2.0312,2.0312,2.0312,2.2515,2.4397,2.5528,2.3266,2.1898,2.1898,2.1898,2.1452,2.0543,2.0526,2.0529,2.0518,2.2815,2.438,2.5303,2.5303,2.5303,0.0,0.0,0.0,0.0,0.0,0.0,0.0,-0.1554,0.0,0.0,0.0,0.0,0.0,0.0,0.0,0.0,0.0,0.0,0.0,0.0,0.0,0.0,0.0,0.0,0.0,0.3457,0.3506,0.3506,0.3506,0.3506,0.3506,0.3506,0.3506,0.3506,0.3506,0.3506,0.3506,0.4567,0.5108,0.5108,0.5108,0.5643,0.6645,0.7374,0.7695,0.7725,0.8354,0.9116,0.9905,0.9905,0.9905,0.9944,1.0494,1.1159,1.1805,1.1805,1.2071,1.2475,1.2475,1.2889,1.3396,1.3396,1.3906,1.4488,1.4488,1.4488,1.4488,1.4488,1.4849,1.5189,1.5189,1.7734,2.0312,2.0312,2.0312,2.0312,2.0312,2.0312,2.0312,2.0312,2.0312,2.0312,2.0312,2.0312,2.0325,2.0405,2.0354,2.0312,2.0312,2.0312,2.0312,2.0312,2.0312,2.0312,2.0312,2.2159,2.34,2.3554,2.1699,2.0605,2.0605,2.0605,2.0605,2.0605,2.0597,2.0597,2.0603,2.2354,2.3918,2.5303,2.5303,2.5303,-0.0837,-0.1394,0.0,0.0,0.0,0.0,-0.2125,-0.2097,0.0,0.0,0.0,0.0,0.0,0.0,0.0,0.0,0.0,0.0,0.0,0.0,0.0,0.0,0.0,0.0,0.3442,0.3506,0.3506,0.3506,0.3506,0.3506,0.3506,0.3506,0.3506,0.3506,0.3506,0.3506,0.3506,0.4446,0.4991,0.5108,0.5108,0.5108,0.5166,0.6713,0.7511,0.7783,0.9251,0.9905,0.9905,0.9905,0.997,1.021,1.1363,1.1805,1.1811,1.194,1.2591,1.3396,1.3396,1.3463,1.3528,1.3528,1.3963,1.4488,1.4488,1.4488,1.4511,1.456,1.4892,1.5189,1.5189,1.7465,1.9838,2.0248,2.0332,2.0325,2.0339,2.0331,2.0319,2.0325,2.0332,2.0332,2.0332,2.0332,2.0399,2.0564,2.0445,2.0332,2.0332,2.0332,2.0332,2.0332,2.0332,2.0332,2.0332,2.0489,2.0605,2.0605,2.0605,2.0605,2.0605,2.0605,2.0605,2.0605,2.0605,2.0794,2.1164,2.0951,2.238,2.5303,2.5303,2.5303,-0.1455,-0.1708,-0.1792,-0.175,0.0,0.0,-0.1672,-0.1551,-0.1486,0.0,0.0,0.0,0.0,0.0,0.0,0.0,0.0,0.0,0.0,0.0,0.0,0.0,0.0,0.0,0.3442,0.3506,0.3506,0.3506,0.3506,0.3506,0.3506,0.3506,0.3506,0.3506,0.3506,0.3506,0.3506,0.371,0.4252,0.5108,0.5108,0.5108,0.5117,0.5458,0.6372,0.7783,0.9251,0.9905,0.9905,0.9905,1.0494,1.1445,1.1703,1.1805,1.1897,1.2762,1.3226,1.3396,1.3396,1.3789,1.4288,1.4288,1.4375,1.4488,1.4488,1.4488,1.4571,1.4965,1.5121,1.5189,1.5189,1.5689,1.6927,1.9856,2.0534,2.0547,2.0539,2.0542,2.054,2.0538,2.0534,2.0534,2.0534,2.0534,2.0559,2.0586,2.0562,2.0534,2.0534,2.0534,2.0534,2.0534,2.0534,2.0534,2.0534,2.0584,2.0605,2.0605,2.0605,2.0605,2.0605,2.0605,2.0605,2.0605,2.0605,2.1952,2.4697,2.4444,2.4649,2.5303,2.5303,2.5303,-0.1719,-0.1792,-0.1771,-0.1677,0.0,0.0,0.0,-0.162,-0.1536,-0.2004,0.0,0.0,0.0,0.0,0.0,0.0,0.0,0.0,0.0,0.0,0.0,0.0,0.0,0.0,0.3245,0.3309,0.3351,0.3485,0.3506,0.3506,0.3506,0.3506,0.3506,0.3506,0.3506,0.3506,0.3506,0.4027,0.4567,0.5108,0.5108,0.5108,0.5108,0.5108,0.5847,0.7254,0.9094,0.9905,0.9905,0.9905,1.0285,1.0926,1.1557,1.1805,1.194,1.2998,1.3396,1.3396,1.3396,1.3638,1.4019,1.4375,1.4488,1.4488,1.4488,1.4658,1.4909,1.5127,1.5189,1.5229,1.529,1.5293,1.6191,1.9764,2.0605,2.0603,2.0607,2.0605,2.0594,2.0604,2.0605,2.0605,2.0605,2.0605,2.0605,2.0605,2.0605,2.0605,2.0605,2.0605,2.0605,2.0605,2.0605,2.0605,2.0605,2.0605,2.0605,2.0605,2.0605,2.0605,2.0605,2.0605,2.0605,2.0605,2.0605,2.2285,2.5703,2.5561,2.5508,2.5508,2.5508,2.5508,0.0,0.0,0.0,0.0,0.0,-0.1795,0.0,0.0,0.0,-0.204,0.0,0.0,0.0,0.0,0.0,0.0,0.0,0.0,0.0,0.0,0.0,0.0,0.0,0.0,0.0,0.3018,0.3153,0.3393,0.3464,0.3506,0.3506,0.3506,0.3506,0.3506,0.3506,0.3605,0.3807,0.4666,0.5108,0.5108,0.5108,0.5108,0.5108,0.5108,0.5649,0.6682,0.8287,0.9317,0.9905,0.9905,1.0046,1.0371,1.14,1.1805,1.194,1.2998,1.3396,1.3396,1.3396,1.3479,1.3715,1.4313,1.4488,1.4511,1.4614,1.4909,1.5189,1.5189,1.5215,1.5261,1.5367,1.5391,1.6289,1.9766,2.0605,2.0605,2.0605,2.0605,2.0605,2.0605,2.0605,2.0605,2.0605,2.0605,2.0605,2.0605,2.0605,2.0605,2.0605,2.0605,2.0605,2.0605,2.0605,2.0605,2.0605,2.0605,2.0605,2.0605,2.0605,2.0605,2.0605,2.0605,2.0605,2.0605,2.0605,2.2285,2.5703,2.5703,2.5703,2.5703,2.5703,2.5703,0.0,0.0,0.0,0.0,-0.1645,0.0,0.0,0.0,-0.1631,-0.1169,0.0,0.0,0.0,0.0,0.0,0.0,0.0,0.0,0.0,0.0,0.0,0.0,0.0,0.0,0.0,0.2753,0.2992,0.3132,0.3372,0.3506,0.3506,0.3506,0.3506,0.3506,0.3506,0.3952,0.4912,0.503,0.5108,0.5108,0.5108,0.5108,0.5108,0.5108,0.5649,0.656,0.5933,0.7259,0.9905,0.9905,1.0567,1.1601,1.1747,1.1805,1.194,1.2998,1.3396,1.3396,1.3396,1.3818,1.4393,1.4464,1.4488,1.4571,1.4996,1.5165,1.5189,1.5189,1.5294,1.5388,1.539,1.5391,1.6289,1.9766,2.0605,2.0605,2.0605,2.0605,2.0605,2.0605,2.0605,2.0605,2.0605,2.0605,2.0605,2.0605,2.0605,2.0605,2.0605,2.0605,2.0605,2.0605,2.0605,2.0605,2.0605,2.0605,2.0605,2.0605,2.0605,2.0605,2.0605,2.0605,2.0605,2.0605,2.0605,2.2285,2.5703,2.5703,2.5703,2.5703,2.5703,2.5703,0.0,0.0,0.0,0.0,0.0,0.0,-0.1559,0.0,-0.1491,0.0,0.0,0.0,0.0,0.0,0.0,0.0,0.0,0.0,0.0,0.0,0.0,0.0,0.0,0.0,0.0,0.0,0.0,0.0,0.2768,0.3181,0.3485,0.3506,0.3506,0.3506,0.4109,0.4646,0.5088,0.5108,0.5108,0.5108,0.5108,0.5108,0.5108,0.5108,0.5328,0.5704,0.5281,0.6202,0.8127,1.0162,1.1318,1.1854,1.2494,1.2724,1.2781,1.3243,1.3396,1.3463,1.3891,1.425,1.4488,1.4488,1.4678,1.4931,1.5133,1.5189,1.5189,1.5189,1.5241,1.5293,1.5388,1.5391,1.6289,1.9766,2.0605,2.0605,2.0605,2.0605,2.0605,2.0605,2.0605,2.0605,2.0605,2.0605,2.0605,2.0605,2.0605,2.0605,2.0605,2.0605,2.0605,2.0605,2.0605,2.0605,2.0605,2.0605,2.0605,2.0605,2.0605,2.0605,2.0605,2.0605,2.0605,2.0605,2.0605,2.2285,2.5703,2.5703,2.5703,2.5703,2.5703,2.5703,-0.2666,0.0,0.0,0.0,0.0,0.0,0.0,0.0,0.0,0.0,0.0,0.0,0.0,0.0,0.0,0.0,0.0,0.0,0.0,0.0,0.0,0.0,0.0,0.0,0.0,0.0,0.0,0.0,0.0,0.2961,0.3025,0.333,0.3506,0.3506,0.4252,0.4814,0.5088,0.5108,0.5108,0.5108,0.5108,0.5108,0.5108,0.5108,0.5262,0.5518,0.5518,0.6058,0.716,0.968,1.1147,1.1897,1.298,1.3396,1.3396,1.3396,1.3528,1.3774,1.4313,1.4488,1.4522,1.4637,1.4914,1.5189,1.5189,1.5189,1.5207,1.5245,1.5244,1.528,1.5367,1.5391,1.6289,1.9766,2.0605,2.0605,2.0605,2.0605,2.0605,2.0605,2.0605,2.0605,2.0605,2.0605,2.0605,2.0605,2.0605,2.0605,2.0605,2.0605,2.0605,2.0605,2.0605,2.0605,2.0605,2.0605,2.0605,2.0605,2.0605,2.0605,2.0605,2.0605,2.1012,2.1862,2.1968,2.3223,2.5703,2.5703,2.5703,2.5703,2.5703,2.5703,0.0,0.0,0.0,-0.2139,0.0,0.0,0.0,0.0,-0.0921,0.0,0.0,0.0,0.0,0.0,0.0,0.0,0.0,0.0,0.0,0.0,0.0,0.0,0.0,0.0,0.0,0.0,0.0,0.0,0.0,0.0,0.1913,0.2891,0.3506,0.3506,0.3527,0.4048,0.5088,0.5108,0.5108,0.5108,0.5108,0.5108,0.5108,0.5108,0.563,0.6547,0.6547,0.7058,0.787,0.7975,0.9501,1.1897,1.298,1.3396,1.3396,1.3396,1.3848,1.4464,1.4488,1.4488,1.4571,1.5026,1.5183,1.5189,1.5189,1.5189,1.5231,1.536,1.539,1.539,1.5391,1.5391,1.6289,1.9766,2.0605,2.0605,2.0605,2.0605,2.0605,2.0605,2.0605,2.0605,2.0605,2.0605,2.0605,2.0605,2.0605,2.0605,2.0605,2.0605,2.0605,2.0605,2.0605,2.0605,2.0605,2.0605,2.0605,2.0605,2.0605,2.0605,2.0605,2.0605,2.2026,2.5082,2.5405,2.5586,2.5703,2.5703,2.5703,2.5703,2.5703,2.5703,0.0,0.0,-0.2606,-0.2235,0.0,0.0,0.0,0.0,0.0,0.0,0.0,0.0,0.0,0.0,0.0,0.0,0.0,0.0,0.0,0.0,0.0,0.0,0.0,0.0,0.0,0.0,0.0,0.0,0.1983,0.0,0.0,0.3287,0.3506,0.3506,0.4191,0.4726,0.5088,0.5108,0.5108,0.5108,0.5108,0.5108,0.5127,0.5797,0.6278,0.6599,0.6599,0.6774,0.7091,0.7665,0.8424,0.95,1.2323,1.3396,1.3463,1.3949,1.4288,1.4488,1.4488,1.4708,1.4989,1.5159,1.5189,1.5229,1.5318,1.5325,1.5323,1.5279,1.5268,1.5268,1.5268,1.5325,1.6289,1.9766,2.0605,2.0605,2.0605,2.0509,2.041,2.041,2.041,2.041,2.041,2.041,2.0445,2.0585,2.0483,2.0449,2.0585,2.0605,2.0605,2.0605,2.0605,2.0605,2.0605,2.0605,2.0605,2.0605,2.0605,2.0534,2.0415,2.0529,2.2085,2.5236,2.5383,2.5434,2.5434,2.5434,2.5434,2.5434,2.5434,2.5535,-0.5108,-0.431,0.0,-0.2537,-0.3143,0.0,-0.1627,0.0,0.0,0.0,0.0,0.0,0.0,0.0,0.0,0.0,0.0,0.0,0.0,0.0,0.0,0.0,0.0,0.0,0.0,0.0,0.092,0.1759,0.2535,0.0,0.0,0.0,0.389,0.3506,0.4547,0.5108,0.5108,0.5108,0.5108,0.5108,0.5461,0.563,0.5649,0.6295,0.6599,0.6599,0.6599,0.6774,0.7107,0.7665,0.7899,0.8272,1.1958,1.3396,1.3479,1.4237,1.4488,1.4522,1.4688,1.4957,1.5189,1.5189,1.5189,1.5226,1.5362,1.5365,1.5304,1.5226,1.5189,1.5189,1.5189,1.6214,1.7791,1.997,2.0486,2.0486,2.0486,2.0394,2.0312,2.0312,2.0312,2.0312,2.0312,2.0312,2.0334,2.0471,2.0383,2.034,2.0474,2.0486,2.0486,2.0486,2.0486,2.0525,2.0586,2.0531,2.0486,2.0486,2.0486,2.0433,2.0319,2.1575,2.3226,2.5255,2.5303,2.5303,2.5303,2.5303,2.5303,2.5303,2.5303,2.5391]},{"header":{"parameterUnit":"m.s-1","parameterCategory":1,"la1":30.6,"la2":29.2853,"lo1":-89.7004,"lo2":-87.6739,"dy":0.0162,"dx":0.0183,"nx":112,"ny":82,"refTime":"2024-06-13T18:00:00:Z","depth":0,"parameterNumber":3,"parameterNumberName":"V-component_of_WINDS"},"data":[0.0,0.0,0.0,0.0,0.0,0.0,0.0,0.0,0.0,0.0,0.0,0.0,0.0,0.0,0.0,0.0,0.0,0.0,0.0,0.0,0.0,0.0,0.0,0.0,0.0,0.0,0.0,0.0,0.0,0.0,0.0,0.0,0.0,0.0,0.0,0.0,0.0,0.0,0.0,0.0,0.0,0.0,0.0,0.0,0.0,0.0,0.0,0.0,0.0,0.0,0.0,0.0,0.0,0.0,0.0,0.0,0.0,0.0,0.0,0.0,0.0,0.0,0.0,0.0,0.0,0.0,0.0,0.0,0.0,0.0,0.0,0.0,0.0,0.0,0.0,0.0,0.0,0.0,0.0,0.0,0.0,0.0,0.0,0.0,0.0,0.0,0.0,0.0,0.0,0.0,0.0,-0.815,-0.9575,-1.0659,-1.1163,-1.0417,-0.9069,-0.7101,0.0,0.0,0.0,0.0,0.0,0.0,0.0,0.0,0.0,0.0,0.0,0.0,0.0,0.0,0.0,0.0,0.0,0.0,0.0,0.0,0.0,0.0,0.0,0.0,0.0,0.0,0.0,0.0,0.0,0.0,0.0,0.0,0.0,0.0,0.0,0.0,0.0,0.0,0.0,0.0,0.0,0.0,0.0,0.0,0.0,0.0,0.0,0.0,0.0,0.0,0.0,0.0,0.0,0.0,0.0,0.0,0.0,0.0,0.0,0.0,0.0,0.0,0.0,0.0,0.0,0.0,0.0,0.0,0.0,0.0,0.0,0.0,0.0,0.0,0.0,0.0,0.0,0.0,0.0,0.0,0.0,0.0,0.0,0.0,0.0,0.0,0.0,0.0,0.0,0.0,0.0,0.0,0.0,0.0,0.0,0.0,0.0,0.0,0.0,0.0,0.0,0.0,0.0,0.0,-0.878,-1.1207,-1.1099,-1.0935,-1.1189,-1.0417,-0.9285,-0.782,0.0,0.0,0.0,0.0,0.0,0.0,0.0,0.0,0.0,0.0,0.0,0.0,0.0,0.0,0.0,0.0,0.0,0.0,0.0,0.0,0.0,0.0,0.0,0.0,0.0,0.0,0.0,0.0,0.0,0.0,0.0,0.0,0.0,0.0,0.0,0.0,0.0,0.0,0.0,0.0,0.0,0.0,0.0,0.0,0.0,0.0,0.0,0.0,0.0,0.0,0.0,0.0,0.0,0.0,0.0,0.0,0.0,0.0,0.0,0.0,0.0,0.0,0.0,0.0,0.0,0.0,0.0,0.0,0.0,0.0,0.0,0.0,0.0,0.0,0.0,0.0,0.0,0.0,0.0,0.0,0.0,0.0,0.0,0.0,0.0,0.0,0.0,0.0,0.0,0.0,0.0,0.0,0.0,0.0,0.0,0.0,0.0,0.0,0.0,0.0,0.0,0.0,0.0,-0.7603,-0.9026,-1.1696,-1.1474,-1.1113,-1.1046,-1.0339,-0.9322,-0.7974,-0.6017,0.0,0.0,0.0,0.0,0.0,0.0,0.0,0.0,0.0,0.0,0.0,0.0,0.0,0.0,0.0,0.0,0.0,0.0,0.0,0.0,0.0,0.0,0.0,0.0,0.0,0.0,0.0,0.0,0.0,0.0,0.0,0.0,0.0,0.0,0.0,0.0,0.0,0.0,0.0,0.0,0.0,0.0,0.0,0.0,0.0,0.0,0.0,0.0,0.0,0.0,0.0,0.0,0.0,0.0,0.0,0.0,0.0,0.0,0.0,0.0,0.0,0.0,0.0,0.0,0.0,0.0,0.0,0.0,0.0,0.0,0.0,0.0,0.0,0.0,0.0,0.0,0.0,0.0,0.0,0.0,0.0,0.0,0.0,0.0,0.0,0.0,0.0,0.0,0.0,0.0,0.0,0.0,0.0,0.0,0.0,0.0,0.0,0.0,0.0,0.0,0.0,0.0,-0.7966,-0.9406,-1.1565,-1.149,-1.1196,-1.0995,-1.0321,-0.9453,-0.8438,-0.6444,0.0,0.0,0.0,0.0,0.0,0.0,0.0,0.0,0.0,0.0,0.0,0.0,0.0,0.0,0.0,0.0,0.0,0.0,0.0,0.0,0.0,0.0,0.0,0.0,0.0,0.0,0.0,0.0,0.0,0.0,0.0,0.0,0.0,0.0,0.0,0.0,0.0,0.0,0.0,0.0,0.0,0.0,0.0,0.0,0.0,0.0,0.0,0.0,0.0,0.0,0.0,0.0,0.0,0.0,0.0,0.0,0.0,0.0,0.0,0.0,0.0,0.0,0.0,0.0,0.0,0.0,0.0,0.0,0.0,0.0,0.0,0.0,0.0,0.0,0.0,0.0,0.0,0.0,0.0,0.0,0.0,0.0,0.0,0.0,0.0,0.0,0.0,0.0,0.0,0.0,0.0,0.0,0.0,0.0,0.0,0.0,0.0,0.0,0.0,0.0,0.0,0.0,-0.7892,-1.0702,-1.1685,-1.1439,-1.1196,-1.1164,-1.0395,-0.9856,-0.9754,-0.9587,0.0,0.0,0.0,0.0,0.0,0.0,0.0,0.0,0.0,0.0,0.0,0.0,0.0,0.0,0.0,0.0,0.0,0.0,0.0,0.0,0.0,0.0,0.0,0.0,0.0,0.0,0.0,0.0,0.0,0.0,0.0,0.0,0.0,0.0,0.0,0.0,0.0,0.0,0.0,0.0,0.0,0.0,0.0,0.0,0.0,0.0,0.0,0.0,0.0,0.0,0.0,0.0,0.0,0.0,0.0,0.0,0.0,0.0,0.0,0.0,0.0,0.0,0.0,0.0,0.0,0.0,0.0,0.0,0.0,0.0,0.0,0.0,0.0,0.0,0.0,0.0,0.0,0.0,0.0,0.0,0.0,0.0,0.0,0.0,0.0,0.0,0.0,0.0,0.0,0.0,0.0,0.0,0.0,0.0,0.0,0.0,0.0,0.0,0.0,0.0,0.0,0.0,-0.8059,-1.0219,0.0,-1.1666,-1.1466,-1.1226,-1.0776,-1.0357,-0.9913,0.0,0.0,0.0,0.0,0.0,0.0,0.0,0.0,0.0,0.0,0.0,0.0,0.0,0.0,0.0,0.0,0.0,0.0,0.0,0.0,0.0,0.0,0.0,0.0,0.0,0.0,0.0,0.0,0.0,0.0,0.0,0.0,0.0,0.0,0.0,0.0,0.0,0.0,0.0,0.0,0.0,0.0,0.0,0.0,0.0,0.0,0.0,0.0,0.0,0.0,0.0,0.0,0.0,0.0,0.0,0.0,0.0,0.0,0.0,0.0,0.0,0.0,0.0,0.0,0.0,0.0,0.0,0.0,0.0,0.0,0.0,0.0,0.0,0.0,0.0,0.0,0.0,0.0,0.0,0.0,0.0,0.0,0.0,0.0,0.0,0.0,0.0,0.0,0.0,0.0,0.0,0.0,0.0,0.0,0.0,0.0,0.0,0.0,0.0,0.0,0.0,0.0,-0.7155,-0.8937,-1.0473,0.0,-1.1805,-1.1689,-1.1419,-1.0878,-1.0098,-0.8922,0.0,0.0,0.0,0.0,0.0,0.0,0.0,0.0,0.0,0.0,0.0,0.0,0.0,0.0,0.0,0.0,0.0,0.0,0.0,0.0,0.0,0.0,0.0,0.0,0.0,0.0,0.0,0.0,0.0,0.0,0.0,0.0,0.0,0.0,0.0,0.0,0.0,0.0,0.0,0.0,0.0,0.0,0.0,0.0,0.0,0.0,0.0,0.0,0.0,0.0,0.0,0.0,0.0,0.0,0.0,0.0,0.0,0.0,0.0,0.0,0.0,0.0,0.0,0.0,0.0,0.0,0.0,0.0,0.0,0.0,0.0,0.0,0.0,0.0,0.0,0.0,0.0,0.0,0.0,0.0,0.0,0.0,0.0,0.0,0.0,0.0,0.0,0.0,0.0,0.0,0.0,0.0,0.0,0.0,0.0,0.0,0.0,0.0,0.0,0.0,0.0,0.0,-0.8542,-1.061,-1.1805,-1.1805,-1.1805,-1.1807,-1.1784,-1.0641,-0.8982,0.0,0.0,0.0,0.0,0.0,0.0,0.0,0.0,0.0,0.0,0.0,0.0,0.0,0.0,0.0,0.0,0.0,0.0,0.0,0.0,0.0,0.0,0.0,0.0,0.0,0.0,0.0,0.0,0.0,0.0,0.0,0.0,0.0,0.0,0.0,0.0,0.0,0.0,0.0,0.0,0.0,0.0,0.0,0.0,0.0,0.0,0.0,0.0,0.0,0.0,0.0,0.0,0.0,0.0,0.0,0.0,0.0,0.0,0.0,0.0,0.0,0.0,0.0,0.0,0.0,0.0,0.0,0.0,0.0,0.0,0.0,0.0,0.0,0.0,0.0,0.0,0.0,0.0,0.0,0.0,0.0,0.0,0.0,0.0,0.0,0.0,0.0,0.0,0.0,0.0,0.0,0.0,0.0,0.0,0.0,0.0,0.0,0.0,0.0,0.0,0.0,0.0,0.0,-1.0397,-1.1455,-1.1805,-1.1805,-1.1805,-1.1807,-1.1788,-1.1458,-0.9906,-0.6798,0.0,0.0,0.0,0.0,0.0,0.0,0.0,0.0,0.0,0.0,0.0,0.0,0.0,0.0,0.0,0.0,0.0,0.0,0.0,0.0,0.0,0.0,0.0,0.0,0.0,0.0,0.0,0.0,0.0,0.0,0.0,0.0,0.0,0.0,0.0,0.0,0.0,0.0,0.0,0.0,0.0,0.0,0.0,0.0,0.0,0.0,0.0,0.0,0.0,0.0,0.0,0.0,0.0,0.0,0.0,0.0,0.0,0.0,0.0,0.0,0.0,0.0,0.0,0.0,0.0,0.0,0.0,0.0,0.0,0.0,0.0,0.0,0.0,0.0,0.0,0.0,0.0,0.0,0.0,0.0,0.0,0.0,0.0,0.0,0.0,0.0,0.0,0.0,0.0,0.0,0.0,0.0,0.0,0.0,0.0,0.0,0.0,0.0,0.0,0.0,0.0,0.0,-1.1867,-1.1764,-1.1478,-1.1957,-1.1876,-1.1799,-1.1806,-1.1816,-1.0315,-0.6828,0.0,0.0,0.0,0.0,0.0,0.0,0.0,0.0,0.0,0.0,0.0,0.0,0.0,0.0,0.0,0.0,0.0,0.0,0.0,0.0,0.0,0.0,0.0,0.0,0.0,0.0,0.0,0.0,0.0,0.0,0.0,0.0,0.0,0.0,0.0,0.0,0.0,0.0,0.0,0.0,0.0,0.0,0.0,0.0,0.0,0.0,0.0,0.0,0.0,0.0,0.0,0.0,0.0,0.0,0.0,0.0,0.0,0.0,0.0,0.0,0.0,0.0,0.0,0.0,0.0,0.0,0.0,0.0,0.0,0.0,0.0,0.0,0.0,0.0,0.0,0.0,0.0,0.0,0.0,0.0,0.0,0.0,0.0,0.0,0.0,0.0,0.0,0.0,0.0,0.0,0.0,0.0,0.0,0.0,0.0,0.0,0.0,0.0,0.0,0.0,0.0,0.0,-1.2623,-1.1616,-1.1046,-1.2142,-1.1967,-1.1799,-1.1792,-1.1805,-1.0301,-0.6819,0.0,0.0,0.0,0.0,0.0,0.0,0.0,0.0,0.0,0.0,0.0,0.0,0.0,0.0,0.0,0.0,0.0,0.0,0.0,0.0,0.0,0.0,0.0,0.0,0.0,0.0,0.0,0.0,0.0,0.0,0.0,0.0,0.0,0.0,0.0,0.0,0.0,0.0,0.0,0.0,0.0,0.0,0.0,0.0,0.0,0.0,0.0,0.0,0.0,0.0,0.0,0.0,0.0,0.0,0.0,0.0,0.0,0.0,0.0,0.0,-0.543,0.0,0.0,0.0,0.0,0.0,0.0,0.0,0.0,0.0,0.0,0.0,0.0,0.0,0.0,0.0,0.0,0.0,0.0,0.0,0.0,0.0,0.0,0.0,0.0,0.0,0.0,0.0,0.0,0.0,0.0,0.0,0.0,0.0,0.0,0.0,0.0,0.0,0.0,0.0,0.0,0.0,-1.033,-1.1002,-1.1617,-1.1882,-1.1833,-1.1798,-1.1806,-1.1794,-1.0307,-0.6832,-0.6162,0.0,0.0,0.0,0.0,0.0,0.0,0.0,0.0,0.0,0.0,0.0,0.0,0.0,0.0,0.0,0.0,0.0,0.0,0.0,0.0,0.0,0.0,0.0,0.0,0.0,0.0,0.0,0.0,0.0,0.0,0.0,0.0,0.0,0.0,0.0,0.0,0.0,0.0,0.0,0.0,0.0,0.0,0.0,0.0,0.0,0.0,0.0,0.0,0.0,0.0,0.0,0.0,0.0,0.0,0.0,0.0,0.0,0.0,0.0,0.0,-0.712,0.0,0.0,0.0,0.0,0.0,0.0,0.0,0.0,0.0,0.0,0.0,0.0,0.0,0.0,0.0,0.0,0.0,0.0,0.0,0.0,0.0,0.0,0.0,0.0,0.0,0.0,0.0,0.0,0.0,0.0,0.0,0.0,0.0,0.0,0.0,0.0,0.0,0.0,0.0,0.0,-0.9576,-1.0579,-1.1488,-1.193,-1.1891,-1.1813,-1.18,-1.1805,-1.0764,-0.8339,-0.7187,0.0,0.0,0.0,0.0,0.0,0.0,0.0,0.0,0.0,0.0,0.0,0.0,0.0,0.0,0.0,0.0,0.0,0.0,0.0,0.0,0.0,0.0,0.0,0.0,0.0,0.0,0.0,0.0,0.0,0.0,0.0,0.0,0.0,0.0,0.0,0.0,0.0,0.0,0.0,0.0,0.0,0.0,0.0,0.0,0.0,0.0,0.0,0.0,0.0,0.0,0.0,0.0,0.0,-1.1062,-1.1183,-1.3591,-1.3591,-1.3591,-1.3421,-1.0363,-0.8975,-0.8646,0.0,0.0,0.0,0.0,0.0,0.0,0.0,0.0,0.0,0.0,0.0,0.0,0.0,0.0,0.0,0.0,0.0,0.0,0.0,0.0,0.0,0.0,0.0,0.0,0.0,-1.0194,-0.928,0.0,0.0,0.0,0.0,0.0,0.0,0.0,0.0,0.0,0.0,0.0,0.0,-0.9467,-1.0388,-1.1273,-1.2061,-1.1918,-1.1763,-1.1702,-1.1659,-1.1057,-0.9702,-0.7716,-0.6611,0.0,0.0,0.0,0.0,0.0,0.0,0.0,0.0,0.0,0.0,0.0,0.0,0.0,0.0,0.0,0.0,0.0,0.0,0.0,0.0,0.0,0.0,0.0,0.0,0.0,0.0,0.0,0.0,0.0,0.0,0.0,0.0,-0.7864,-0.5386,0.0,0.0,0.0,0.0,0.0,0.0,0.0,0.0,0.0,0.0,0.0,0.0,0.0,-1.038,-1.3143,-1.319,-1.3577,-1.435,-1.3955,-1.3974,-1.435,-1.435,-1.435,-1.4332,-1.3841,0.0,-1.2438,-0.9462,0.0,0.0,0.0,0.0,0.0,0.0,0.0,0.0,0.0,0.0,0.0,0.0,0.0,0.0,0.0,0.0,0.0,0.0,0.0,0.0,0.0,0.0,-0.9379,-0.9805,-1.1387,-1.2071,0.0,-0.7474,-0.6724,-0.8663,-0.5928,0.0,0.0,0.0,0.0,0.0,0.0,0.0,-0.9078,-1.061,-1.1721,-1.1833,-1.1826,-1.1659,-1.1318,-1.1127,-1.0308,-0.8622,-0.7312,-0.6591,-0.6591,-0.6458,0.0,0.0,0.0,0.0,0.0,0.0,0.0,0.0,0.0,0.0,0.0,0.0,0.0,0.0,0.0,0.0,0.0,0.0,0.0,0.0,0.0,0.0,0.0,0.0,0.0,0.0,0.0,0.0,0.0,-0.8229,-0.9556,-0.8075,-0.7902,-0.7172,0.0,0.0,0.0,0.0,0.0,0.0,0.0,0.0,0.0,-1.0196,-1.1654,-1.3068,-1.4488,-1.4488,-1.5417,-1.7197,-1.7197,-1.7197,-1.7197,-1.7197,-1.7197,-1.7197,-1.7197,-1.7006,-1.6431,-1.2877,-0.9563,-0.6554,0.0,0.0,0.0,0.0,-0.5941,-0.8318,-0.8148,-0.9346,0.0,-1.0973,0.0,0.0,0.0,0.0,0.0,0.0,0.0,0.0,0.0,0.0,-1.1745,-1.1745,-1.2484,-1.2935,-1.1946,-1.0982,-1.0218,0.0,-0.8907,-0.7198,-0.4388,0.0,0.0,0.0,0.0,-0.96,-0.9508,-1.0852,-1.1725,-1.1534,-1.1512,-1.1436,-1.1202,-1.0907,-1.0288,-0.925,-0.8168,-0.7263,-0.6636,-0.6594,-0.6132,0.0,0.0,0.0,0.0,0.0,0.0,0.0,0.0,0.0,0.0,0.0,0.0,0.0,0.0,0.0,0.0,0.0,0.0,0.0,0.0,0.0,0.0,0.0,0.0,0.0,0.0,0.0,0.0,-0.8825,-0.946,-1.119,-0.9883,-0.7845,0.0,0.0,0.0,0.0,0.0,0.0,-0.7287,-0.9599,-1.2021,-1.4414,-1.5307,-1.5729,-1.5729,-1.5729,-1.6922,-1.9305,-1.9305,-1.9305,-1.9305,-1.9305,-1.9305,-1.9305,-1.9305,-1.9305,-1.9002,-1.5239,-1.2264,-0.9823,-0.7638,-0.6766,-0.674,-0.6431,-0.8822,-1.2308,-1.3071,-1.3114,-1.2703,-1.2014,0.0,-0.8244,-0.988,0.0,0.0,0.0,0.0,-1.0858,-1.1295,-1.2303,-1.3198,-1.3198,-1.3198,-1.3198,-1.3198,-1.3547,-1.3087,0.0,-1.1476,-1.1341,-0.672,0.0,0.0,0.0,0.0,-1.0007,-1.0114,-1.1117,-1.1703,-1.1445,-1.1423,-1.1336,-1.1145,-1.0851,-1.0461,-0.9922,-0.871,-0.7603,-0.6637,-0.6703,-0.6658,-0.6486,0.0,0.0,0.0,0.0,0.0,0.0,0.0,0.0,0.0,0.0,0.0,0.0,0.0,0.0,0.0,0.0,0.0,0.0,0.0,0.0,0.0,0.0,0.0,0.0,0.0,0.0,0.0,0.0,0.0,-1.417,-0.9271,0.0,0.0,0.0,0.0,-0.9249,-1.2278,-1.4011,-1.4011,-1.4157,-1.4323,-1.4488,-1.7454,-1.9051,-1.9051,-1.9051,-1.9124,-1.9305,-1.9305,-1.9305,-1.9305,-1.9305,-1.9305,-1.9305,-1.9305,-1.9305,-1.9051,-1.5783,-1.3944,-1.3159,-1.3007,-1.2956,-1.2956,-1.294,-1.3076,-1.3716,-1.653,-1.6651,-1.5184,-1.2628,-1.1679,-1.1561,-1.1659,-1.1546,0.0,0.0,-1.217,-1.3413,-1.5066,-1.4342,-1.3198,-1.3198,-1.3198,-1.3198,-1.3198,-1.4501,-1.4528,0.0,-1.2981,-1.4719,-1.188,0.0,-1.0073,-0.895,-0.9428,-1.0099,-1.0678,-1.1371,-1.179,-1.1783,-1.1768,-1.1541,-1.0958,-1.091,-1.0597,-0.9944,-0.8245,-0.7058,-0.6607,-0.6969,-0.6842,-0.6137,-0.6362,0.0,0.0,0.0,0.0,0.0,0.0,0.0,0.0,0.0,0.0,0.0,0.0,0.0,0.0,0.0,0.0,0.0,0.0,0.0,0.0,0.0,0.0,0.0,0.0,0.0,0.0,0.0,0.0,-1.4401,-0.9233,0.0,-1.1175,-1.1598,-1.2065,-1.3151,-1.4026,-1.4488,-1.4488,-1.6463,-1.7582,-1.7582,-1.9129,-1.9931,-1.9931,-1.9931,-1.9931,-1.9931,-1.9931,-1.9931,-1.992,-1.9504,-1.9305,-1.9305,-1.9305,-1.9305,-1.9213,-1.806,-1.7435,-1.7121,-1.6484,-1.6238,-1.6238,-1.6238,-1.6238,-1.639,-1.7439,-1.7479,-1.6922,-1.5964,-1.566,-1.5486,-1.4643,-1.4375,-1.4375,-1.4375,-1.4615,-1.5013,-1.5639,-1.5359,-1.4876,-1.4876,-1.4876,-1.4876,-1.4876,-1.5359,-1.5385,-1.3981,-1.4845,-1.5499,-1.4539,-1.3136,-1.185,-1.0912,-1.17,-1.2328,-1.2104,-1.2284,-1.2201,-1.1556,-1.149,-1.1273,-1.0753,-1.0715,-1.0284,-0.933,-0.8401,-0.7593,-0.6889,-0.7003,-0.6929,-0.6621,-0.6857,-0.6369,0.0,0.0,0.0,0.0,0.0,0.0,0.0,0.0,0.0,0.0,0.0,0.0,0.0,0.0,0.0,0.0,0.0,0.0,0.0,0.0,0.0,0.0,0.0,0.0,0.0,0.0,-1.0175,-1.467,-1.2272,-1.1983,-1.6484,-1.692,-1.692,-1.692,-1.6638,-1.6465,-1.6465,-1.8477,-1.9632,-1.9632,-2.0069,-2.0312,-2.0312,-2.0312,-2.0312,-2.0312,-2.0312,-2.0312,-2.0277,-1.9843,-1.9632,-1.9619,-1.939,-1.9305,-1.9305,-1.9305,-1.9305,-1.9225,-1.857,-1.8107,-1.7811,-1.7811,-1.7811,-1.7811,-1.7811,-1.7811,-1.7811,-1.7811,-1.7811,-1.7635,-1.6747,-1.6163,-1.5799,-1.5799,-1.5799,-1.5799,-1.5799,-1.5799,-1.5799,-1.5799,-1.5799,-1.5799,-1.5799,-1.5799,-1.5799,-1.5799,-1.5799,-1.5799,-1.5799,-1.4824,-1.36,-1.2418,-1.3136,-1.3481,-1.2591,-1.2666,-1.2454,-1.1548,-1.1468,-1.1281,-1.0843,-1.0922,-1.0486,-0.9301,-0.8422,-0.7733,-0.7266,-0.695,-0.6742,-0.6621,-0.6577,-0.6208,-0.5495,0.0,0.0,0.0,0.0,0.0,0.0,0.0,0.0,0.0,0.0,0.0,0.0,0.0,0.0,0.0,0.0,0.0,0.0,0.0,0.0,0.0,0.0,0.0,-1.0729,-1.319,-1.5362,-1.5362,-1.8285,-2.0312,-2.0312,-2.0312,-2.0312,-2.0312,-2.0312,-2.0312,-2.0312,-2.0312,-2.0312,-2.0312,-2.0312,-2.0292,-2.0308,-2.0292,-2.0312,-2.0312,-2.0312,-2.0312,-2.0312,-2.0312,-2.0312,-2.0269,-1.9606,-1.9335,-1.9335,-1.9305,-1.9305,-1.9305,-1.9305,-1.8699,-1.7856,-1.7856,-1.7833,-1.7811,-1.7811,-1.7811,-1.7811,-1.7811,-1.7811,-1.7811,-1.7811,-1.6901,-1.5856,-1.5856,-1.5827,-1.5799,-1.5856,-1.5827,-1.5799,-1.5799,-1.5799,-1.5799,-1.5799,-1.5799,-1.5799,-1.5799,-1.5799,-1.5799,-1.5799,-1.5799,-1.5214,-1.3451,-1.357,0.0,-1.2059,-1.2433,-1.2576,-1.1865,-1.1775,-1.1615,-1.1261,-1.1584,-1.124,-0.9909,-0.8194,-0.7379,-0.7675,-0.687,-0.6325,-0.614,-0.5594,-0.5397,-0.5535,0.0,0.0,0.0,0.0,0.0,0.0,0.0,0.0,0.0,0.0,0.0,0.0,0.0,0.0,0.0,0.0,0.0,0.0,0.0,0.0,0.0,0.0,-1.4862,-1.392,-1.6728,-1.8907,-1.8907,-1.9735,-2.0312,-2.0312,-2.0312,-2.0312,-2.0312,-2.0312,-2.0312,-2.0312,-2.0312,-2.0312,-2.0312,-2.0312,-2.0359,-2.0523,-2.0365,-2.0312,-2.0312,-2.0312,-2.0312,-2.0312,-2.0312,-2.0312,-2.0285,-2.0117,-2.0021,-1.9991,-1.9485,-1.9305,-1.9305,-1.9305,-1.913,-1.8876,-1.8876,-1.8417,-1.7811,-1.7811,-1.7811,-1.7811,-1.7811,-1.7811,-1.7811,-1.7811,-1.7526,-1.7248,-1.7248,-1.6538,-1.6024,-1.7002,-1.6538,-1.5799,-1.5799,-1.5799,-1.5799,-1.5799,-1.5799,-1.5799,-1.5799,-1.5799,-1.5799,-1.5799,-1.5799,-1.5634,-1.5139,-1.5184,0.0,-1.4079,-1.3705,-1.3077,-1.1925,-1.1371,-1.1232,-1.1606,-1.1743,-1.084,-0.8602,-0.8168,-0.7789,-0.7344,-0.6959,-0.6803,-0.6884,-0.6225,-0.6111,0.0,0.0,0.0,0.0,0.0,0.0,0.0,0.0,0.0,0.0,0.0,0.0,0.0,0.0,0.0,0.0,0.0,0.0,0.0,0.0,0.0,0.0,-1.6401,-1.735,-1.735,-1.9061,-2.0312,-2.0312,-2.0312,-2.0332,-2.041,-2.0419,-2.0394,-2.03,-2.0312,-2.0312,-2.0312,-2.0312,-2.0346,-2.0415,-2.0419,-2.0477,-2.0605,-2.048,-2.0419,-2.0419,-2.0346,-2.0334,-2.0415,-2.0346,-2.0312,0.0,-2.0312,-2.0312,-2.0269,-1.9877,-1.9553,0.0,0.0,0.0,0.0,0.0,-1.8316,-1.7811,-1.7811,-1.7811,-1.7811,-1.7811,-1.7811,-1.7811,-1.7811,-1.7811,-1.7811,-1.7811,-1.7248,-1.6825,-1.7612,-1.7224,-1.6644,-1.6644,-1.6219,-1.5799,-1.5799,-1.5799,-1.5799,-1.5799,-1.5799,0.0,-1.5799,-1.5799,-1.5799,-1.5799,-1.5799,-1.5469,-1.4498,-1.4288,-1.381,-1.2762,-1.2044,-1.1472,-1.1044,-1.1488,0.0,0.0,0.0,-0.8112,-0.7104,-0.696,0.0,0.0,0.0,0.0,0.0,0.0,0.0,0.0,-0.6072,-0.6265,0.0,0.0,0.0,0.0,0.0,0.0,0.0,0.0,0.0,0.0,0.0,0.0,0.0,0.0,0.0,0.0,-1.8323,-2.0312,-2.0331,-2.0331,-2.0327,-2.0332,-2.0339,-2.039,-2.0585,-2.0605,-2.0527,-2.034,-2.0339,-2.0339,-2.0339,0.0,0.0,0.0,0.0,-2.0605,-2.0605,-2.0605,-2.0605,-2.0605,-2.041,-2.0425,-2.056,-2.0377,-2.0504,-2.0869,-2.0869,-2.0658,-2.0312,-2.0312,-2.0126,-1.9819,-1.9436,-1.9305,-1.9232,-1.8551,-1.8318,-1.8318,-1.8318,0.0,0.0,-1.8318,-1.8318,-1.8228,-1.7912,-1.7811,-1.7811,-1.7811,-1.7811,-1.7873,-1.8234,-1.8042,-1.7766,-1.7612,-1.667,-1.5799,-1.5799,-1.5799,-1.5799,-1.5799,-1.5799,-1.5799,-1.5799,-1.5799,-1.5799,-1.5799,-1.5799,-1.5379,-1.4184,-1.4468,-1.4528,-1.3885,0.0,0.0,-1.007,-1.0942,-1.1642,-1.1785,-1.0016,-0.8423,-0.7199,-0.7159,-0.731,-0.7603,-0.731,-0.7681,-0.8759,-0.8718,-0.8724,-0.8777,-0.7438,-0.726,0.0,0.0,0.0,0.0,0.0,0.0,0.0,0.0,0.0,0.0,0.0,0.0,0.0,0.0,0.0,-1.91,-1.9869,-2.0369,-2.0523,-2.0542,-2.054,-2.0545,-2.0534,-2.056,-2.0605,-2.0605,-2.0585,-2.0536,-2.0534,-2.0534,-2.0534,-2.0534,-2.056,-2.0605,-2.0605,-2.0605,-2.0605,-2.0605,-2.0605,-2.0605,0.0,0.0,-2.036,-2.0323,-2.1784,-2.4322,-2.4322,-2.2803,-2.0312,-2.0312,-2.1474,-2.2978,-2.0317,-1.9305,-1.9472,-2.0908,-2.1448,-2.1448,-2.1448,-2.1448,-2.1448,-2.1448,-2.1448,-2.0991,-1.8555,-1.7811,0.0,-1.7811,-1.7811,-1.8369,-2.0805,-1.9638,-1.7542,-1.6432,-1.5983,-1.5799,-1.5799,-1.5799,-1.5799,-1.5799,-1.5799,-1.5799,-1.5799,-1.5799,-1.5799,-1.5799,-1.5799,-1.5709,-1.5454,-1.5064,-1.4528,-1.3885,-1.2718,-1.1417,-1.0018,-1.0121,-1.0703,-1.1739,-1.0274,-0.9185,-0.8771,-0.8757,-0.8776,-0.8851,-0.8795,-0.8869,-0.9105,-0.8826,-0.8949,-0.9413,-0.8656,-0.8537,0.0,0.0,0.0,0.0,0.0,0.0,0.0,0.0,0.0,0.0,0.0,-1.1194,0.0,0.0,-2.0449,-2.0449,-2.1888,-2.3042,-2.3139,-2.1683,-2.06,-2.0605,-2.0605,-2.0605,-2.0605,-2.2148,-2.3144,-2.3144,-2.3144,-2.3144,-2.3144,-2.3144,-2.3144,-2.3144,-2.1484,-2.0605,-2.0605,-2.0605,-2.0605,-2.0605,-2.0605,-2.138,-2.2803,-2.2803,-2.3707,-2.5303,-2.5303,-2.4341,-2.2766,-2.24,-2.302,-2.4043,-2.2391,-2.1749,-2.188,-2.2879,-2.2859,-2.231,-2.231,-2.231,-2.231,-2.231,-2.231,-2.204,-2.0517,-2.0061,-2.0061,-2.0061,-2.0061,-2.0416,-2.1921,-2.1194,-1.9334,-1.6486,-1.5799,-1.5799,-1.5799,-1.5799,-1.5799,-1.5799,-1.5799,-1.5799,-1.5799,-1.5799,-1.5799,-1.5799,-1.5799,-1.5799,-1.5799,-1.5514,-1.5184,-1.4827,-1.4197,-1.3548,-1.2906,-1.1622,-1.1047,-1.1457,-1.0804,-1.0232,-0.981,-0.9796,-0.9876,-1.0001,-0.9876,-0.9938,-1.0257,-0.995,-0.9959,-1.0234,-0.9773,-0.9649,0.0,0.0,0.0,0.0,0.0,0.0,0.0,0.0,-2.0559,-2.0394,-1.8167,-1.7287,-2.0727,-2.1483,-2.1582,-2.1582,-2.391,-2.5703,-2.5702,-2.332,-2.1348,-2.0684,-2.1191,-2.1328,-2.0664,-2.3691,-2.5703,-2.5703,-2.5703,-2.5703,-2.5703,-2.5703,-2.5703,-2.5703,-2.3027,-2.1582,-2.1582,-2.0937,-2.0605,-2.0605,-2.056,-2.2211,-2.5303,-2.5303,-2.5303,-2.5303,-2.5303,-2.5222,-2.5049,-2.4461,-2.419,-2.419,-2.419,-2.419,-2.419,-2.419,-2.3558,-2.2642,-2.2377,-2.231,-2.231,-2.231,-2.231,-2.231,-2.231,-2.231,-2.2225,-2.1886,-2.2049,-2.231,-2.231,-2.2049,-2.0904,-1.7409,-1.6173,-1.5799,-1.5799,-1.5799,-1.5799,-1.5799,-1.5799,-1.5799,-1.5799,-1.5799,-1.5799,-1.5799,-1.5799,-1.5799,-1.5799,-1.5799,-1.577,-1.5639,-1.5725,-1.554,-1.4893,-1.2855,-1.1513,-1.123,-1.1213,-1.1027,-1.0585,-1.0556,-1.0683,-1.0896,-1.0745,-1.0886,-1.1296,-1.1024,-1.0873,-1.0801,-1.0578,-1.0518,-1.306,-1.5248,-1.6842,-1.8453,-1.5137,-1.1152,0.0,0.0,-2.0586,-2.0563,-2.0251,-2.1033,-2.447,-2.5117,-2.5137,-2.5137,-2.5448,-2.5701,-2.5703,-2.5371,-2.4004,-2.0957,-2.3281,-2.3945,-2.0898,-2.3691,-2.5703,-2.5703,-2.5703,-2.5703,-2.5703,-2.5703,-2.5703,-2.5703,-2.5332,-2.5137,-2.5137,-2.2129,-2.0605,-2.0605,-2.041,-2.2084,-2.5303,-2.5303,-2.5303,-2.5303,-2.5303,-2.493,-2.4321,-2.4247,-2.419,-2.419,-2.419,-2.419,-2.419,-2.419,-2.4112,-2.3831,-2.2677,-2.231,-2.231,-2.231,-2.231,-2.231,-2.231,-2.231,-2.1991,-2.0447,-2.1103,-2.231,-2.231,-2.1166,-1.9869,-1.9386,-1.7492,-1.5799,-1.5799,-1.5799,-1.5799,-1.5799,-1.5799,-1.5799,-1.5799,-1.5799,-1.5799,-1.5799,-1.5799,-1.5799,-1.5799,-1.5799,-1.558,-1.5074,-1.5477,-1.4619,-1.1707,-1.1174,-1.1076,-1.1296,-1.1071,-1.102,-1.1187,-1.1195,-1.1218,-1.124,-1.1512,-1.1542,-1.1296,-1.1024,-1.0739,-1.0472,-1.0597,-1.0976,-1.508,-1.5358,-1.5695,0.0,-1.918,-1.6289,-1.6289,-2.0078,-2.3574,-2.3574,-2.3574,-2.3959,-2.5226,-2.5598,-2.5658,0.0,-2.5471,-2.5471,-2.5471,-2.5471,-2.4208,-2.0827,-2.1696,-2.2819,-2.3496,-2.4863,-2.5703,-2.5703,-2.5703,-2.5703,-2.5703,-2.5703,-2.5703,-2.5703,-2.5703,-2.5703,-2.5703,-2.2305,-2.0593,-2.0594,-2.0404,-2.2053,-2.5303,-2.5303,-2.5303,-2.5303,-2.5303,-2.4877,-2.419,-2.419,-2.419,-2.419,-2.419,-2.419,-2.419,-2.419,-2.419,-2.4014,-2.273,-2.231,-2.231,-2.231,-2.231,-2.231,-2.231,-2.231,-2.1945,-2.0174,-2.0975,-2.2077,-2.1055,-2.0243,-1.9301,-1.7807,-1.6608,-1.5799,-1.5799,-1.5799,-1.5799,-1.5799,-1.5799,-1.5477,-1.447,-1.5134,-1.5799,-1.5799,-1.5799,-1.5418,-1.4406,-1.4278,-1.4181,-1.3934,-1.4149,-1.3501,-1.1527,-1.1355,-1.1274,-1.1085,-1.0968,-1.0944,-1.1071,-1.1071,-1.1071,-1.1071,-1.121,-1.121,-1.1071,-1.075,-1.0706,-1.086,-1.0746,-1.1216,-1.5353,0.0,0.0,-2.0474,-2.1288,-2.0605,-2.0605,-2.3242,-2.5703,-2.5703,-2.5636,-2.5535,-2.5339,-2.5459,-2.5531,-2.533,-2.5303,-2.5303,-2.5303,-2.5303,-2.4053,-2.0696,-2.035,-2.1385,-2.3957,-2.5114,-2.5703,-2.5703,-2.5703,-2.5703,-2.5703,-2.5703,-2.5703,-2.5703,-2.5703,-2.5703,-2.5703,-2.2255,-2.0519,-2.0523,-2.0369,-2.2053,-2.5303,-2.5303,-2.5303,-2.5303,-2.5084,-2.4693,-2.419,-2.419,-2.419,-2.419,-2.419,-2.419,-2.419,-2.419,-2.419,-2.4074,-2.314,-2.2588,-2.231,-2.231,-2.231,-2.231,-2.231,-2.231,-2.2049,-2.0764,-2.0959,-2.1144,-1.9134,-1.8597,-1.8167,-1.6248,-1.5799,-1.5799,-1.5799,-1.5799,-1.5799,-1.5799,-1.5418,-1.469,-1.3425,-1.4246,-1.5074,-1.5074,-1.5074,-1.4627,-1.3357,-1.3198,-1.3198,-1.3198,-1.32,-1.2729,-1.1602,-1.1495,-1.1276,-1.0804,-1.0681,-1.0681,-1.0763,-1.0763,-1.0763,-1.0763,-1.0849,-1.0931,-1.0985,-1.0748,-1.0873,-1.13,-1.1226,-1.157,-1.3829,0.0,-1.5876,-1.8321,-1.9766,-2.0605,-2.0605,-2.3242,-2.5703,-2.5703,-2.5498,-2.5303,-2.5313,-2.5322,-2.5303,-2.5313,-2.5303,-2.5303,-2.5303,-2.5303,-2.4053,-2.0696,-2.0465,-2.055,0.0,-2.3631,-2.5703,-2.5703,-2.5703,-2.5703,-2.5703,-2.5703,-2.5703,-2.5703,-2.5703,-2.5703,-2.5703,-2.2124,-2.03,-2.0312,-2.0312,-2.2053,-2.5303,-2.5303,-2.5303,-2.5253,-2.454,-2.4228,-2.419,-2.419,-2.419,-2.419,-2.419,-2.419,-2.419,-2.419,-2.419,-2.419,-2.4151,-2.3312,-2.231,-2.231,-2.231,-2.231,-2.231,-2.231,-2.2282,-2.2254,-2.1023,-1.9196,-1.6578,-1.5918,-1.5903,-1.5829,-1.5799,-1.5799,-1.5799,-1.5799,-1.5799,-1.5799,-1.4438,-1.3267,-1.3198,-1.3232,-1.3301,-1.3301,-1.3301,-1.3267,-1.3198,-1.3198,-1.3198,-1.3198,-1.3185,-1.2617,-1.1161,-1.1022,-1.0847,-1.0436,-1.011,-1.0072,-1.0396,-1.0434,-1.0434,-1.0434,-1.0739,-1.1001,-1.1189,-1.1189,-1.1311,-1.1605,-1.2115,-1.2246,-1.5031,0.0,-1.7786,-2.0824,-2.1081,-2.1185,-2.3478,-2.4743,-2.5428,-2.5428,-2.5363,-2.4611,-2.238,-2.1977,-2.1977,-2.1977,-2.3842,-2.5303,-2.5303,-2.5303,-2.4053,-2.0696,-2.0369,0.0,0.0,0.0,0.0,-2.2324,-2.4414,-2.5703,-2.5703,-2.5703,-2.5703,-2.5703,-2.5706,-2.5609,-2.5428,-2.4237,-2.3611,-2.3611,-2.3611,-2.4207,-2.5303,-2.5303,-2.5303,-2.5253,-2.4526,-2.419,-2.419,-2.419,-2.419,-2.419,-2.419,-2.419,-2.419,-2.419,-2.419,-2.4074,-2.3236,-2.2668,-2.231,-2.231,-2.231,-2.231,-2.231,-2.1493,-2.0565,-2.0565,-2.0139,-1.948,-1.8631,-1.7103,-1.5799,-1.5799,-1.5799,-1.5799,-1.5799,-1.5799,-1.5448,-1.431,-1.3615,-1.3198,-1.3198,-1.3198,-1.3198,-1.3198,-1.3198,-1.3198,-1.3198,-1.3198,-1.3198,-1.3198,-1.3198,-1.2847,-1.1996,-1.1926,-1.156,-1.0658,-1.0499,-1.0335,-1.0085,-1.0072,-1.0072,-1.0072,-1.0547,-1.0804,-1.0875,-1.127,-1.1695,-1.214,-1.2328,-1.2534,-1.6196,-1.6238,-1.6606,-2.2498,-2.3119,-2.2853,-2.506,-2.5428,-2.5303,-2.5303,-2.4341,-2.2476,-1.9092,-1.8484,-1.8888,-2.01,-2.3111,-2.5303,-2.5303,-2.5303,-2.4495,-2.2342,-2.11,-2.0885,0.0,0.0,0.0,-2.0684,-2.3769,-2.5703,-2.5703,-2.5703,-2.5703,-2.5703,-2.5693,-2.5563,-2.5303,-2.5303,-2.5303,-2.5303,-2.5303,-2.5303,-2.5303,-2.5303,-2.516,-2.4877,-2.4409,-2.419,-2.419,-2.419,-2.419,-2.419,-2.419,-2.419,-2.419,-2.419,-2.3915,-2.3399,-2.2588,-2.231,-2.231,-2.231,-2.231,-2.231,-2.231,-2.1071,-1.969,-1.969,-1.969,-1.969,-1.969,-1.7777,-1.5799,-1.5799,-1.5799,-1.5799,-1.5799,-1.5329,-1.4533,-1.3425,-1.3198,-1.3198,-1.3198,-1.3198,-1.3198,-1.3198,-1.3198,-1.3198,-1.3198,-1.3198,-1.3198,-1.3198,-1.3198,-1.2973,-1.2467,-1.2416,-1.2015,-1.1098,-1.1035,-1.0872,-1.0521,-1.0508,-1.0508,-1.0508,-1.086,-1.1136,-1.1295,-1.1701,-1.2165,-1.2672,-1.2672,-1.286,-1.7034,-1.45,-1.3437,-2.3241,-2.5493,-2.5303,-2.5303,-2.5303,-2.5245,-2.5072,-2.2361,-1.8977,0.0,0.0,-1.6055,-1.9485,-2.2842,-2.5034,-2.5034,-2.5187,-2.5303,0.0,0.0,0.0,0.0,0.0,0.0,-2.1113,0.0,-2.5703,-2.5703,-2.5703,-2.5703,-2.5702,-2.5687,-2.5563,-2.5303,-2.5303,-2.5303,-2.5303,-2.5303,-2.5303,-2.5303,-2.5303,-2.4891,-2.419,-2.419,-2.419,-2.419,-2.419,-2.419,-2.419,-2.419,-2.419,-2.419,-2.419,-2.3399,-2.231,-2.231,-2.231,-2.231,-2.231,-2.231,-2.231,-2.231,-2.1071,-1.969,-1.969,-1.969,-1.966,-1.9525,-1.7672,-1.5799,-1.5799,-1.5799,-1.577,-1.5697,-1.4374,-1.3198,-1.3198,-1.3198,-1.3198,-1.3198,-1.3198,-1.3198,-1.3198,-1.3198,-1.3198,-1.3198,-1.3198,-1.3198,-1.3198,-1.3198,-1.2985,-1.2472,-1.2454,-1.2215,-1.1663,-1.1625,-1.1625,-1.1588,-1.1588,-1.1588,-1.1588,-1.1613,-1.1889,-1.2416,-1.2441,-1.2685,-1.3198,-1.3198,-1.3198,-1.6068,-1.8766,-2.2357,-2.4787,-2.5337,-2.5303,-2.5303,-2.5303,-2.4591,-2.2092,-1.8862,-1.5459,0.0,0.0,0.0,-1.5939,-1.9362,0.0,-2.1573,-2.3726,0.0,-2.5303,0.0,-2.4513,-2.5601,-2.5701,0.0,0.0,-2.5215,-2.5703,-2.5703,-2.5703,-2.5703,-2.5711,-2.5513,-2.537,-2.5303,-2.5303,-2.5303,-2.5303,-2.5303,-2.5303,-2.5303,-2.5303,-2.4891,-2.419,-2.419,-2.419,-2.419,-2.419,-2.419,-2.419,-2.419,-2.419,-2.419,-2.419,-2.3399,-2.231,-2.231,-2.231,-2.231,-2.231,-2.231,-2.231,-2.231,-2.1071,-1.969,-1.969,-1.969,-1.9241,-1.7312,-1.6308,-1.5799,-1.5799,-1.5799,-1.5448,-1.4149,-1.3514,-1.3198,-1.3198,-1.3198,-1.3198,-1.3198,-1.3198,-1.3198,-1.3198,-1.3198,-1.3198,-1.3198,-1.3198,-1.3198,-1.3198,-1.3198,-1.3135,-1.2998,-1.2998,-1.276,-1.2241,-1.2203,-1.2015,-1.16,-1.1588,-1.1588,-1.1588,-1.1989,-1.2266,-1.2416,-1.2785,-1.306,-1.3198,-1.3198,-1.3198,-1.9687,-2.2649,-2.5551,-2.5359,-2.5303,-2.5303,-2.5303,-2.5303,-2.3918,-1.9054,-1.5343,0.0,-1.0302,0.0,0.0,0.0,0.0,0.0,-2.2284,-2.4111,-2.5303,0.0,-2.5406,0.0,-2.5683,-2.5703,-2.5703,0.0,-2.5703,-2.5703,-2.5703,-2.5693,-2.5653,-2.5534,-2.539,-2.5303,-2.5303,-2.5303,-2.5303,-2.5303,-2.5303,-2.5303,-2.5303,-2.5303,-2.4891,-2.419,0.0,-2.419,-2.419,-2.419,-2.419,-2.419,-2.419,-2.419,-2.419,-2.419,-2.3399,-2.231,-2.231,-2.231,-2.231,-2.231,-2.231,-2.2152,-2.1385,-2.0481,-1.969,-1.969,-1.969,-1.9111,-1.6488,-1.5799,-1.5799,-1.5799,-1.5225,-1.4406,-1.3425,-1.3198,-1.3198,-1.3198,-1.3198,-1.3198,-1.3198,-1.3198,-1.3198,-1.3198,-1.3198,-1.3198,-1.3198,-1.3198,-1.3198,-1.3198,-1.3198,-1.3198,-1.3198,-1.3198,-1.3073,-1.276,-1.2735,-1.263,-1.2316,-1.2316,-1.2316,-1.2316,-1.2584,-1.2735,-1.2735,-1.3048,-1.3198,-1.3198,-1.3198,-1.3198,-2.4883,-2.5613,-2.5492,-2.5341,-2.5303,-2.5168,-2.4745,-2.3918,-2.1611,-1.5728,0.0,-0.9315,-0.9099,-0.6873,-0.8251,-1.8035,0.0,-2.1457,-2.4822,-2.5303,-2.5313,-2.5357,-2.5554,-2.5703,-2.5703,-2.5703,-2.5703,-2.5703,-2.5703,-2.5703,-2.5697,-2.5673,-2.5543,-2.5303,-2.5303,-2.5303,-2.5303,-2.5303,-2.5303,-2.5303,-2.5303,-2.5303,-2.5303,-2.5192,-2.4809,-2.419,-2.419,0.0,-2.419,-2.419,-2.419,-2.419,-2.419,-2.419,-2.417,-2.4014,-2.3259,-2.231,-2.231,-2.231,-2.231,-2.231,-2.231,-2.1974,-2.0208,-1.969,-1.969,-1.969,-1.969,-1.9166,-1.6923,-1.6068,-1.5799,-1.5799,-1.447,-1.3198,-1.3198,-1.3198,-1.3198,-1.3198,-1.3198,-1.3198,-1.3198,-1.3198,-1.3198,-1.3198,-1.3198,-1.3198,-1.3198,-1.3198,-1.3198,-1.3198,-1.3198,-1.3198,-1.3198,-1.3198,-1.3198,-1.3198,-1.3198,-1.3198,-1.3198,-1.3198,-1.3198,-1.3198,-1.3198,-1.3198,-1.3198,-1.3198,-1.3198,-1.3198,-1.3198,-1.3198,-2.5547,-2.5681,-2.5606,-2.5365,-2.5303,-2.4572,-2.1803,-1.6785,0.0,0.0,-0.8187,-0.5703,-0.5653,-0.521,-0.7314,-1.487,0.0,0.0,0.0,0.0,-2.5376,0.0,0.0,0.0,0.0,0.0,0.0,0.0,0.0,-2.5701,-2.5704,-2.5495,-2.5341,-2.5303,-2.5303,-2.5303,-2.5303,-2.5303,-2.5303,-2.5303,-2.5303,-2.5303,-2.5274,-2.4682,-2.4321,-2.419,-2.419,0.0,-2.419,-2.419,-2.419,-2.419,-2.419,-2.419,-2.4074,-2.3017,-2.2497,-2.231,-2.231,-2.231,-2.231,-2.231,-2.231,-2.1974,-2.0208,-1.969,-1.969,-1.969,-1.969,-1.9585,-1.9121,-1.7432,-1.5799,-1.5799,-1.447,-1.3198,-1.3198,-1.3198,-1.3198,-1.3198,-1.3198,-1.3198,-1.3198,-1.3198,-1.3198,-1.3198,-1.3198,-1.3198,-1.3198,-1.3198,-1.3198,-1.3198,-1.3198,-1.3198,-1.3198,-1.3198,-1.3198,-1.3198,-1.3198,-1.3198,-1.3198,-1.3198,-1.3198,-1.3198,-1.3198,-1.3198,-1.3198,-1.3198,-1.3198,-1.3198,-1.3198,-1.3198,-2.5703,-2.5703,-2.5673,-2.5545,-2.5409,-2.4418,-2.1054,0.0,0.0,0.0,-0.6146,-0.4916,-0.4812,0.0,0.0,0.0,0.0,0.0,0.0,0.0,0.0,0.0,0.0,0.0,0.0,0.0,0.0,0.0,0.0,-2.5628,-2.5698,-2.5447,-2.5303,-2.5303,-2.5303,-2.5303,-2.5303,-2.5303,-2.5303,-2.5303,-2.5303,-2.5303,-2.5274,-2.4543,-2.419,-2.419,-2.419,0.0,-2.419,-2.419,-2.419,-2.419,-2.419,-2.3792,-2.314,-2.2525,-2.231,-2.231,-2.231,-2.231,-2.231,-2.231,-2.1691,-2.0797,-1.9945,-1.969,-1.969,-1.969,-1.969,-1.9411,-1.8032,-1.6743,-1.558,-1.4658,-1.3802,-1.3198,-1.3198,-1.3198,-1.3198,-1.3198,-1.3198,-1.3198,-1.3198,-1.3198,-1.3198,-1.3198,-1.3198,-1.3198,-1.3198,-1.3198,-1.3198,-1.3198,-1.3198,-1.3198,-1.3198,-1.3198,-1.3198,-1.3198,-1.3198,-1.3198,-1.3198,-1.3198,-1.3198,-1.3198,-1.3198,-1.3198,-1.3198,-1.3198,-1.3198,-1.3198,-1.3198,-1.3198,-2.5683,-2.566,-2.5619,-2.5605,-2.4928,-2.3534,-2.0908,-1.444,0.0,0.0,-0.5097,-0.5041,-0.4831,0.0,-0.5734,0.0,0.0,0.0,0.0,0.0,0.0,0.0,0.0,0.0,0.0,0.0,0.0,0.0,0.0,0.0,-2.5582,-2.5409,-2.5303,-2.5303,-2.5303,-2.4957,-2.4245,-2.4937,-2.4878,-2.4006,-2.4006,-2.4377,-2.5049,-2.4459,-2.419,-2.419,-2.419,0.0,0.0,-2.419,-2.419,-2.419,-2.419,-2.3422,-2.231,-2.231,-2.1904,-2.1346,-2.1346,-2.1346,-2.1346,-2.1346,-2.0588,-1.969,-1.969,-1.9301,-1.8871,-1.8871,-1.8871,-1.8407,-1.6338,-1.5522,-1.4907,-1.3514,-1.3198,-1.3198,-1.3198,-1.3198,-1.3198,-1.3198,-1.3198,-1.3198,-1.3198,-1.3198,-1.3198,-1.3198,-1.3198,-1.3198,-1.3198,-1.3198,-1.3198,-1.3198,-1.3198,-1.3198,-1.3198,-1.3198,-1.3198,-1.3198,-1.3198,-1.3198,-1.3198,-1.3198,-1.3198,-1.3198,-1.3198,-1.3198,-1.3198,-1.3198,-1.3198,-1.3198,-1.3198,-1.3198,-2.5634,-2.5526,-2.535,-2.5341,-2.3034,-2.0677,-2.0369,0.0,0.0,-0.5155,-0.5097,-0.5041,-0.4831,-0.4793,0.0,0.0,0.0,-1.1036,0.0,0.0,0.0,0.0,0.0,0.0,0.0,0.0,0.0,0.0,0.0,0.0,-2.5255,-2.5303,-2.5303,-2.5303,-2.5303,-2.3842,-2.0792,-2.3784,-2.3481,-1.9849,-1.9849,-2.1419,-2.4303,-2.4228,-2.419,-2.419,-2.419,0.0,0.0,-2.419,-2.419,-2.419,-2.419,-2.3422,-2.231,-2.231,-2.0585,-1.8217,-1.8217,-1.8217,-1.8217,-1.8217,-1.8895,-1.969,-1.969,-1.8062,-1.6158,-1.6158,-1.6158,-1.6098,-1.5858,-1.4627,-1.3391,-1.3232,-1.3198,-1.3198,-1.3198,-1.3198,-1.3198,-1.3198,-1.3198,-1.3198,-1.3198,-1.3198,-1.3198,-1.3198,-1.3198,-1.3198,-1.3198,-1.3198,-1.3198,-1.3198,-1.3198,-1.3198,-1.3198,-1.3198,-1.3198,-1.3198,-1.3198,-1.3198,-1.3198,-1.3198,-1.3198,-1.3198,-1.3198,-1.3198,-1.3198,-1.3198,-1.3198,-1.3198,-1.3198,-1.3198,-2.5088,-2.5493,-2.5303,-2.5303,-2.2784,-1.9773,-1.7689,0.0,-0.5097,-0.5097,-0.5097,-0.5083,-0.4992,-0.4981,-0.5,-0.5089,-0.6213,-0.7787,-0.9806,0.0,0.0,0.0,0.0,0.0,0.0,0.0,0.0,0.0,0.0,0.0,-2.3312,-2.4572,-2.438,-2.2342,-2.2284,-2.165,-2.0312,-2.1611,-2.1284,-1.9305,-1.9305,-1.9968,-2.1253,-2.1253,-2.1253,-2.1253,-2.1253,0.0,0.0,-2.1253,-2.1253,-2.1253,-2.1253,-2.057,-1.9579,-1.9579,-1.8819,-1.7811,-1.7811,-1.7811,-1.7811,-1.7811,-1.7604,-1.7357,-1.7357,-1.6638,-1.5799,-1.5799,-1.5799,-1.5551,-1.4501,-1.3702,-1.3198,-1.3198,-1.3198,-1.3198,-1.3198,-1.3198,-1.3198,-1.3198,-1.3198,-1.3198,-1.3198,-1.3198,-1.3198,-1.3198,-1.3198,-1.3198,-1.3198,-1.3198,-1.3198,-1.3198,-1.3198,-1.3198,-1.3198,-1.3198,-1.3198,-1.3198,-1.3198,-1.3082,-1.2791,-1.2791,-1.265,-1.2354,-1.265,-1.2791,-1.2791,-1.3047,-1.3198,-1.3198,-1.3198,-1.306,-2.327,-2.3978,-2.3822,-2.3822,-2.2053,-1.9138,0.0,-0.9233,-0.5097,-0.5097,-0.5097,-0.5097,-0.5097,-0.5097,-0.5097,-0.5097,-0.5101,-0.5925,-0.8292,0.0,0.0,0.0,0.0,0.0,0.0,0.0,0.0,0.0,0.0,0.0,-2.1916,-2.3064,-2.269,-2.0361,-2.0312,-2.0312,-2.0312,-2.0098,-1.9767,-1.9305,-1.9305,-1.9305,-1.9305,-1.9305,-1.9305,-1.9305,-1.9305,0.0,0.0,-1.9305,-1.9305,-1.9274,-1.898,-1.8417,-1.7811,-1.7811,-1.7811,-1.7811,-1.7811,-1.7811,-1.7811,-1.7811,-1.6901,-1.5799,-1.5799,-1.5799,-1.5799,-1.5799,-1.5799,-1.5389,-1.3648,-1.3198,-1.3198,-1.3198,-1.3198,-1.3198,-1.3198,-1.3198,-1.3198,-1.3198,-1.3198,-1.3198,-1.3198,-1.3198,-1.3012,-1.2425,-1.2342,-1.2532,-1.3129,-1.3198,-1.3198,-1.3198,-1.3198,-1.3198,-1.3198,-1.3012,-1.3,-1.3198,-1.2943,-1.2685,-1.2508,-1.2365,-1.2138,-1.1811,-1.2102,-1.2282,-1.2282,-1.2615,-1.2803,-1.2803,-1.2803,-1.2615,-1.9877,-2.035,-2.035,-2.035,-2.0331,-1.8523,0.0,-0.7537,-0.5097,-0.5097,-0.5097,-0.5097,-0.5097,-0.5097,-0.5097,-0.5097,-0.5101,-0.5117,-0.5156,0.0,0.0,0.0,0.0,0.0,0.0,0.0,0.0,0.0,0.0,0.0,-2.1594,-2.0613,-2.0136,-2.0285,-2.0312,-2.0312,-2.0312,-1.9645,-1.9305,-1.9305,-1.9305,-1.9305,-1.9305,-1.9305,-1.9305,0.0,0.0,0.0,0.0,-1.9305,-1.9305,-1.9193,-1.8194,-1.7811,-1.7811,-1.7811,-1.7811,-1.7811,-1.7811,-1.7811,-1.7811,-1.7811,-1.6901,-1.5799,-1.5799,-1.5799,-1.5799,-1.5799,-1.5799,-1.5389,-1.3648,-1.3198,-1.3198,-1.3198,-1.3198,-1.3198,-1.3198,-1.3198,-1.3198,-1.3198,-1.3198,-1.3198,-1.3198,-1.3198,-1.2532,-1.0621,-1.0322,-1.1019,-1.2943,-1.3198,-1.3198,-1.3198,-1.3198,-1.3198,-1.3198,-1.2579,-1.2496,-1.3163,-1.2318,-1.2029,-1.2461,-1.2066,-1.1811,-1.1811,-1.1811,-1.1811,-1.1811,-1.1811,-1.1811,-1.1811,-1.1811,-1.1811,-1.6042,-1.8523,-2.0312,-2.0312,-1.8535,-1.5632,-1.1132,-0.7499,-0.5097,-0.5097,-0.5097,-0.5097,-0.5097,-0.5097,-0.5847,-0.8152,-0.6588,0.0,0.0,0.0,0.0,0.0,0.0,0.0,0.0,0.0,0.0,0.0,0.0,0.0,-2.0743,-2.0251,-2.0098,-2.0285,-2.0312,-2.0312,-2.0312,-1.9632,-1.9305,-1.9305,-1.9305,-1.9305,-1.9305,-1.9305,-1.9305,0.0,0.0,0.0,0.0,-1.9305,-1.9305,-1.9193,-1.8194,-1.7811,-1.7811,-1.7811,-1.7811,-1.7811,-1.7811,-1.7811,-1.7658,-1.6747,-1.6163,-1.5799,-1.5799,-1.5799,-1.5551,-1.4374,-1.4019,-1.3901,-1.3323,-1.3198,-1.3198,-1.3198,-1.3198,-1.3198,-1.3198,-1.3198,-1.3198,-1.3198,-1.3198,-1.3198,-1.3198,-1.3198,-1.2532,-1.0582,-1.0283,-1.0505,-1.1132,-1.1207,-1.1207,-1.1207,-1.1207,-1.1207,-1.1207,-1.1008,-1.0971,-1.1207,-1.159,-1.17,-1.1457,-1.1319,-1.1094,-1.0764,-1.1094,-1.1244,-1.1244,-1.1627,-1.1811,-1.1774,-1.1579,-1.1468,0.0,-1.3901,-1.458,-1.458,-1.2964,-1.0825,-0.8691,-0.6597,-0.5097,-0.5097,-0.5097,-0.5097,-0.5097,-0.5097,-0.579,-0.7864,-0.6469,0.0,0.0,0.0,0.0,0.0,0.0,0.0,0.0,0.0,0.0,0.0,0.0,0.0,-2.0331,-2.0098,-1.9998,-2.0031,-1.9952,-1.992,-1.992,-1.9518,-1.9305,-1.9305,-1.9305,-1.9305,-1.9305,-1.9305,-1.9305,0.0,0.0,0.0,0.0,-1.9305,-1.9305,-1.9193,-1.8194,-1.7811,-1.7811,-1.7811,-1.7811,-1.7811,-1.7811,-1.7811,-1.7589,-1.6231,-1.5799,-1.5799,-1.5799,-1.5359,-1.4596,-1.3514,-1.3198,-1.3198,-1.3198,-1.3198,-1.3198,-1.3198,-1.3198,-1.3198,-1.3198,-1.3198,-1.3198,-1.3198,-1.3198,-1.3198,-1.3198,-1.2603,-1.1689,-1.0467,-1.0283,-1.0283,-1.0283,-1.0283,-1.0283,-1.0283,-1.0283,-1.0283,-1.0283,-1.0283,-1.0283,-1.0283,-1.0878,-1.1207,-1.1132,-1.0867,-1.0611,-1.0322,-1.0572,-1.0725,-1.0725,-1.1067,-1.1217,-1.1217,-1.1029,-1.0905,0.0,-0.7479,0.0,-0.5097,-0.5097,-0.5097,-0.5097,-0.5097,0.0,-0.5097,-0.5103,-0.5108,-0.5108,-0.5108,-0.5103,-0.5108,0.0,0.0,0.0,0.0,0.0,0.0,0.0,0.0,0.0,0.0,0.0,0.0,0.0,0.0,-2.0312,-2.0105,-1.9887,-1.9638,-1.9415,-1.9301,-1.9335,-1.9305,-1.9305,-1.9305,-1.9305,-1.9305,-1.9305,-1.9305,-1.9305,0.0,0.0,0.0,0.0,-1.9305,-1.9259,-1.9095,-1.8153,-1.7811,-1.7811,-1.7811,-1.7811,-1.7811,-1.7811,-1.7811,-1.7589,-1.6231,-1.5799,-1.5799,-1.5799,-1.4596,-1.3198,-1.3198,-1.3198,-1.3198,-1.3198,-1.3198,-1.3198,-1.3198,-1.3198,-1.3198,-1.3198,-1.3198,-1.3198,-1.3198,-1.3198,-1.3163,-1.3012,-1.1505,-1.0283,-1.0283,-1.0283,-1.0283,-1.0283,-1.0283,-1.0283,-1.0283,-1.0283,-1.0283,-1.0283,-1.0283,-1.0283,-1.0283,-1.0283,-1.0572,-1.1207,-1.0611,-1.0283,-1.0283,-1.0283,-1.0283,-1.0283,-1.0283,-1.0283,-1.0283,-1.0283,-1.0283,-0.6059,0.0,-0.5097,-0.5097,-0.5097,-0.5097,0.0,-0.5097,-0.5097,-0.5097,0.0,-0.5093,-0.5093,-0.5093,-0.5091,0.0,0.0,0.0,0.0,0.0,0.0,0.0,0.0,0.0,0.0,0.0,0.0,0.0,0.0,-2.0312,-2.0312,-2.0105,-1.9979,-1.9903,-1.9501,-1.9415,-1.9682,-1.9434,-1.9305,-1.9305,-1.9305,-1.9305,-1.9305,-1.9305,-1.9305,0.0,0.0,0.0,-1.9305,-1.9305,-1.8842,-1.8128,-1.7883,-1.7811,-1.7811,-1.7811,-1.7811,-1.7811,-1.7811,-1.7811,-1.7589,-1.6231,-1.5799,-1.5799,-1.5799,-1.4596,-1.3198,-1.3198,-1.3198,-1.3198,-1.3198,-1.3198,-1.3198,-1.3198,-1.3198,-1.3198,-1.3198,-1.3198,-1.3198,-1.3198,-1.3198,-1.272,-1.1244,-1.0611,-1.0283,-1.0283,-1.0283,-1.0283,-1.0283,-1.0283,-1.0283,-1.0283,-1.0283,-1.0283,-1.0283,-1.0283,-1.0283,-1.0283,-1.0283,-1.0361,-1.0544,-1.039,-1.0283,-1.0283,-1.0283,-1.0283,-1.0283,-1.0283,-1.0283,-1.0283,-1.0283,-1.0283,-0.5097,-0.5097,-0.5097,-0.5097,-0.5097,-0.5097,-0.5097,-0.5097,0.0,0.0,0.0,0.0,0.0,0.0,0.0,0.0,0.0,0.0,0.0,0.0,0.0,0.0,0.0,0.0,0.0,0.0,0.0,0.0,0.0,-2.0312,-2.0312,-2.0203,-2.0101,-1.9998,-1.9538,-1.9468,-1.9794,-1.9471,-1.9298,-1.9305,-1.9606,-1.9593,-1.9305,-1.9305,-1.9305,0.0,0.0,0.0,-1.9305,-1.9305,-1.8717,-1.7811,-1.7811,-1.7811,-1.7811,-1.7811,-1.7811,-1.7811,-1.7811,-1.7408,-1.6757,-1.6039,-1.5799,-1.5799,-1.5799,-1.4596,-1.3198,-1.3198,-1.3198,-1.3198,-1.3198,-1.3198,-1.3198,-1.3198,-1.3198,-1.3198,-1.3198,-1.3198,-1.2943,-1.2054,-1.1872,-1.1542,-1.0467,-1.0283,-1.0283,-1.0283,-1.0283,-1.0283,-1.0283,-1.0283,-1.0283,-1.0283,-1.0283,-1.0283,-1.0283,-1.0283,-1.0283,-1.0283,-1.0283,-1.0283,-1.0283,-1.0283,-1.0283,-1.0283,-1.0283,-1.0283,-1.0283,-1.0283,-1.0283,-1.0283,-1.0283,-1.0283,-0.5097,-0.5097,-0.5232,-0.5732,-0.5867,-0.5732,-0.5213,0.0,0.0,0.0,0.0,0.0,0.0,0.0,0.0,0.0,0.0,0.0,0.0,0.0,0.0,0.0,0.0,0.0,0.0,0.0,0.0,0.0,0.0,-2.0312,-2.0312,-2.0298,-2.0219,-2.0017,-1.9538,-1.9442,-1.977,-1.9507,-1.9383,-1.9376,-1.9899,-1.9855,-1.9305,-1.9305,-1.9305,-1.9305,0.0,0.0,-1.9305,-1.9305,-1.8717,-1.7811,-1.7811,-1.7811,-1.7811,-1.7811,-1.7811,-1.7766,-1.7566,-1.6747,-1.5799,-1.5799,-1.5799,-1.5741,-1.5477,-1.4374,-1.3198,-1.3198,-1.3198,-1.3198,-1.3198,-1.3198,-1.3198,-1.3198,-1.3198,-1.3198,-1.3198,-1.3198,-1.2603,-1.0687,-1.0283,-1.0283,-1.0283,-1.0283,-1.0283,-1.0283,-1.0283,-1.0283,-1.0283,-1.0283,-1.0283,-1.0283,-1.0283,-1.0283,-1.0283,-1.0283,-1.0283,-1.0283,-1.0283,-1.0283,-1.0283,-1.0283,-1.0283,-1.0283,-1.0283,-1.0283,-1.0283,-1.0283,-1.0283,-1.0283,-1.0283,-1.0283,-0.5097,-0.5097,-0.579,-0.8614,-0.9325,-0.8594,-0.5751,0.0,0.0,0.0,0.0,0.0,0.0,0.0,0.0,0.0,0.0,0.0,0.0,0.0,0.0,0.0,0.0,0.0,0.0,0.0,0.0,0.0,0.0,-2.0312,-2.0312,-2.0307,-2.0213,-2.0011,-1.9544,-1.9406,-1.9623,-1.9688,-1.9713,-1.9719,-1.954,-1.939,-1.9305,-1.9305,-1.9305,-1.9305,0.0,-1.9305,-1.9305,-1.9305,-1.8717,-1.7811,-1.7811,-1.7811,-1.7811,-1.7811,-1.7811,-1.7635,-1.6512,-1.5983,-1.5799,-1.5799,-1.5799,-1.5522,-1.4052,-1.3425,-1.3198,-1.3198,-1.3198,-1.3198,-1.3198,-1.3198,-1.3198,-1.3198,-1.3198,-1.3198,-1.3198,-1.3198,-1.2603,-1.0687,-1.0283,-1.0283,-1.0283,-1.0283,-1.0283,-1.0283,-1.0283,-1.0283,-1.0283,-1.0283,-1.0283,-1.0283,-1.0283,-1.0283,-1.0283,-1.0283,-1.0283,-1.0283,-1.0283,-1.0283,-1.0283,-1.0283,-1.0283,-1.0283,-1.0283,-1.0283,-1.0283,-1.0283,-1.0283,-1.0283,-1.0283,-1.0283,-0.5097,-0.6424,-0.8614,-1.2017,-1.0096,-0.6991,-0.5448,-0.5093,0.0,0.0,0.0,0.0,0.0,0.0,0.0,0.0,0.0,0.0,0.0,0.0,0.0,0.0,0.0,0.0,0.0,0.0,0.0,0.0,0.0,0.0,-2.0312,-2.0296,-2.0213,-2.0012,-1.9639,-1.9507,-1.9588,-1.955,-1.9582,-1.9695,-1.9434,-1.9305,-1.9305,-1.9305,-1.9305,-1.9305,0.0,-1.9305,-1.9259,-1.8717,-1.8214,-1.7811,-1.7811,-1.7811,-1.7811,-1.7811,-1.7811,-1.7612,-1.6258,-1.5799,-1.5799,-1.5799,-1.5799,-1.5477,-1.3735,-1.3198,-1.3198,-1.3198,-1.3198,-1.3198,-1.3198,-1.3198,-1.3198,-1.3198,-1.3198,-1.3198,-1.3198,-1.2389,-1.1356,-1.0467,-1.0283,-1.0283,-1.0283,-1.0283,-1.0283,-1.0283,-1.0283,-1.0283,-1.0283,-1.0283,-1.0283,-1.0283,-1.0283,-1.0283,-1.0283,-1.0283,-1.0283,-1.0283,-1.0283,-1.0283,-1.0283,-1.0283,-1.0283,-1.0283,-1.0283,-1.0283,-1.0283,-1.0283,-1.0283,-1.0283,-1.0283,-1.0283,-0.5097,-0.6982,-0.9556,-1.2171,0.0,-0.6522,-0.7285,-0.7475,0.0,0.0,0.0,0.0,0.0,0.0,0.0,0.0,0.0,0.0,0.0,0.0,0.0,0.0,0.0,0.0,0.0,0.0,0.0,0.0,0.0,0.0,-2.0292,-2.0296,-2.0208,-2.0012,-1.9741,-1.9613,-1.9596,-1.9394,-1.9376,-1.954,-1.9376,-1.9305,-1.9305,-1.9305,-1.9305,-1.9305,-1.9305,-1.9305,-1.9209,-1.8214,-1.7811,-1.7811,-1.7811,-1.7811,-1.7811,-1.7811,-1.7612,-1.7175,-1.6163,-1.5799,-1.5799,-1.5799,-1.5799,-1.5477,-1.3735,-1.3198,-1.3198,-1.3198,-1.3198,-1.3198,-1.3198,-1.3198,-1.3198,-1.3198,-1.2861,-1.2532,-1.2532,-1.1356,-1.0283,-1.0283,-1.0283,-1.0283,-1.0283,-1.0283,-1.0283,-1.0283,-1.0283,-1.0283,-1.0283,-1.0283,-1.0283,-1.0283,-1.0283,-1.0283,-1.0283,-1.0283,-1.0079,-0.9549,-0.9549,-0.9549,-0.9549,-1.004,-1.0079,-0.9549,-0.9549,-0.9549,-0.9549,-0.9549,-0.9549,-0.9518,-0.9807,-0.9944,-0.5097,-0.527,-0.552,-0.577,-0.7893,0.0,-1.3783,-1.4464,0.0,-0.6405,0.0,0.0,0.0,0.0,0.0,0.0,0.0,0.0,0.0,0.0,0.0,0.0,0.0,0.0,0.0,0.0,0.0,0.0,0.0,0.0,-2.0254,-2.0304,-2.0203,-2.0012,-1.975,-1.9609,-1.9614,-1.9394,-1.9305,-1.932,-1.9305,-1.9305,-1.9305,-1.9305,-1.9305,-1.9305,-1.9305,-1.9305,-1.9209,-1.8214,-1.7811,-1.7811,-1.7811,-1.7811,-1.7811,-1.7811,-1.7027,-1.5926,-1.5827,-1.5799,-1.5799,-1.5799,-1.5799,-1.5477,-1.3735,-1.3198,-1.3198,-1.3198,-1.3198,-1.3198,-1.3198,-1.3198,-1.3198,-1.3198,-1.1836,-1.0505,-1.0505,-1.039,-1.0283,-1.0283,-1.0283,-1.0283,-1.0283,-1.0283,-1.0283,-1.0283,-1.0283,-1.0283,-1.0283,-1.0283,-1.0283,-1.0283,-1.0283,-1.0283,-1.0283,-1.0283,-0.9421,-0.7349,-0.7224,-0.7224,-0.7224,-0.9222,-0.9341,-0.7266,-0.7224,-0.7224,-0.7224,-0.7224,-0.7224,-0.7251,-0.84,-0.893,-0.5095,-0.5097,-0.5097,-0.5097,-0.6089,0.0,0.0,-1.2175,-1.5074,-1.4637,-1.5561,0.0,0.0,0.0,0.0,0.0,0.0,0.0,0.0,0.0,0.0,0.0,0.0,0.0,0.0,0.0,0.0,0.0,0.0,0.0,-1.8239,-1.8847,-1.9051,-1.8586,-1.8306,-1.8174,-1.8174,-1.8934,-1.9305,-1.9305,-1.9305,-1.9305,-1.9305,-1.9305,-1.9305,-1.9305,-1.9305,-1.8946,-1.8356,-1.7954,-1.7811,-1.7811,-1.7811,-1.7811,-1.7811,-1.7811,-1.6952,-1.5799,-1.5799,-1.5799,-1.5799,-1.5799,-1.5074,-1.4052,-1.3391,-1.3198,-1.3198,-1.3198,-1.3198,-1.3198,-1.3198,-1.3198,-1.2908,-1.1689,-1.084,-1.0283,-1.0283,-1.0283,-1.0283,-1.0283,-1.0283,-1.0283,-1.0283,-1.0283,-1.0283,-1.0283,-1.0283,-1.0283,-1.0283,-1.0283,-0.9785,-0.8407,-0.8244,-0.8244,-0.8244,-0.8244,-0.7882,-0.7063,-0.6979,-0.6979,-0.6979,-0.7792,-0.7833,-0.7021,-0.6979,-0.6979,-0.6979,-0.6979,-0.6979,-0.7012,-0.825,-0.8804,-0.5103,-0.5097,-0.5616,0.0,0.0,0.0,-0.6501,-1.1138,-1.617,-1.96,-2.0312,0.0,0.0,0.0,0.0,0.0,0.0,0.0,0.0,0.0,0.0,0.0,0.0,0.0,0.0,0.0,0.0,0.0,0.0,0.0,0.0,-1.7568,-1.7863,-1.7722,-1.7442,-1.731,-1.731,-1.8128,-1.8537,-1.8537,-1.8023,-1.8317,-1.9305,-1.9305,-1.9305,-1.9305,-1.9305,-1.8893,-1.8255,-1.7932,-1.7811,-1.7811,-1.7811,-1.7811,-1.7811,-1.7811,-1.6952,-1.5799,-1.5799,-1.5799,-1.5799,-1.5799,-1.4627,-1.3198,-1.3198,-1.3198,-1.3198,-1.3198,-1.3198,-1.3047,-1.2461,-1.2756,-1.272,-1.0764,-1.0283,-1.0283,-1.0283,-1.0283,-1.0283,-1.0283,-1.0283,-1.0283,-1.0283,-1.0283,-1.0283,-1.0283,-0.9707,-0.9262,-0.9262,-0.9262,-0.8691,-0.7147,-0.6979,-0.6979,-0.6979,-0.6979,-0.6979,-0.6979,-0.6979,-0.6979,-0.6979,-0.6979,-0.6979,-0.6979,-0.6979,-0.6979,-0.7021,-0.7402,-0.7589,-0.7602,-0.8424,-0.8804,-0.5143,-0.5157,0.0,0.0,0.0,0.0,-0.9565,-1.2858,-1.617,-1.96,0.0,0.0,0.0,0.0,0.0,0.0,0.0,0.0,0.0,0.0,0.0,0.0,0.0,0.0,0.0,0.0,0.0,0.0,0.0,0.0,0.0,-1.6631,-1.6849,-1.7645,-1.7423,-1.7272,-1.7272,-1.7015,-1.689,-1.6853,-1.5258,-1.6169,-1.9234,-1.9234,-1.9234,-1.9268,-1.9305,-1.9305,-1.9209,-1.8214,-1.7811,-1.7811,-1.7811,-1.7811,-1.7811,-1.7811,-1.6977,-1.5827,-1.5799,-1.5799,-1.5799,-1.5799,-1.4627,-1.3198,-1.3198,-1.3198,-1.3198,-1.3198,-1.3198,-1.272,-1.0802,-1.1715,-1.2685,-1.0764,-1.0283,-1.0283,-1.0283,-1.0283,-1.0283,-1.0283,-1.0283,-1.0283,-1.0283,-1.0283,-1.0283,-1.0283,-0.8407,-0.6979,-0.6979,-0.6979,-0.6979,-0.6979,-0.6979,-0.6979,-0.6979,-0.6979,-0.6979,-0.6979,-0.6979,-0.6979,-0.6979,-0.6979,-0.6979,-0.6979,-0.6979,-0.6979,-0.6985,-0.8223,-0.8804,-0.8804,-0.8804,-0.8804,-0.8083,-0.8751,0.0,-0.8212,0.0,0.0,0.0,-1.45,0.0,0.0,0.0,0.0,0.0,0.0,0.0,0.0,0.0,0.0,0.0,0.0,0.0,0.0,0.0,0.0,0.0,0.0,0.0,0.0,0.0,0.0,0.0,-1.5632,-1.5695,-1.5926,-1.5722,-1.5602,-1.5602,-1.5347,-1.5203,-1.5203,-1.4726,-1.5013,-1.5931,-1.5931,-1.5931,-1.6059,-1.8317,-1.9305,-1.9209,-1.8214,-1.7811,-1.7811,-1.7811,-1.7811,-1.7811,-1.7811,-1.7549,-1.7076,-1.6136,-1.5799,-1.5799,-1.5799,-1.4627,-1.3198,-1.3198,-1.3198,-1.3198,-1.3198,-1.2198,-1.1019,-1.0428,-1.0725,-1.1019,-1.0438,-1.0283,-1.0283,-1.0283,-1.0283,-1.0283,-1.0283,-1.0283,-1.0283,-1.0283,-1.0283,-0.9785,-0.8203,-0.7433,-0.6979,-0.6979,-0.6979,-0.6979,-0.6979,-0.6979,-0.6979,-0.6979,-0.6979,-0.6979,-0.6979,-0.6979,-0.6979,-0.6979,-0.6979,-0.6979,-0.6979,-0.6979,-0.6979,-0.6985,-0.8223,-0.8804,-0.8804,-0.8804,-0.8804,-0.8242,0.0,0.0,0.0,0.0,0.0,0.0,0.0,0.0,0.0,0.0,0.0,0.0,0.0,0.0,0.0,0.0,0.0,0.0,0.0,0.0,0.0,0.0,0.0,0.0,0.0,0.0,0.0,0.0,0.0,0.0,-1.5189,-1.5189,-1.5189,-1.5076,-1.4979,-1.4904,-1.4624,-1.4488,-1.4488,-1.4488,-1.4488,-1.4488,-1.4488,-1.4488,-1.4586,-1.6255,-1.6958,-1.691,-1.6295,-1.6052,-1.6052,-1.6052,-1.6779,-1.7811,-1.7811,-1.7455,-1.6901,-1.608,-1.5799,-1.5697,-1.4982,-1.4052,-1.3198,-1.3198,-1.2638,-1.2054,-1.2054,-1.1207,-1.0283,-1.0283,-1.0283,-1.0283,-1.0283,-1.0283,-1.0283,-1.0283,-1.0283,-1.0283,-1.0283,-1.0283,-1.0283,-1.0283,-1.0283,-0.9549,-0.7349,-0.6979,-0.6979,-0.6979,-0.6979,-0.6979,-0.6979,-0.6979,-0.6979,-0.6979,-0.6979,-0.6979,-0.6979,-0.6979,-0.6979,-0.6979,-0.6979,-0.6979,-0.6979,-0.6979,-0.6979,-0.6985,-0.8223,-0.8804,-0.8804,-0.8804,-0.8804,-0.6619,0.0,0.0,0.0,0.0,0.0,0.0,0.0,0.0,0.0,0.0,0.0,0.0,0.0,0.0,0.0,0.0,0.0,0.0,0.0,0.0,0.0,0.0,0.0,0.0,0.0,0.0,0.0,0.0,0.0,0.0,-1.5189,-1.5209,-1.5203,-1.519,-1.5101,-1.4895,-1.4643,-1.4488,-1.4488,-1.4488,-1.4464,-1.4405,-1.4405,-1.4405,-1.4362,-1.37,-1.3396,-1.3396,-1.3396,-1.3396,-1.3396,-1.3396,-1.5037,-1.7383,-1.73,-1.6651,-1.5799,-1.5799,-1.5799,-1.5507,-1.3769,-1.3198,-1.3198,-1.3198,-1.1836,-1.0283,-1.0283,-1.0283,-1.0283,-1.0283,-1.0283,-1.0244,-1.003,-1.0157,-1.0283,-1.0283,-1.0283,-1.0283,-1.0283,-1.0283,-1.0244,-1.003,-1.0,-0.9301,-0.7308,-0.6979,-0.6979,-0.6979,-0.6979,-0.6979,-0.6979,-0.6979,-0.6979,-0.6979,-0.6979,-0.6979,-0.6979,-0.6979,-0.6979,-0.6979,-0.6979,-0.6979,-0.6979,-0.681,-0.6677,-0.6683,-0.7871,-0.8533,-0.8804,-0.8804,-0.8804,-0.7008,-0.7932,0.0,0.0,0.0,0.0,0.0,0.0,0.0,0.0,0.0,0.0,0.0,0.0,0.0,0.0,0.0,0.0,0.0,0.0,0.0,0.0,0.0,0.0,0.0,0.0,0.0,0.0,0.0,0.0,-1.5189,-1.5189,-1.5204,-1.5202,-1.5196,-1.5094,-1.4898,-1.4629,-1.4488,0.0,-1.4488,-1.4211,-1.3638,-1.3638,-1.3638,-1.3622,-1.3479,-1.3396,-1.3396,-1.3396,-1.3396,-1.3396,-1.3396,-1.3786,-1.4237,-1.3404,-1.4246,-1.5799,-1.5799,-1.5799,-1.5507,-1.3769,-1.3198,-1.3198,-1.3198,-1.1836,-1.0283,-1.0283,-1.0283,-1.0283,-1.0283,-1.0283,-0.9873,-0.8121,-0.9053,-1.0283,-1.0283,-1.0283,-1.0283,-1.0283,-1.0283,-0.9746,-0.7998,-0.7716,-0.7551,-0.7063,-0.6979,-0.6979,-0.6979,-0.6979,-0.6979,-0.6979,-0.6979,-0.6979,-0.6979,-0.6979,-0.6979,-0.6979,-0.6979,-0.6979,-0.6979,-0.6979,-0.6979,-0.6979,-0.5265,-0.4316,-0.4316,-0.5089,-0.6578,-0.8804,-0.8804,-0.8804,0.0,0.0,0.0,0.0,0.0,0.0,0.0,0.0,0.0,0.0,0.0,0.0,0.0,0.0,0.0,0.0,0.0,0.0,0.0,0.0,0.0,0.0,0.0,0.0,0.0,0.0,0.0,0.0,0.0,-1.5189,-1.5189,-1.5189,-1.5197,-1.5197,-1.4968,-1.4802,-1.4701,-1.478,-1.4724,-1.4488,-1.4488,-1.4114,-1.3396,-1.3396,-1.3396,-1.3396,-1.3396,-1.3396,-1.3396,-1.3396,-1.3396,-1.3396,-1.3396,-1.3396,-1.326,-1.2195,-1.2673,-1.4075,-1.5349,-1.5255,-1.4406,-1.348,-1.3198,-1.3198,-1.3198,-1.1836,-1.0283,-1.0283,-1.0283,-1.0079,-0.9013,-0.8731,-0.8448,-0.7266,-0.7874,-0.8731,-0.8731,-0.8731,-0.8731,-0.8731,-0.8731,-0.8366,-0.7182,-0.6979,-0.6979,-0.6979,-0.6979,-0.6979,-0.6979,-0.6979,-0.6979,-0.6979,-0.6033,-0.5389,-0.5389,-0.5389,-0.5389,-0.5389,-0.5389,-0.5389,-0.5389,-0.5389,-0.5905,-0.6979,-0.6377,-0.5415,-0.4052,-0.4364,-0.5277,-0.674,-0.674,-0.7503,-0.8555,0.0,-0.9189,-1.4005,0.0,0.0,0.0,0.0,0.0,0.0,0.0,0.0,0.0,0.0,0.0,0.0,0.0,0.0,0.0,0.0,0.0,0.0,0.0,0.0,0.0,0.0,0.0,0.0,0.0,-1.5189,-1.5189,-1.5189,-1.5158,-1.5069,-1.4695,-1.4502,-1.4494,-1.4884,-1.4883,-1.4488,-1.4362,-1.3991,-1.3396,-1.3396,-1.3396,-1.3396,-1.3396,-1.3396,-1.3396,-1.3396,-1.3396,-1.3396,-1.3396,-1.3278,-1.3033,-1.2133,-1.1805,-1.2097,-1.4092,-1.4094,-1.3198,-1.3198,-1.3198,-1.3129,-1.2791,-1.1579,-1.0283,-1.0283,-1.004,-0.9301,-0.7467,-0.6979,-0.6979,-0.6979,-0.6979,-0.6979,-0.6979,-0.6979,-0.6979,-0.6979,-0.6979,-0.6979,-0.6979,-0.6979,-0.6979,-0.6979,-0.6979,-0.6979,-0.6979,-0.6979,-0.6846,-0.6465,-0.4705,-0.3581,-0.3581,-0.3581,-0.3581,-0.3581,-0.3581,-0.3581,-0.3581,-0.368,-0.4633,-0.6514,-0.7534,-0.6902,-0.4519,-0.5007,-0.5007,-0.4519,-0.4519,-0.5764,0.0,0.0,-1.0643,0.0,0.0,0.0,0.0,0.0,0.0,0.0,0.0,0.0,0.0,0.0,0.0,0.0,0.0,0.0,0.0,0.0,0.0,0.0,0.0,0.0,0.0,0.0,0.0,0.0,-1.5189,-1.5189,-1.5189,-1.5189,-1.5005,-1.4608,-1.4537,-1.4494,-1.4489,-1.4559,-1.4554,-1.4488,-1.3848,-1.3512,-1.3396,-1.3396,-1.3396,-1.3396,-1.3396,-1.3396,-1.3396,-1.3396,-1.3396,-1.3396,-1.3396,-1.2818,-1.2003,-1.1854,-1.1805,-1.1682,-1.0955,-1.178,-1.3198,-1.3198,-1.3198,-1.2908,-1.1207,-1.0505,-1.0283,-1.0283,-0.8933,-0.7391,-0.7063,-0.6979,-0.6979,-0.6979,-0.6979,-0.6979,-0.6979,-0.6979,-0.6979,-0.6979,-0.6979,-0.6979,-0.6979,-0.6979,-0.6979,-0.6979,-0.6979,-0.6979,-0.6979,-0.6979,-0.6246,-0.4272,-0.3799,-0.3581,-0.3581,-0.3581,-0.3581,-0.3581,-0.3581,-0.3581,-0.3581,-0.4124,-0.4502,-0.482,-0.5015,-0.4897,-0.4519,-0.7015,-0.6961,-0.4519,-0.4519,-0.468,-0.4584,-0.7548,-1.046,0.0,0.0,0.0,0.0,0.0,0.0,0.0,0.0,0.0,0.0,0.0,0.0,0.0,0.0,0.0,0.0,0.0,0.0,0.0,0.0,0.0,0.0,0.0,0.0,0.0,-1.5189,-1.5189,-1.5189,-1.5189,-1.4988,-1.4518,-1.4507,-1.45,-1.4488,-1.4488,-1.4301,-1.3877,-1.356,-1.3396,-1.3396,-1.3396,-1.3396,-1.3396,-1.3396,-1.3396,-1.3396,-1.3396,-1.3396,-1.3346,-1.2743,-1.2215,-1.1805,-1.1805,-1.1341,-1.0664,-1.0097,-1.0546,-1.1545,-1.2797,-1.1811,-0.9969,-0.9104,-0.8848,-0.8848,-0.8848,-0.7956,-0.6979,-0.6979,-0.6979,-0.6979,-0.6979,-0.6979,-0.6979,-0.6979,-0.6979,-0.6979,-0.6979,-0.6979,-0.6979,-0.6979,-0.6979,-0.655,-0.5303,-0.5091,-0.5091,-0.5091,-0.5091,-0.4705,-0.3711,-0.3581,-0.3581,-0.3581,-0.3581,-0.3581,-0.3581,-0.3581,-0.3581,-0.3581,-0.4199,-0.4519,-0.4519,-0.4519,-0.4519,-0.4519,-0.5764,-0.5764,-0.4519,-0.4519,-0.4519,0.0,0.0,0.0,0.0,0.0,0.0,0.0,0.0,0.0,0.0,0.0,0.0,0.0,0.0,0.0,0.0,0.0,0.0,0.0,0.0,0.0,0.0,0.0,0.0,0.0,0.0,0.0,0.0,-1.5189,-1.5189,-1.5189,-1.5094,-1.4856,-1.4511,-1.4488,-1.4488,-1.4488,-1.4313,-1.3949,-1.3396,-1.3396,-1.3396,-1.3396,-1.3396,-1.3396,-1.3396,-1.3396,-1.3396,-1.3396,-1.3396,-1.3243,-1.2908,-1.2113,-1.1805,-1.1805,-1.1805,-1.0996,-0.9905,-0.9905,-0.9905,-1.0169,-1.1808,-1.0244,-0.7695,-0.7695,-0.7695,-0.7608,-0.7205,-0.6827,-0.6647,-0.6947,-0.6979,-0.6979,-0.6979,-0.6979,-0.6979,-0.6979,-0.6979,-0.6979,-0.6979,-0.655,-0.6337,-0.6894,-0.6507,-0.5561,-0.384,-0.3581,-0.3581,-0.3581,-0.3581,-0.3581,-0.3581,-0.3581,-0.3581,-0.3581,-0.3581,-0.3581,-0.3581,-0.3721,-0.3852,-0.3852,-0.4282,-0.4519,-0.4519,-0.4367,-0.4292,-0.4292,-0.4443,-0.4519,-0.4519,-0.4519,-0.4519,0.0,0.0,0.0,0.0,0.0,0.0,0.0,0.0,0.0,0.0,0.0,0.0,0.0,0.0,0.0,0.0,0.0,0.0,0.0,0.0,0.0,0.0,0.0,0.0,0.0,0.0,0.0,0.0,-1.5189,-1.5189,-1.5189,-1.4785,-1.4522,-1.4488,-1.4488,-1.4488,-1.4488,-1.3803,-1.3446,-1.3396,-1.3396,-1.3396,-1.3396,-1.3396,-1.3396,-1.3396,-1.3396,-1.3396,-1.3396,-1.3396,-1.2799,-1.1876,-1.1811,-1.1805,-1.1805,-1.1805,-1.0996,-0.9905,-0.9905,-0.9905,-0.9918,-1.0031,-0.9005,-0.7695,-0.7695,-0.7695,-0.7392,-0.5866,-0.542,-0.5625,-0.6734,-0.6979,-0.6979,-0.6979,-0.6979,-0.6979,-0.6979,-0.6979,-0.6979,-0.6979,-0.526,-0.4447,-0.6634,-0.5221,-0.3755,-0.3622,-0.3581,-0.3581,-0.3581,-0.3581,-0.3581,-0.3581,-0.3581,-0.3581,-0.3581,-0.3581,-0.3581,-0.3581,-0.4158,-0.447,-0.447,-0.4501,-0.4519,-0.4519,-0.3959,-0.3626,-0.3629,-0.424,-0.4519,-0.4519,-0.4519,-0.4519,0.0,0.0,0.0,0.0,0.0,0.0,0.0,0.0,0.0,0.0,0.0,0.0,0.0,0.0,0.0,0.0,0.0,0.0,0.0,0.0,0.0,0.0,0.0,0.0,0.0,0.0,0.0,0.0,0.0,-1.1676,-1.1676,-1.1519,-1.1416,-1.1416,-1.1416,-1.1416,-1.1416,-1.2724,-1.3396,-1.3396,-1.3396,-1.3396,-1.3396,-1.3396,-1.3396,-1.3396,-1.3396,-1.3396,-1.3396,-1.3396,-1.2762,-1.1805,-1.1805,-1.1805,-1.1703,-1.0879,-1.0285,-0.9905,-0.9905,-0.9905,-0.9738,-0.8789,-0.8138,-0.7695,-0.7695,-0.6996,-0.6044,-0.5467,-0.5309,-0.5551,-0.672,-0.6979,-0.6634,-0.5178,-0.5947,-0.6979,-0.6979,-0.5862,-0.4831,-0.4831,-0.4144,-0.384,-0.4661,-0.4144,-0.3581,-0.3581,-0.3581,-0.3581,-0.3581,-0.3581,-0.3581,-0.3581,-0.3581,-0.378,-0.4165,-0.4199,-0.4199,-0.4199,-0.4398,-0.4519,-0.4519,-0.4519,-0.4337,-0.3952,-0.3687,-0.3581,-0.3581,-0.4227,-0.4519,-0.4519,-0.4519,-0.4519,0.0,0.0,0.0,0.0,0.0,0.0,0.0,0.0,0.0,0.0,0.0,0.0,0.0,0.0,0.0,0.0,0.0,0.0,0.0,0.0,0.0,0.0,0.0,0.0,0.0,0.0,0.0,0.0,0.0,0.0,-0.9706,-0.9698,-0.9698,-0.9698,-0.9698,-0.9698,-0.9698,-1.116,-1.2397,-1.3396,-1.3396,-1.3396,-1.3396,-1.3396,-1.3396,-1.3396,-1.3396,-1.3396,-1.3379,-1.2998,-1.2455,-1.1805,-1.1805,-1.1805,-1.1659,-1.0371,-0.9905,-0.9905,-0.9905,-0.9581,-0.9008,-0.8023,-0.7695,-0.7608,-0.7056,-0.6137,-0.5309,-0.5309,-0.5309,-0.5551,-0.672,-0.6422,-0.5475,-0.3968,-0.4748,-0.5862,-0.5862,-0.4661,-0.3581,-0.3581,-0.3581,-0.3581,-0.3581,-0.3581,-0.3581,-0.3581,-0.3581,-0.3581,-0.3581,-0.3581,-0.3581,-0.3581,-0.3581,-0.3784,-0.4182,-0.4216,-0.4302,-0.4505,-0.4519,-0.4519,-0.4519,-0.4519,-0.4234,-0.3592,-0.3581,-0.3581,-0.3581,-0.4024,-0.4319,-0.4519,-0.4519,-0.4519,0.0,0.0,0.0,0.0,0.0,0.0,0.0,0.0,0.0,0.0,0.0,0.0,0.0,0.0,0.0,0.0,0.0,0.0,0.0,0.0,0.0,0.0,0.0,0.0,0.0,0.0,0.0,0.0,-0.9949,-0.9986,-0.9721,-0.9698,-0.9698,-0.9698,-0.9698,-0.9698,-0.9698,-0.9159,-1.0365,-1.3278,-1.3278,-1.3312,-1.3396,-1.3396,-1.3396,-1.3396,-1.3396,-1.3379,-1.326,-1.2235,-1.1805,-1.1805,-1.1805,-1.1783,-1.1579,-1.0347,-0.9905,-0.9905,-0.9905,-0.8926,-0.7695,-0.7695,-0.7666,-0.7333,-0.5773,-0.5309,-0.5309,-0.5309,-0.5246,-0.5471,-0.6593,-0.5245,-0.3581,-0.3581,-0.3581,-0.3581,-0.3581,-0.3581,-0.3581,-0.3581,-0.3581,-0.3581,-0.3581,-0.3581,-0.3581,-0.3581,-0.3581,-0.3581,-0.3581,-0.3581,-0.3581,-0.3581,-0.3581,-0.3581,-0.3581,-0.3595,-0.3849,-0.4316,-0.4388,-0.4378,-0.4378,-0.4378,-0.4113,-0.3499,-0.3581,-0.3626,-0.3626,-0.3643,-0.3949,-0.4519,-0.4519,-0.4519,0.0,0.0,0.0,0.0,0.0,0.0,0.0,0.0,0.0,0.0,0.0,0.0,0.0,0.0,0.0,0.0,0.0,0.0,0.0,0.0,0.0,0.0,0.0,0.0,0.0,0.0,0.0,0.0,-0.9764,-0.9771,-0.9706,-0.9698,-0.9698,-0.9698,-0.9698,-0.9698,-0.9698,-0.9159,-0.9315,-1.0145,-1.0145,-1.1279,-1.3396,-1.3396,-1.3396,-1.3396,-1.3396,-1.2962,-1.2215,-1.1918,-1.1805,-1.1805,-1.1805,-1.1227,-1.0371,-1.0021,-0.9905,-0.9905,-0.9905,-0.8926,-0.7695,-0.7695,-0.6897,-0.589,-0.5435,-0.5309,-0.5309,-0.5309,-0.4398,-0.3477,-0.3792,-0.3726,-0.3581,-0.3581,-0.3581,-0.3581,-0.3581,-0.3581,-0.3581,-0.3581,-0.3581,-0.3581,-0.3581,-0.3581,-0.3581,-0.3581,-0.3581,-0.3581,-0.3581,-0.3581,-0.3581,-0.3581,-0.3581,-0.3581,-0.3581,-0.4021,-0.3374,-0.1394,-0.127,-0.1243,-0.1243,-0.1243,-0.1171,-0.0987,-0.2702,-0.3805,-0.4268,-0.4228,-0.4354,-0.4519,-0.4519,-0.4519,0.0,0.0,0.0,0.0,0.0,0.0,0.0,-0.6537,0.0,0.0,0.0,0.0,0.0,0.0,0.0,0.0,0.0,0.0,0.0,0.0,0.0,0.0,0.0,0.0,0.0,-0.9695,-0.9698,-0.9698,-0.9698,-0.9698,-0.9698,-0.9698,-0.9698,-0.9698,-0.9698,-0.9698,-0.9698,-0.9159,-0.8891,-0.8891,-0.8891,-0.9823,-1.1567,-1.2837,-1.3396,-1.3379,-1.2926,-1.2376,-1.1805,-1.1805,-1.1805,-1.1747,-1.1205,-1.0543,-0.9905,-0.9905,-0.9516,-0.8981,-0.8981,-0.841,-0.7695,-0.7695,-0.6595,-0.5309,-0.5309,-0.5309,-0.5309,-0.5309,-0.4048,-0.2712,-0.2712,-0.3127,-0.3581,-0.3581,-0.3581,-0.3581,-0.3581,-0.3581,-0.3581,-0.3581,-0.3581,-0.3581,-0.3581,-0.3581,-0.3265,-0.2235,-0.2951,-0.3581,-0.3581,-0.3581,-0.3581,-0.3581,-0.3581,-0.3581,-0.3581,-0.3016,-0.1893,-0.0103,0.0,0.0,0.0,0.0,0.0,0.0,-0.1395,-0.2757,-0.4145,-0.4143,-0.4271,-0.4519,-0.4519,-0.4519,-0.4254,-0.4944,0.0,0.0,0.0,0.0,-0.6043,-0.8334,0.0,0.0,0.0,0.0,0.0,0.0,0.0,0.0,0.0,0.0,0.0,0.0,0.0,0.0,0.0,0.0,-0.9721,-0.9698,-0.9698,-0.9698,-0.9698,-0.9698,-0.9698,-0.9698,-0.9698,-0.9698,-0.9698,-0.9698,-0.9698,-0.9218,-0.8957,-0.8891,-0.8891,-0.8891,-0.8993,-1.1686,-1.3074,-1.3346,-1.2276,-1.1805,-1.1805,-1.1805,-1.1725,-1.149,-1.0322,-0.9905,-0.9867,-0.9712,-0.8816,-0.7695,-0.7695,-0.7578,-0.7421,-0.7421,-0.6474,-0.5309,-0.5309,-0.5309,-0.5246,-0.5049,-0.3886,-0.2712,-0.2712,-0.308,-0.3453,-0.3252,-0.322,-0.3265,-0.3541,-0.3585,-0.3537,-0.3265,-0.322,-0.322,-0.322,-0.322,-0.246,-0.0314,-0.1834,-0.322,-0.322,-0.322,-0.322,-0.322,-0.322,-0.322,-0.322,-0.1253,0.0,0.0,0.0,0.0,0.0,0.0,0.0,0.0,0.0,-0.1044,-0.321,-0.3553,-0.3997,-0.4519,-0.4519,-0.4519,-0.4722,-0.4824,-0.4793,-0.4809,0.0,0.0,-0.5145,-0.5691,-0.6191,0.0,0.0,0.0,0.0,0.0,0.0,0.0,0.0,0.0,0.0,0.0,0.0,0.0,0.0,0.0,-0.9721,-0.9698,-0.9698,-0.9698,-0.9698,-0.9698,-0.9698,-0.9698,-0.9698,-0.9698,-0.9698,-0.9698,-0.9698,-0.9601,-0.9331,-0.8891,-0.8891,-0.8891,-0.8908,-0.9501,-1.1093,-1.3346,-1.2276,-1.1805,-1.1805,-1.1805,-1.1205,-1.026,-0.9995,-0.9905,-0.9764,-0.8568,-0.7947,-0.7695,-0.7695,-0.6837,-0.5773,-0.5773,-0.5554,-0.5309,-0.5309,-0.5309,-0.5017,-0.3593,-0.2973,-0.2712,-0.2712,-0.2802,-0.2492,-0.1041,-0.0717,-0.1257,-0.3161,-0.3622,-0.3024,-0.1076,-0.0717,-0.0717,-0.0717,-0.0717,-0.0538,-0.009,-0.0404,-0.0717,-0.0717,-0.0717,-0.0717,-0.0717,-0.0717,-0.0717,-0.0717,-0.0269,0.0,0.0,0.0,0.0,0.0,0.0,0.0,0.0,0.0,-0.0239,-0.0701,-0.3164,-0.4402,-0.4519,-0.4519,-0.4519,-0.482,-0.4793,-0.4801,-0.4835,0.0,0.0,0.0,-0.5651,-0.6159,-0.7227,0.0,0.0,0.0,0.0,0.0,0.0,0.0,0.0,0.0,0.0,0.0,0.0,0.0,0.0,-0.9768,-0.9747,-0.9732,-0.9706,-0.9698,-0.9698,-0.9698,-0.9698,-0.9698,-0.9698,-0.9698,-0.9698,-0.9698,-0.943,-0.9159,-0.8891,-0.8891,-0.8891,-0.8891,-0.8891,-0.9542,-1.0703,-1.1484,-1.1805,-1.1805,-1.1805,-1.1423,-1.0784,-1.0135,-0.9905,-0.9712,-0.8241,-0.7695,-0.7695,-0.7695,-0.7175,-0.6352,-0.5554,-0.5309,-0.5309,-0.5309,-0.4692,-0.3821,-0.294,-0.2712,-0.248,-0.1573,-0.1338,-0.1132,-0.0216,0.0,-0.0315,-0.1531,-0.1803,-0.144,-0.0225,0.0,0.0,0.0,0.0,0.0,0.0,0.0,0.0,0.0,0.0,0.0,0.0,0.0,0.0,0.0,0.0,0.0,0.0,0.0,0.0,0.0,0.0,0.0,0.0,0.0,0.0,-0.0,-0.1507,-0.2232,-0.2232,-0.2232,-0.2232,0.0,0.0,0.0,0.0,0.0,-0.5,0.0,0.0,0.0,-0.742,0.0,0.0,0.0,0.0,0.0,0.0,0.0,0.0,0.0,0.0,0.0,0.0,0.0,0.0,0.0,-0.9718,-0.9777,-0.9717,-0.9713,-0.9698,-0.9698,-0.9698,-0.9698,-0.9698,-0.9698,-0.9641,-0.9542,-0.9109,-0.8891,-0.8891,-0.8891,-0.8891,-0.8891,-0.8891,-0.8534,-0.8034,-1.0279,-1.1455,-1.1805,-1.1805,-1.1659,-1.1318,-1.031,-0.9905,-0.9712,-0.8241,-0.7695,-0.7695,-0.7695,-0.751,-0.7026,-0.571,-0.5309,-0.5246,-0.489,-0.3821,-0.2712,-0.2712,-0.2444,-0.184,-0.0369,0.0,0.0,0.0,0.0,0.0,0.0,0.0,0.0,0.0,0.0,0.0,0.0,0.0,0.0,0.0,0.0,0.0,0.0,0.0,0.0,0.0,0.0,0.0,0.0,0.0,0.0,0.0,0.0,0.0,0.0,0.0,0.0,0.0,0.0,0.0,0.0,0.0,0.0,0.0,0.0,0.0,0.0,0.0,0.0,0.0,-0.4846,0.0,0.0,0.0,-0.5097,-0.5382,0.0,0.0,0.0,0.0,0.0,0.0,0.0,0.0,0.0,0.0,0.0,0.0,0.0,0.0,0.0,-0.9369,-0.9787,-0.9784,-0.9725,-0.9698,-0.9698,-0.9698,-0.9698,-0.9698,-0.9698,-0.9483,-0.9001,-0.8936,-0.8891,-0.8891,-0.8891,-0.8891,-0.8891,-0.8891,-0.8534,-0.7957,-0.8838,-1.0224,-1.1805,-1.1805,-1.1136,-1.0084,-0.9944,-0.9905,-0.9712,-0.8241,-0.7695,-0.7695,-0.7695,-0.6777,-0.5561,-0.5372,-0.5309,-0.5017,-0.3462,-0.2845,-0.2712,-0.2712,-0.154,-0.0269,-0.0067,0.0,0.0,0.0,0.0,0.0,0.0,0.0,0.0,0.0,0.0,0.0,0.0,0.0,0.0,0.0,0.0,0.0,0.0,0.0,0.0,0.0,0.0,0.0,0.0,0.0,0.0,0.0,0.0,0.0,0.0,0.0,0.0,0.0,0.0,0.0,0.0,0.0,0.0,0.0,0.0,0.0,0.0,0.0,0.0,0.0,0.0,0.0,-0.5058,0.0,-0.4916,0.0,0.0,0.0,0.0,0.0,0.0,0.0,0.0,0.0,0.0,0.0,0.0,0.0,0.0,0.0,0.0,0.0,0.0,0.0,-0.8712,-0.9789,-0.9706,-0.9698,-0.9698,-0.9698,-0.9394,-0.9119,-0.8902,-0.8891,-0.8891,-0.8891,-0.8891,-0.8891,-0.8891,-0.8891,-0.8738,-0.8497,-0.8789,-0.9151,-0.96,-1.0387,-1.0371,-0.9816,-0.8953,-0.8623,-0.854,-0.7918,-0.7695,-0.7578,-0.6626,-0.5866,-0.5309,-0.5309,-0.4628,-0.3653,-0.2907,-0.2712,-0.2712,-0.2712,-0.2142,-0.1338,-0.0269,0.0,0.0,0.0,0.0,0.0,0.0,0.0,0.0,0.0,0.0,0.0,0.0,0.0,0.0,0.0,0.0,0.0,0.0,0.0,0.0,0.0,0.0,0.0,0.0,0.0,0.0,0.0,0.0,0.0,0.0,0.0,0.0,0.0,0.0,0.0,0.0,0.0,0.0,0.0,0.0,0.0,-0.4618,0.0,0.0,0.0,0.0,0.0,0.0,0.0,0.0,0.0,0.0,0.0,0.0,0.0,0.0,0.0,0.0,0.0,0.0,0.0,0.0,0.0,0.0,0.0,0.0,0.0,0.0,0.0,0.0,-0.9838,-0.9818,-0.9739,-0.9698,-0.9698,-0.9331,-0.9054,-0.8902,-0.8891,-0.8891,-0.8891,-0.8891,-0.8891,-0.8891,-0.8891,-0.8801,-0.862,-0.862,-0.8224,-0.7611,-0.8602,-0.9353,-0.9764,-0.8269,-0.7695,-0.7695,-0.7695,-0.7421,-0.6867,-0.571,-0.5309,-0.5214,-0.4756,-0.3719,-0.2712,-0.2712,-0.2712,-0.2613,-0.2109,-0.1973,-0.1673,-0.0335,0.0,0.0,0.0,0.0,0.0,0.0,0.0,0.0,0.0,0.0,0.0,0.0,0.0,0.0,0.0,0.0,0.0,0.0,0.0,0.0,0.0,0.0,0.0,0.0,0.0,0.0,0.0,0.0,0.0,0.0,0.0,0.0367,0.1194,0.0431,0.0,0.0,0.0,0.0,0.0,0.0,0.0,0.0,0.0,0.0,-0.4948,0.0,0.0,0.0,0.0,-0.5093,0.0,0.0,0.0,0.0,0.0,0.0,0.0,0.0,0.0,0.0,0.0,0.0,0.0,0.0,0.0,0.0,0.0,0.0,0.0,0.0,0.0,-1.0074,-0.9838,-0.9698,-0.9698,-0.9691,-0.9421,-0.8902,-0.8891,-0.8891,-0.8891,-0.8891,-0.8891,-0.8891,-0.8891,-0.8547,-0.7942,-0.7942,-0.7438,-0.6633,-0.6692,-0.7972,-0.9764,-0.8269,-0.7695,-0.7695,-0.7695,-0.6717,-0.5372,-0.5309,-0.5309,-0.5017,-0.3331,-0.2746,-0.2712,-0.2712,-0.2712,-0.2344,-0.057,-0.0101,-0.0067,-0.0,0.0,0.0,0.0,0.0,0.0,0.0,0.0,0.0,0.0,0.0,0.0,0.0,0.0,0.0,0.0,0.0,0.0,0.0,0.0,0.0,0.0,0.0,0.0,0.0,0.0,0.0,0.0,0.0,0.0,0.0,0.0,0.1395,0.431,0.1498,0.0,0.0,0.0,0.0,0.0,0.0,0.0,0.0,0.0,-0.5007,-0.4712,0.0,0.0,0.0,0.0,0.0,0.0,0.0,0.0,0.0,0.0,0.0,0.0,0.0,0.0,0.0,0.0,0.0,0.0,0.0,0.0,0.0,0.0,0.0,0.0,-0.8422,0.0,0.0,-0.9754,-0.9698,-0.9698,-0.9358,-0.9078,-0.8902,-0.8891,-0.8891,-0.8891,-0.8891,-0.8891,-0.888,-0.8434,-0.8108,-0.7899,-0.7899,-0.7724,-0.7407,-0.6841,-0.7037,-0.7727,-0.77,-0.7695,-0.7578,-0.6504,-0.5773,-0.5309,-0.5309,-0.4532,-0.3495,-0.2878,-0.2712,-0.248,-0.1273,-0.0904,-0.0535,0.127,0.1773,0.1773,0.1773,0.0904,0.0,0.0,0.0,0.0,0.0,0.1254,0.237,0.237,0.237,0.237,0.237,0.237,0.1834,0.0225,0.1343,0.1789,0.0225,0.0,0.0,0.0,0.0,0.0,0.0,0.0,0.0,0.0,0.0,0.0717,0.2326,0.0851,0.1399,0.445,0.3511,0.2954,0.2954,0.2954,0.2954,0.2954,0.2954,0.1898,-0.8891,-0.7503,0.0,-0.4822,-0.6005,0.0,-0.5364,0.0,0.0,0.0,0.0,0.0,0.0,0.0,0.0,0.0,0.0,0.0,0.0,0.0,0.0,0.0,0.0,0.0,0.0,0.0,-0.4237,-0.6565,-0.8558,0.0,0.0,0.0,-0.9508,-0.9698,-0.9169,-0.8891,-0.8891,-0.8891,-0.8891,-0.8891,-0.8655,-0.8547,-0.8534,-0.8094,-0.7899,-0.7899,-0.7899,-0.7724,-0.7392,-0.6841,-0.6599,-0.6668,-0.74,-0.7695,-0.751,-0.5897,-0.5309,-0.5214,-0.4596,-0.3626,-0.2712,-0.2712,-0.2712,-0.2377,-0.0536,0.0436,0.1204,0.2377,0.2712,0.2712,0.2712,0.1347,0.0233,0.109,0.1298,0.1298,0.1298,0.2504,0.3581,0.3581,0.3581,0.3581,0.3581,0.3581,0.3084,0.1521,0.2593,0.304,0.1477,0.1298,0.1298,0.1298,0.1298,0.0941,0.009,0.0807,0.1298,0.1298,0.1298,0.1967,0.3537,0.2315,0.2492,0.4453,0.4519,0.4519,0.4519,0.4519,0.4519,0.4519,0.4519,0.3456]}]]